GFSNGP_250_spd_000.txt.gz
Wind_Speed
48 49 50 50 51 51 50 54 51 59 57 65 64 67 70 72 73 74 76 79 83 86 90 91 92 93 95 98 100 102 105 108 110 116 117 115 114 116 118 120 118 110 103 99
50 51 53 56 57 55 54 56 57 59 64 65 66 71 76 77 78 80 82 85 88 89 92 96 100 104 107 108 110 114 117 120 122 121 117 118 120 120 119 110 99 100 98 99
52 53 52 56 57 59 60 61 61 65 69 72 74 77 80 83 85 87 88 91 96 98 100 104 107 110 114 118 119 119 121 122 123 124 122 123 121 118 112 108 110 110 111 113
58 55 54 58 63 63 64 66 69 69 71 74 77 81 83 83 89 95 95 97 102 106 109 112 115 119 119 119 120 122 120 118 119 122 123 122 120 119 118 120 122 121 120 123
50 48 49 58 62 62 65 67 71 72 76 80 83 86 90 91 95 100 105 108 113 117 120 121 119 120 120 119 121 121 124 127 130 130 129 127 126 125 125 126 128 130 130 130
47 48 53 63 62 65 66 69 73 77 80 84 87 90 93 98 102 103 107 113 114 112 113 116 117 119 123 125 128 131 133 135 136 138 135 132 132 131 131 130 129 128 128 129
55 58 62 66 67 69 72 75 78 82 87 91 94 96 100 98 99 100 102 107 113 117 120 123 126 128 130 131 135 137 138 138 139 139 137 133 134 132 130 127 125 126 126 125
57 60 63 69 71 72 73 76 79 83 87 90 91 91 92 95 101 107 112 116 119 122 125 128 133 134 133 134 139 139 136 136 139 138 136 136 135 131 131 128 127 129 128 126
52 50 54 60 62 63 65 68 70 76 82 86 90 93 100 105 111 115 119 122 123 125 128 132 134 134 131 133 135 139 137 138 138 136 134 133 129 130 127 125 126 123 118 114
45 56 60 62 65 64 68 74 78 82 88 94 99 101 106 110 114 118 122 126 128 129 130 123 127 126 128 130 130 132 133 130 131 128 125 123 121 115 110 109 109 107 106 103
55 63 63 68 73 74 77 83 83 86 91 96 100 106 110 114 119 122 123 117 114 113 115 120 121 127 129 129 126 122 120 119 118 115 113 113 110 106 104 102 100 96 94 90
58 64 65 71 76 77 82 85 87 90 95 100 104 109 113 117 121 124 115 114 117 116 112 116 120 119 118 116 114 111 108 109 108 107 105 102 99 95 96 94 92 89 85 78
66 71 74 77 83 86 89 93 96 99 100 109 113 119 119 123 131 128 121 117 115 115 116 116 115 113 110 107 104 103 103 103 100 99 97 93 88 85 80 83 85 83 79 73
73 75 78 83 88 92 96 99 101 107 112 114 119 122 125 130 131 123 115 114 112 112 112 111 109 107 104 101 99 98 97 97 95 90 87 85 83 81 79 74 73 80 73 64
80 85 89 92 96 100 103 107 109 113 116 123 128 124 125 126 121 115 110 108 108 110 109 107 104 101 99 98 96 92 91 90 88 85 83 80 76 74 72 71 70 69 69 64
89 94 99 100 102 107 110 114 118 122 125 129 123 122 123 118 114 110 108 106 108 109 108 103 98 97 95 93 89 87 87 87 85 80 76 74 73 71 69 67 66 64 63 60
97 100 103 109 112 115 117 120 124 125 127 123 119 117 115 110 107 107 106 107 108 105 102 97 94 91 90 89 86 83 83 81 79 77 72 69 68 67 66 65 63 62 59 54
106 110 112 114 117 118 122 125 128 130 121 119 111 111 108 104 103 102 102 102 99 96 95 91 90 88 87 85 83 81 80 77 75 73 70 68 67 64 63 61 57 54 52 48
111 113 116 120 121 125 125 128 131 125 119 108 105 103 99 98 97 96 95 95 93 88 89 89 88 87 84 84 82 80 78 76 73 70 66 64 62 60 56 53 51 48 46 42
115 120 122 124 126 128 132 131 128 118 108 104 101 98 96 95 93 92 91 90 91 86 83 85 86 84 82 82 81 79 75 71 67 64 61 59 57 55 52 49 47 44 42 39
124 126 125 127 127 128 132 127 116 108 104 100 98 96 94 92 91 90 89 86 86 86 84 84 83 83 82 80 77 73 69 67 63 59 56 54 53 50 48 46 41 38 36 34
128 126 128 129 131 131 122 112 108 103 100 98 97 94 90 89 89 87 85 83 82 84 83 84 83 81 79 75 72 69 65 61 57 53 50 47 45 44 44 42 35 33 31 29
130 131 133 129 129 119 111 105 101 98 97 95 92 89 88 87 85 80 79 86 85 82 81 80 80 77 73 71 68 65 61 56 52 48 43 40 40 40 39 37 33 31 28 25
134 132 127 125 118 109 104 98 96 95 93 89 87 87 85 80 79 82 81 81 82 82 81 79 74 70 67 66 63 59 56 52 48 45 43 40 39 38 34 31 28 29 25 25
129 123 119 113 104 102 98 94 93 90 85 85 85 84 81 78 77 78 81 82 80 78 77 74 69 64 63 60 56 54 53 50 46 42 38 35 34 31 29 25 24 25 22 25
118 113 109 103 99 95 91 90 87 82 80 81 82 79 78 79 80 79 80 80 79 77 72 66 63 61 58 56 54 51 50 47 42 37 34 32 30 27 25 23 23 20 21 21
107 103 99 96 92 89 88 84 79 78 80 78 76 78 78 79 79 79 80 79 76 71 66 63 59 57 54 52 50 47 46 43 39 36 34 31 27 24 24 21 19 20 19 19

GFSNGP_250_spd_003.txt.gz
Wind_Speed
39 38 39 42 43 42 46 47 46 51 52 53 55 57 59 62 63 66 68 72 76 79 82 85 89 92 95 98 101 103 106 109 112 114 117 122 124 127 128 127 127 126 125 127
38 39 41 43 43 43 41 42 44 49 57 55 60 64 66 68 69 71 75 77 80 85 88 90 92 96 100 105 108 112 115 118 120 123 124 124 124 124 125 128 130 132 134 134
42 42 44 48 48 49 51 54 56 58 63 66 66 69 70 73 76 77 79 83 87 91 94 98 102 106 109 112 115 116 117 118 120 121 124 126 130 132 133 134 134 137 140 140
44 44 46 47 46 49 51 54 57 61 64 66 70 73 75 79 82 85 88 90 93 96 99 104 108 112 114 114 116 120 123 126 128 129 130 133 135 137 137 141 142 142 141 138
42 44 47 48 49 52 56 61 60 64 67 71 73 75 76 79 83 86 90 94 98 102 103 103 104 108 112 118 122 126 130 132 135 135 136 138 138 138 139 139 138 139 138 137
46 49 53 54 57 58 58 59 61 65 69 73 75 76 80 83 88 92 94 94 93 97 102 105 109 113 119 124 127 130 134 137 138 139 141 141 143 142 139 136 135 134 135 134
44 48 52 53 56 57 59 62 66 68 71 74 78 81 83 85 84 85 88 93 98 101 105 109 114 119 124 128 132 134 135 135 137 139 140 138 140 139 131 128 127 125 118 115
48 52 53 53 54 59 62 66 69 71 73 72 70 71 74 79 84 90 94 96 99 104 109 114 119 124 127 130 130 128 129 136 136 136 136 137 128 121 117 111 108 103 99 97
59 60 58 58 59 60 62 63 64 64 67 70 71 74 79 82 87 93 98 101 102 109 115 120 126 128 127 122 122 124 131 131 130 126 121 113 109 105 102 102 98 93 92 92
42 46 45 48 49 51 54 58 62 66 69 72 77 81 84 87 92 96 98 104 112 117 121 127 131 128 122 117 115 115 118 117 114 110 106 106 103 101 97 95 93 92 90 89
41 44 46 52 52 54 58 62 65 69 73 79 84 88 95 99 100 103 107 111 119 125 133 135 129 122 116 116 118 116 112 110 109 108 106 102 100 99 98 97 95 90 88 84
46 48 50 55 58 61 62 66 71 75 80 86 90 94 95 99 103 109 115 120 128 134 135 130 126 124 121 116 113 111 108 106 104 102 101 100 98 95 97 96 92 89 84 78
52 55 57 60 65 67 71 76 80 83 88 91 94 97 104 110 113 117 119 126 133 135 128 124 121 119 115 113 110 108 105 102 101 101 100 97 95 92 85 86 89 85 81 76
56 60 64 67 71 76 80 84 86 91 93 95 98 103 109 114 116 122 125 131 134 129 121 117 115 114 110 108 106 103 101 101 99 98 95 91 87 83 80 78 77 82 82 73
62 68 73 78 81 82 84 88 92 93 96 99 104 111 113 121 124 130 134 132 128 122 117 115 113 110 107 104 100 98 98 98 95 91 88 85 81 79 79 78 77 75 75 73
70 74 78 81 84 88 91 94 98 100 106 109 112 120 122 129 130 134 132 125 121 116 113 111 109 106 103 100 97 96 95 92 88 83 79 78 78 78 76 74 72 69 65 62
77 82 85 88 90 94 99 103 107 109 113 116 123 125 129 132 133 132 125 120 116 112 111 109 106 101 98 96 94 91 88 84 80 78 77 75 74 72 70 68 66 62 56 51
87 89 92 93 97 101 105 109 112 114 118 124 125 129 133 132 127 123 118 115 111 110 109 104 98 95 93 91 89 87 83 80 77 75 74 72 71 68 66 64 61 57 52 47
94 98 100 102 104 107 110 111 115 120 124 128 132 133 130 125 120 114 111 111 108 105 103 98 95 92 89 89 86 84 81 78 74 72 70 68 66 64 62 59 56 53 48 45
100 103 107 109 111 113 115 118 123 127 128 131 132 129 122 118 112 109 109 108 105 99 94 92 90 88 86 85 84 81 79 76 73 70 67 63 59 58 57 54 51 47 42 39
106 110 112 114 116 119 120 125 127 131 133 131 129 120 114 111 109 108 105 102 100 94 90 89 86 85 84 83 82 79 75 72 70 66 62 58 55 53 51 49 46 42 36 32
113 115 116 119 121 123 127 129 132 127 128 125 118 113 108 107 107 103 101 95 91 88 87 87 85 83 81 80 79 77 74 70 67 62 58 54 50 49 48 47 43 39 34 30
119 121 122 122 126 128 131 132 130 128 125 117 111 107 104 103 100 97 94 93 88 86 85 85 82 80 79 77 76 74 72 67 63 60 57 52 48 47 46 43 37 33 30 26
123 124 124 128 130 132 132 130 127 119 112 108 105 103 101 96 94 92 88 86 84 83 84 84 82 79 76 75 72 70 66 63 61 58 54 49 44 42 39 36 31 26 25 19
128 131 132 133 131 132 129 125 115 108 105 104 102 99 94 91 87 86 85 83 82 82 82 81 78 75 74 72 69 66 63 61 58 54 50 45 40 36 32 29 23 23 21 15
135 133 131 129 126 124 119 113 107 103 101 100 98 93 91 88 86 84 81 81 81 81 81 79 75 72 72 69 65 63 61 59 55 51 46 41 38 34 26 21 20 19 15 11
126 125 124 121 117 112 108 104 101 99 98 95 91 89 87 85 83 82 81 80 80 79 77 74 72 70 67 64 62 60 57 54 49 46 42 39 35 30 22 19 18 13 10 10

GFSNGP_250_spd_006.txt.gz
Wind_Speed
43 46 47 47 46 47 45 37 40 41 47 43 46 50 54 56 58 61 62 64 66 68 72 76 79 83 88 92 96 99 102 105 108 113 117 120 121 123 126 128 131 134 136 137
39 43 33 33 38 39 38 39 44 44 48 46 49 52 51 54 58 61 65 69 72 75 77 81 86 90 93 95 99 103 107 111 113 113 117 118 122 127 131 134 139 142 143 143
37 40 41 37 38 40 41 42 43 45 47 49 54 56 58 61 64 67 70 72 76 79 84 88 90 93 96 100 105 105 105 107 110 114 120 125 130 135 139 140 144 148 147 145
31 34 35 36 35 37 40 42 47 51 56 58 58 60 63 64 66 69 73 76 81 85 88 90 94 98 100 98 99 104 109 113 118 121 127 132 137 140 146 147 143 141 140 137
29 30 32 35 39 42 45 47 51 54 56 57 58 61 66 69 72 74 78 82 84 88 92 93 93 93 94 100 106 109 113 117 123 127 130 133 138 143 142 141 141 138 132 124
30 33 36 38 41 45 48 50 54 55 58 61 64 66 70 72 75 80 81 85 89 87 86 88 92 97 102 105 107 112 117 120 125 130 131 132 138 144 144 135 127 118 111 109
38 40 40 43 48 50 53 56 58 60 63 65 67 70 72 73 77 82 84 80 82 84 88 91 96 94 100 105 112 118 122 125 127 128 131 137 135 128 124 118 111 104 102 98
44 46 50 53 54 56 57 58 61 62 63 65 67 71 75 76 74 72 75 79 82 88 91 96 100 103 109 117 121 125 127 127 127 130 133 129 122 117 111 104 98 93 89 85
49 51 53 55 58 60 61 61 63 64 66 70 68 63 65 67 69 73 75 81 89 90 97 103 106 113 119 123 127 128 126 125 126 123 120 115 109 103 99 95 91 87 83 78
51 54 56 59 60 60 62 63 62 61 57 59 63 65 67 70 73 76 79 83 95 100 104 110 114 120 123 130 130 126 123 123 122 117 112 107 103 98 94 92 87 82 77 74
56 54 53 53 53 53 51 51 53 56 59 62 66 68 72 75 78 81 90 96 102 106 111 115 121 126 130 127 124 124 123 120 116 111 104 98 96 94 93 90 85 80 78 77
39 40 42 44 45 48 51 53 56 60 63 67 72 78 81 82 86 92 97 103 107 109 115 120 125 129 126 125 125 122 118 115 111 102 96 93 90 88 91 91 89 84 80 76
42 45 46 49 50 52 55 58 61 65 71 77 79 81 85 88 93 97 102 107 110 116 121 123 127 127 126 125 121 116 114 109 101 95 91 89 86 83 81 88 92 87 81 78
45 47 50 52 56 59 60 63 69 73 76 78 82 86 90 94 99 102 108 111 116 120 128 126 127 128 124 120 114 113 108 101 93 91 88 86 85 85 85 84 86 87 84 74
54 55 57 60 63 66 70 72 75 78 82 86 89 93 96 100 105 109 112 116 121 126 128 126 126 124 119 113 111 107 100 94 90 89 87 86 85 85 84 84 83 78 73 69
60 63 65 68 71 73 75 79 83 86 89 92 96 99 103 107 111 116 118 122 124 131 129 125 125 120 114 110 105 99 94 90 87 85 83 83 83 82 81 78 75 71 64 59
67 70 74 78 79 81 84 86 89 93 95 100 103 105 109 114 118 121 122 127 132 131 125 122 120 113 110 104 99 92 89 87 85 83 82 81 80 78 74 70 68 65 59 53
76 80 83 85 87 89 90 93 97 100 104 106 108 111 117 121 124 125 128 135 132 126 122 119 113 109 105 99 94 90 87 84 82 81 80 78 76 71 66 64 61 58 54 49
86 88 89 91 94 95 98 101 104 105 107 110 114 119 125 126 128 132 135 132 127 120 117 113 109 106 101 96 93 89 84 83 83 82 79 75 70 64 60 58 56 54 48 43
92 94 95 98 100 101 103 105 107 109 113 118 121 124 127 131 134 133 126 123 118 113 108 107 105 101 97 95 92 87 83 82 81 79 75 68 63 59 57 55 52 50 47 40
99 101 101 102 104 106 107 109 112 115 121 124 127 129 133 138 129 124 124 119 113 107 105 104 101 96 94 92 89 86 82 81 79 75 69 64 60 56 53 52 48 44 41 35
99 101 103 105 107 109 112 116 119 123 126 129 133 134 132 126 126 122 118 111 105 102 102 100 95 93 92 90 87 84 82 79 75 70 64 60 56 53 50 47 42 38 35 30
103 106 109 110 114 117 119 122 126 128 132 134 135 131 128 125 119 113 109 106 101 100 98 94 92 90 89 87 84 82 79 75 70 64 60 56 53 51 47 42 35 32 29 24
110 113 115 117 120 123 125 127 129 132 132 130 126 124 119 114 112 107 103 100 98 94 91 89 89 88 86 84 81 77 74 69 62 59 56 52 49 46 43 38 30 27 25 17
116 118 119 122 125 128 128 131 132 131 129 127 124 119 113 108 102 101 99 96 91 88 87 87 85 84 82 79 77 73 68 62 56 54 52 48 46 43 37 32 25 22 17 8
122 124 126 128 130 130 132 133 131 126 121 120 116 112 106 100 99 96 90 86 84 84 84 83 82 80 78 75 72 68 61 56 53 49 45 43 42 38 31 23 18 15 9 9
128 129 131 133 132 130 126 124 121 118 115 111 107 101 98 96 92 87 86 84 82 81 81 80 78 76 73 70 66 60 55 51 46 43 41 40 35 27 19 16 11 8 10 11

GFSNGP_250_spd_009.txt.gz
Wind_Speed
56 58 59 61 60 59 59 60 56 56 54 51 48 48 48 48 49 53 57 59 60 60 62 62 65 70 75 78 82 86 90 96 99 104 107 107 109 110 116 119 123 127 132 136
56 56 58 59 59 59 56 55 58 57 49 46 50 48 48 49 50 53 54 56 57 59 64 67 72 76 80 85 88 92 97 101 104 99 101 107 110 114 116 122 126 128 130 136
57 56 57 57 60 62 62 57 50 46 47 48 51 52 52 52 53 55 56 59 63 66 68 71 76 82 85 88 93 98 98 93 97 100 104 109 112 118 122 126 130 131 133 137
54 56 57 47 49 49 45 43 44 47 49 53 51 51 51 54 56 58 62 63 65 69 73 78 82 85 89 93 94 95 94 97 101 104 112 116 121 123 126 129 131 131 133 141
37 41 41 43 43 37 41 39 39 42 46 47 48 52 54 57 58 60 63 67 72 75 79 83 86 90 92 91 89 91 96 106 111 115 117 123 127 127 127 128 130 134 133 124
28 31 33 34 35 35 38 39 44 45 46 48 51 53 57 58 62 66 70 73 77 80 83 85 87 85 87 87 93 98 104 107 113 117 121 127 127 127 130 136 133 120 118 115
28 31 32 30 32 35 35 42 43 45 49 51 53 56 61 65 68 71 74 77 81 82 79 82 82 86 90 95 99 106 112 115 119 123 127 128 127 128 130 124 116 112 109 106
30 31 34 38 40 41 43 46 48 51 53 57 61 64 67 70 72 74 76 78 77 76 77 80 87 93 94 98 105 110 117 120 122 126 127 126 126 126 119 114 109 106 102 97
41 42 42 43 45 46 48 52 56 59 63 65 66 67 70 72 75 73 70 73 74 77 82 88 91 93 96 102 108 114 118 121 125 125 125 126 120 113 112 110 103 98 94 90
48 50 51 51 52 55 57 61 62 64 65 67 69 70 70 63 63 68 72 75 78 83 87 88 94 101 104 109 114 120 124 126 127 123 122 117 112 112 109 103 95 92 88 85
53 54 53 54 54 55 58 60 62 65 67 66 63 59 61 66 69 73 76 79 84 88 89 96 104 109 111 115 121 125 127 126 123 119 115 108 109 108 100 97 92 85 82 81
51 49 50 53 55 58 62 63 61 58 55 56 60 64 67 71 73 76 81 85 88 94 99 105 111 114 117 122 126 127 125 121 119 114 108 105 102 96 99 94 93 89 83 80
41 41 44 48 50 50 49 49 51 54 59 62 66 69 72 75 78 81 85 89 95 100 105 111 114 118 122 127 129 126 123 120 115 109 104 102 96 92 88 90 93 95 89 84
39 40 43 44 45 47 50 53 56 59 63 67 71 74 76 79 82 88 92 98 105 109 113 115 119 125 130 131 130 125 122 116 106 104 102 96 92 90 87 86 87 91 91 82
43 45 48 50 53 56 57 59 63 67 72 75 78 81 85 88 91 95 99 105 108 113 115 119 124 129 131 128 123 121 117 110 105 102 98 93 90 87 86 86 85 83 81 76
49 50 55 59 60 62 65 68 72 76 79 82 85 89 92 93 97 101 103 107 112 116 120 125 130 129 128 123 122 120 112 106 101 97 91 88 86 85 84 83 82 77 72 64
56 59 62 64 66 68 71 75 78 81 85 88 92 94 96 99 103 106 110 114 118 121 125 130 130 129 126 123 118 113 106 101 97 91 87 85 84 82 82 79 77 72 65 58
66 68 70 71 73 76 79 82 85 88 91 95 98 101 104 104 109 112 116 120 124 127 131 131 131 127 122 117 112 105 101 96 90 86 85 84 82 81 77 73 70 64 59 56
73 75 77 79 82 84 87 91 94 98 101 103 104 105 108 110 113 116 120 126 128 131 133 134 130 122 118 113 105 102 96 89 85 85 84 82 79 77 73 69 63 56 54 51
79 83 85 88 91 93 96 98 101 102 103 105 107 110 113 116 119 123 126 130 134 133 134 128 119 116 112 105 101 96 89 85 84 83 82 78 75 73 69 64 57 53 48 43
90 92 93 95 97 98 98 101 104 106 108 110 113 116 119 122 125 128 131 134 136 131 124 118 113 108 102 100 95 89 85 84 82 80 78 74 72 70 65 59 54 46 40 36
95 96 98 98 100 103 105 108 109 112 115 117 120 123 125 128 130 133 136 133 129 122 116 111 105 100 97 93 89 87 85 83 81 78 74 71 67 64 58 55 46 38 33 31
100 100 101 103 105 107 110 113 116 119 122 124 128 130 131 132 135 135 129 125 116 112 107 101 98 95 90 87 87 84 82 81 78 73 70 66 61 56 54 48 38 32 27 25
104 105 107 109 111 115 118 120 123 127 129 132 133 132 132 132 128 123 119 114 109 101 98 94 90 87 86 85 83 80 79 76 72 68 65 60 53 50 47 40 30 25 22 17
110 112 115 118 120 123 126 129 130 132 132 131 129 127 124 120 117 114 110 103 98 94 90 86 85 85 84 80 78 76 73 69 65 61 58 53 48 45 39 31 25 21 18 13
118 120 123 125 127 129 131 131 131 129 127 124 120 116 114 111 108 103 98 93 88 85 84 83 84 81 79 76 74 70 67 63 59 55 51 45 42 38 33 25 23 18 14 13
124 126 128 129 129 129 127 125 120 116 113 112 110 107 105 102 99 93 90 86 83 83 82 81 78 76 74 70 67 64 60 56 52 49 45 41 36 32 26 23 18 13 13 11

GFSNGP_250_spd_012.txt.gz
Wind_Speed
68 69 69 68 67 66 64 65 61 64 60 58 57 59 63 60 63 64 61 59 56 55 59 59 59 59 61 65 69 72 76 80 84 89 93 97 99 98 97 101 106 113 115 118
62 65 65 67 65 63 64 64 62 63 61 58 57 60 61 64 63 62 57 57 60 60 59 59 60 63 67 70 73 77 82 87 90 93 96 94 96 99 102 106 111 115 120 123
51 54 55 54 56 56 59 59 59 58 59 58 59 61 64 65 63 61 63 65 65 60 59 60 64 67 72 75 80 85 88 91 93 92 93 98 99 101 105 110 115 122 126 127
44 43 42 48 50 51 51 53 53 57 60 61 61 63 66 66 64 66 63 60 59 60 63 65 68 73 77 82 86 89 92 92 91 91 95 97 103 108 112 116 122 127 129 133
42 47 49 50 51 53 55 56 58 60 61 64 64 65 62 63 64 64 64 63 62 63 65 69 74 79 83 87 90 92 89 89 90 92 98 105 113 118 121 126 131 131 129 135
48 51 53 55 55 56 59 61 66 67 66 60 59 60 56 52 49 52 55 58 61 66 71 75 80 84 87 89 90 88 89 92 97 100 105 114 118 121 127 132 130 127 129 131
30 32 38 42 45 45 48 50 52 54 52 53 53 52 51 51 51 55 59 63 68 72 76 80 84 86 87 86 87 90 94 99 103 110 113 118 126 129 131 128 128 128 125 121
29 30 32 34 34 36 40 41 44 45 45 45 46 48 50 53 57 62 66 70 74 77 80 82 83 82 84 87 90 95 100 105 109 114 121 121 126 129 131 127 126 123 116 110
37 35 35 37 37 42 43 42 43 45 48 49 50 54 57 61 64 68 72 75 77 77 79 77 80 83 87 91 96 101 106 109 113 118 123 126 129 130 127 127 122 114 107 103
37 39 40 39 40 41 44 47 49 50 50 52 56 61 64 68 71 73 73 72 72 73 76 80 83 87 92 98 103 105 108 110 118 122 126 128 130 128 126 122 115 107 100 98
48 47 46 48 48 50 52 53 55 56 58 60 63 66 68 68 70 68 67 70 74 78 80 85 90 93 97 101 103 106 110 117 121 126 126 129 129 125 121 117 109 102 95 92
48 51 52 53 53 55 56 57 58 60 63 64 64 64 67 63 63 67 72 76 77 81 87 92 96 99 102 105 109 113 115 120 125 127 130 130 122 116 116 109 106 102 97 92
52 56 54 53 53 53 53 55 58 60 61 62 60 58 61 65 69 73 76 81 86 90 93 97 101 104 106 111 113 116 121 124 127 130 131 123 116 110 101 102 101 97 96 92
47 48 50 50 50 51 51 49 48 49 52 55 60 65 68 71 75 79 84 88 92 95 98 102 107 110 113 114 117 123 126 129 131 129 120 113 108 102 99 93 87 89 93 90
37 39 42 45 47 47 47 48 51 55 59 63 66 70 73 77 81 85 89 93 97 100 104 109 113 113 116 120 125 128 131 131 126 120 114 107 101 96 92 87 86 86 85 84
34 37 41 46 49 51 53 56 58 61 64 68 71 74 77 82 87 91 96 100 105 107 108 111 114 117 122 126 131 133 132 124 120 113 108 99 95 90 85 84 84 84 82 79
43 46 49 51 53 55 56 60 64 68 71 75 78 82 86 91 95 100 103 107 108 111 113 116 120 125 128 132 132 129 122 118 110 104 97 94 88 83 81 79 79 80 79 75
49 52 55 57 58 62 65 67 71 75 79 84 88 91 95 99 104 106 108 111 112 115 119 122 126 129 133 130 126 121 115 108 101 96 92 86 83 80 77 75 75 75 74 70
58 61 62 64 66 68 72 75 79 83 87 92 96 100 103 105 107 109 112 115 118 121 127 130 133 134 130 126 122 116 108 100 96 91 84 81 78 75 73 72 72 71 68 63
65 66 68 71 74 78 82 85 89 92 96 99 102 104 107 110 112 114 117 122 126 129 132 135 134 129 124 119 113 105 97 92 88 83 80 77 73 70 70 70 68 66 62 55
75 77 79 82 85 88 91 93 96 99 101 104 108 111 113 115 118 121 126 130 134 134 135 131 124 117 114 107 101 94 90 85 81 80 76 73 70 69 68 67 64 61 54 48
83 85 88 91 94 97 98 100 102 105 107 110 113 115 119 123 127 130 133 133 133 129 125 119 114 111 103 96 90 87 83 81 79 76 73 69 67 66 64 62 59 53 45 42
91 93 96 98 101 103 105 105 106 108 113 117 120 123 127 130 133 135 133 126 120 116 113 108 103 97 90 87 84 82 80 78 75 72 69 67 65 62 59 57 51 44 39 36
98 100 102 103 104 105 106 109 113 117 121 123 127 131 133 135 130 120 115 111 109 105 101 96 90 87 85 82 80 77 75 73 70 68 66 64 61 56 54 49 43 39 34 29
103 104 105 105 107 111 113 117 121 124 127 131 134 134 128 120 114 110 105 103 100 96 93 88 85 83 81 78 76 73 70 68 66 65 63 60 54 51 47 41 38 33 27 21
108 108 111 113 116 118 121 125 128 130 132 131 126 119 111 107 103 99 98 96 93 90 87 84 81 79 76 74 71 68 66 65 63 61 56 52 48 45 39 35 30 24 18 13
115 117 119 121 123 126 127 127 126 124 120 116 110 104 101 98 97 95 93 91 88 85 82 79 77 74 71 68 65 63 63 61 58 54 50 47 42 37 33 28 22 16 12 5

GFSNGP_250_spd_015.txt.gz
Wind_Speed
79 78 75 75 74 71 67 68 64 70 66 66 63 62 64 63 61 60 60 61 62 64 68 70 72 72 72 71 72 67 67 68 72 75 80 85 89 94 97 98 100 101 101 103
80 81 79 78 75 71 69 68 68 71 70 67 64 65 65 62 62 61 61 64 65 66 69 72 74 74 72 71 71 68 70 74 78 82 87 91 94 97 99 100 101 101 103 107
68 75 77 75 76 75 74 71 70 68 71 65 65 64 64 62 62 63 65 65 67 70 72 74 77 73 69 64 69 72 76 78 84 88 92 95 97 96 97 98 98 103 110 116
52 56 61 69 70 70 68 69 68 68 67 64 62 62 62 63 63 62 64 67 69 71 74 73 73 70 72 70 70 76 81 85 89 93 95 96 93 96 95 99 107 111 117 120
41 46 51 55 60 63 64 64 64 63 61 60 59 59 60 59 60 64 66 68 71 74 72 69 63 62 66 73 78 82 87 91 93 94 91 92 95 97 103 109 115 121 122 125
31 34 39 44 47 50 52 52 53 54 56 57 57 57 59 61 63 65 69 71 69 65 60 63 65 68 74 79 85 89 91 93 90 87 92 95 100 104 111 117 118 122 122 129
33 36 39 40 40 40 43 49 49 51 52 54 55 59 61 65 66 64 65 62 61 63 62 64 69 75 80 85 89 91 88 85 89 92 96 101 107 112 117 118 119 126 128 132
38 37 38 42 43 43 43 46 49 52 51 52 55 55 57 58 59 60 59 56 59 62 66 71 76 81 86 88 86 82 85 89 94 99 103 108 113 117 119 123 128 132 133 133
25 25 28 29 30 34 34 37 40 42 46 48 48 49 52 53 53 54 57 59 63 68 73 78 80 84 85 80 82 86 91 96 101 106 110 114 118 121 125 131 134 132 131 130
33 34 34 35 37 37 38 41 42 43 45 49 51 52 53 55 58 59 62 66 70 74 77 79 80 76 80 84 88 93 99 103 107 111 114 119 123 127 132 135 132 131 127 124
41 41 41 42 43 43 44 46 48 51 54 55 55 56 56 59 61 64 67 71 74 75 75 73 77 81 85 90 95 100 104 108 112 115 119 122 128 133 134 132 128 125 120 112
41 41 43 43 44 46 48 50 50 52 53 55 57 58 60 62 65 67 69 69 67 69 74 79 83 87 92 96 99 103 109 114 116 118 122 128 132 132 131 128 124 119 113 105
46 50 50 49 48 51 55 58 58 59 58 58 55 57 60 61 61 59 62 67 71 75 81 85 88 92 96 100 106 112 114 115 119 123 128 133 131 123 118 118 113 109 105 101
44 48 50 51 53 55 55 58 59 58 56 55 56 57 56 57 60 64 68 72 77 81 85 90 94 98 103 108 113 116 119 121 124 130 133 129 122 115 111 105 101 99 98 94
45 46 48 48 48 47 44 43 45 46 49 51 53 56 59 62 66 70 75 80 84 87 92 97 102 107 111 114 117 119 123 127 130 132 129 121 115 108 103 99 95 90 88 89
35 34 36 37 37 37 38 39 41 44 49 53 57 61 64 67 73 78 83 87 91 95 99 105 110 113 115 117 120 125 128 130 129 124 115 112 106 101 97 93 88 86 86 81
29 30 33 36 38 40 42 44 47 50 53 57 61 67 72 76 81 85 90 95 98 103 108 111 114 117 118 122 125 128 129 125 120 113 106 102 98 94 92 87 84 83 80 77
35 37 38 40 42 44 47 50 54 58 62 67 70 74 78 83 88 94 98 102 106 109 112 115 117 121 124 125 127 125 118 112 108 104 100 97 92 89 85 81 78 75 73 71
42 43 45 47 49 52 56 59 62 66 70 73 77 82 87 92 97 101 105 108 109 112 116 120 124 124 124 125 120 114 111 106 101 98 94 90 87 83 79 75 72 69 67 63
48 50 52 55 58 61 65 68 71 75 79 83 87 91 96 100 104 107 109 111 112 118 123 125 126 125 124 117 112 108 103 100 95 91 88 83 80 76 72 69 66 64 60 55
59 61 63 65 68 71 75 78 80 83 87 91 95 99 102 106 108 110 113 118 122 125 127 124 122 117 113 108 103 101 96 92 88 84 80 78 73 70 67 65 62 58 53 48
68 69 71 74 77 80 83 85 88 91 95 98 102 105 107 109 113 117 121 125 127 127 124 122 116 111 104 101 97 93 89 84 80 77 75 70 67 64 62 59 56 50 45 40
76 78 80 83 86 88 90 92 95 98 101 103 106 109 113 117 121 125 129 128 124 120 114 111 106 100 96 93 89 86 82 78 76 73 68 65 61 58 56 53 48 41 36 31
85 87 89 91 93 95 96 97 99 103 106 110 113 116 119 124 127 126 124 120 115 110 107 102 97 92 88 85 83 79 76 73 69 66 63 59 55 53 51 45 39 33 27 23
90 92 94 95 96 99 103 106 108 111 114 117 120 122 125 124 123 118 113 110 105 100 96 92 89 85 82 80 78 75 70 66 64 61 57 53 51 48 42 36 30 24 20 15
97 99 100 102 105 107 109 112 116 118 120 121 120 119 117 113 112 112 108 100 96 93 89 88 84 81 78 76 72 68 65 61 59 55 51 49 44 40 33 27 22 17 13 7
103 105 107 111 113 115 118 119 120 118 115 113 111 109 110 109 105 98 94 91 89 87 84 81 79 76 72 68 65 62 59 56 52 51 47 42 36 30 25 20 15 11 6 1

GFSNGP_250_spd_018.txt.gz
Wind_Speed
71 71 71 70 65 64 61 67 61 67 62 64 60 62 62 62 63 63 64 65 64 65 67 68 66 67 68 72 73 72 73 76 79 79 76 78 81 84 86 89 95 98 99 98
71 70 69 68 66 63 63 65 64 68 69 72 66 66 65 65 67 68 68 69 69 70 70 70 69 70 73 74 73 74 76 78 78 77 80 81 83 88 91 96 98 96 93 96
72 71 68 65 67 69 68 67 69 67 75 68 68 68 69 69 69 70 71 72 72 71 72 72 72 73 73 74 75 76 77 74 73 75 79 85 88 91 95 94 89 92 96 101
72 71 68 71 70 69 69 70 70 74 75 72 70 70 70 71 71 72 72 72 73 72 71 71 72 71 73 73 76 75 70 72 77 81 85 88 92 93 89 89 92 98 101 107
67 73 75 76 76 75 74 74 74 75 75 75 74 74 73 73 72 73 74 74 73 70 69 69 70 71 73 75 72 71 74 76 80 85 89 91 92 87 90 94 100 105 111 118
49 56 65 71 71 72 73 75 75 76 76 75 76 74 72 70 71 69 67 64 63 64 67 68 69 71 71 71 71 72 78 82 85 88 91 88 89 93 98 101 106 113 121 125
34 38 43 46 51 54 57 61 61 63 62 62 63 63 61 59 58 58 59 62 64 64 63 65 67 69 68 70 74 78 82 85 89 89 87 91 96 98 104 110 116 121 125 130
26 29 31 33 34 34 36 37 40 42 43 47 49 51 53 55 58 59 58 57 58 60 65 66 64 66 71 76 80 82 85 87 84 88 91 95 101 107 113 117 122 126 130 135
32 33 33 35 36 37 39 41 42 44 47 49 51 53 54 53 53 54 58 59 59 60 60 64 70 73 77 79 81 83 82 84 88 92 96 103 109 115 120 125 128 131 134 138
31 31 33 37 39 40 40 42 43 43 43 44 44 46 49 51 55 55 56 58 61 65 69 70 73 75 77 78 77 79 84 88 93 99 105 111 117 122 126 130 133 137 138 137
26 27 27 28 30 33 34 36 38 40 41 43 46 49 51 53 56 59 61 61 63 66 67 69 71 71 71 75 79 85 90 96 101 107 113 118 124 127 130 136 138 137 133 126
32 34 37 37 36 37 41 44 45 46 47 50 53 55 57 57 57 58 60 61 62 65 66 63 67 71 75 81 86 92 97 103 110 114 119 122 124 129 135 135 134 130 122 113
38 39 39 40 43 46 49 49 50 51 52 54 56 59 58 58 59 59 60 62 64 62 64 68 72 77 83 88 94 99 105 111 115 118 121 124 128 128 126 127 122 115 109 106
47 46 48 50 48 49 50 52 54 57 58 59 59 60 62 59 57 57 59 59 61 65 70 75 80 85 91 96 101 107 112 116 117 121 126 127 125 124 120 113 107 107 107 101
44 46 51 55 56 53 51 53 55 55 54 53 49 46 46 48 50 53 57 61 66 71 77 82 87 93 97 103 109 113 116 118 122 126 126 124 120 115 108 105 104 100 96 93
43 45 46 48 49 48 48 46 43 41 40 39 40 43 47 51 55 59 64 68 74 79 85 90 95 100 105 110 114 116 120 124 124 123 119 115 110 106 104 100 97 93 88 85
31 32 33 34 35 35 36 35 35 37 40 43 47 50 54 58 63 67 72 77 81 87 92 97 102 107 110 113 117 121 123 123 121 114 112 106 104 100 95 92 87 85 82 78
24 26 28 29 30 31 33 37 40 44 47 50 54 57 61 66 71 76 80 85 90 94 99 104 107 111 114 119 122 123 121 114 109 107 103 101 95 92 88 82 80 78 75 70
28 28 30 32 34 38 41 44 47 50 54 58 62 66 70 75 80 84 88 92 97 102 105 108 112 116 120 123 120 114 109 108 103 100 96 92 89 85 80 77 75 71 66 63
34 35 37 39 43 46 49 52 56 60 63 67 71 74 79 83 88 92 96 99 103 106 110 114 118 123 123 116 110 109 105 100 97 94 89 86 82 79 76 72 68 63 60 55
43 45 47 49 52 55 58 62 65 69 72 76 79 83 87 91 95 98 101 104 109 113 116 121 124 119 112 109 108 103 99 95 91 87 84 80 78 74 70 65 60 57 52 48
53 55 56 57 60 63 66 70 73 76 80 83 87 91 93 96 100 104 108 112 115 120 123 123 116 110 108 106 98 96 94 89 84 82 79 75 71 68 63 59 55 49 46 42
60 62 63 66 69 72 74 78 81 84 87 89 92 96 99 104 107 111 115 119 122 124 119 113 110 106 102 95 94 91 86 81 78 76 73 69 65 61 57 52 46 42 40 34
68 71 73 75 77 80 82 84 86 89 92 95 99 103 107 111 114 118 122 124 121 114 112 109 104 99 92 91 88 82 78 75 74 71 68 62 57 54 49 43 40 37 32 25
77 79 81 82 84 86 88 90 93 97 99 102 106 110 114 118 121 122 120 116 112 107 104 100 94 89 88 84 79 74 72 70 68 66 61 56 51 46 40 37 34 30 23 17
82 83 86 88 90 92 95 97 100 103 107 110 114 118 120 119 116 113 111 106 104 100 96 90 87 85 81 77 73 70 68 65 63 59 53 49 44 39 34 32 28 22 15 8
88 90 93 95 97 99 102 105 107 110 113 117 116 113 112 110 109 106 103 99 95 90 86 84 82 78 72 69 66 64 61 59 55 52 47 41 36 32 29 25 19 14 8 6

GFSNGP_250_spd_021.txt.gz
Wind_Speed
70 70 73 74 72 66 62 65 59 60 56 56 50 49 52 53 55 56 58 60 61 63 66 67 68 71 73 75 78 79 79 81 80 79 79 79 80 83 83 82 84 88 91 94
70 68 67 66 64 58 59 59 60 62 61 63 61 61 58 60 61 64 65 65 67 68 70 72 73 76 78 80 80 80 82 82 79 79 79 81 82 84 83 85 88 91 95 96
70 66 64 63 62 62 64 62 63 63 69 64 62 62 63 65 66 67 68 69 70 72 73 76 78 79 82 82 82 83 80 78 77 79 81 82 82 84 85 89 94 95 95 95
68 68 65 65 67 65 63 64 63 64 68 64 65 64 66 68 68 69 70 72 74 76 77 79 82 83 82 82 80 76 76 77 79 80 81 82 83 87 90 93 93 93 96 101
68 67 67 68 66 65 65 66 65 67 66 68 67 67 67 71 72 73 75 76 77 80 82 82 81 81 78 75 75 76 76 77 79 79 80 84 89 91 91 91 92 98 102 106
67 68 69 67 66 66 66 68 68 68 69 70 70 70 72 73 74 76 78 80 79 78 77 78 75 72 72 74 74 74 75 76 76 79 85 89 90 89 89 94 98 103 108 115
60 64 67 67 68 68 69 70 69 70 71 72 72 73 76 76 78 77 74 74 72 70 68 67 70 70 70 72 71 71 72 77 83 86 87 86 85 90 95 99 104 110 117 123
41 47 55 61 64 65 66 67 68 69 71 71 70 69 70 69 70 65 60 61 63 65 66 67 66 69 67 68 71 75 79 82 83 83 82 85 91 97 102 106 112 119 125 129
32 36 38 40 44 48 53 55 58 60 60 59 60 58 57 56 56 57 60 62 62 62 63 63 64 65 69 73 76 77 78 80 78 82 87 93 98 103 109 116 121 127 129 133
29 30 32 33 35 37 40 43 43 45 47 48 50 51 52 54 56 55 54 55 57 58 60 63 68 72 72 73 75 76 76 78 82 89 95 100 105 112 118 123 127 130 135 138
30 31 33 35 35 36 38 41 43 45 45 46 47 47 46 46 48 51 53 56 59 61 65 69 70 72 71 72 73 74 78 83 90 95 101 107 114 119 124 128 132 136 137 131
24 26 28 28 28 29 31 32 33 36 38 41 43 46 49 51 54 56 58 62 64 66 68 71 72 69 67 69 73 79 84 90 97 102 109 114 118 122 127 133 135 133 125 116
28 28 29 30 31 34 37 39 40 42 44 46 48 52 55 59 61 60 60 63 65 68 66 59 60 64 68 74 80 86 92 98 103 109 115 119 122 127 131 131 126 120 113 108
33 32 33 36 38 41 43 45 46 48 51 53 55 56 56 58 61 63 62 59 54 53 55 59 65 70 75 81 87 93 99 104 109 114 118 123 128 130 124 117 112 107 106 103
41 41 43 46 49 51 52 53 55 56 56 56 56 59 57 56 55 50 48 49 52 56 62 67 72 78 83 89 95 100 105 109 114 119 124 127 123 115 113 109 103 101 98 96
46 49 50 50 51 50 52 53 53 52 51 48 48 49 47 45 45 47 50 54 59 64 69 74 79 85 91 96 101 106 110 114 120 124 122 114 110 109 106 101 100 97 92 87
47 45 44 43 44 44 46 46 43 40 38 39 40 41 42 45 49 53 57 62 67 72 78 82 88 93 98 102 106 111 115 120 122 118 113 110 106 102 99 98 94 90 86 79
41 40 37 37 36 36 35 35 34 34 35 38 41 45 49 52 56 60 65 70 75 80 85 90 95 99 103 107 112 117 119 119 115 111 106 102 99 98 97 91 86 82 78 74
31 28 28 26 28 29 32 34 36 37 40 44 48 52 55 60 64 68 73 78 82 87 92 96 100 104 109 113 117 120 117 111 108 103 99 96 97 94 89 83 79 75 72 68
28 29 30 31 32 34 36 38 40 44 48 52 56 60 63 67 72 76 80 85 90 94 97 101 106 111 114 118 119 114 110 106 101 96 94 94 92 88 81 76 72 69 67 62
33 34 35 37 39 41 43 46 50 54 57 60 63 67 70 75 79 84 88 92 96 100 104 109 113 115 119 116 112 109 103 97 94 91 91 88 85 78 73 70 67 65 60 55
40 41 43 45 47 48 52 55 59 62 64 67 71 75 79 83 88 91 95 98 103 107 111 115 118 117 113 110 104 99 94 91 90 89 86 81 75 70 66 64 62 58 53 47
49 50 51 52 55 58 61 63 66 69 72 75 78 83 87 90 93 97 102 106 109 114 117 117 113 110 106 100 94 92 90 87 86 83 77 72 67 64 62 60 55 50 45 39
57 58 59 61 63 65 68 71 74 76 78 82 87 89 91 95 100 105 108 112 115 115 114 111 107 102 96 93 91 87 85 82 78 74 70 65 61 59 57 53 48 43 37 30
65 66 67 69 71 73 75 78 80 83 86 88 91 95 99 103 107 111 113 113 112 111 108 105 97 93 91 87 84 83 79 75 70 67 63 59 57 54 50 45 40 34 28 23
72 73 75 77 78 80 82 83 86 88 91 95 98 103 106 110 112 111 110 109 108 105 101 96 92 89 85 82 80 76 72 68 65 61 57 54 51 47 43 37 31 25 21 18
79 81 82 83 84 85 87 89 92 96 99 102 106 109 112 111 108 106 105 103 102 98 93 91 86 81 79 77 74 69 65 62 58 55 52 48 44 39 33 28 22 18 16 12

GFSNGP_250_spd_024.txt.gz
Wind_Speed
75 69 71 72 69 66 64 65 60 58 57 57 57 54 53 51 49 47 48 50 53 55 56 57 60 64 67 71 73 74 77 80 83 86 88 89 89 88 87 86 88 89 91 92
70 72 69 66 63 62 62 61 60 55 53 53 55 56 57 49 50 52 54 56 57 59 61 65 67 70 74 75 75 79 82 85 89 90 89 89 88 86 87 88 89 91 91 93
71 71 70 66 64 64 64 60 60 56 58 50 52 54 54 54 55 56 56 58 60 63 66 70 73 75 76 79 81 83 86 90 90 90 89 85 86 86 87 88 89 91 96 99
66 66 59 57 57 58 57 55 54 55 55 49 51 53 56 53 56 59 61 64 67 69 71 73 75 78 81 82 84 88 90 90 89 85 84 85 86 85 85 89 92 97 97 96
56 56 55 57 57 56 56 56 55 55 55 49 55 57 55 57 60 62 64 67 69 70 73 76 80 81 83 87 89 90 87 82 81 82 83 83 83 86 90 93 95 95 95 99
55 59 58 54 55 56 56 56 57 57 56 56 56 55 60 60 61 64 66 69 72 76 79 81 82 84 88 89 86 79 79 79 80 81 81 84 87 90 92 93 93 96 100 106
53 57 59 59 57 58 59 60 59 59 58 60 60 62 63 65 67 69 72 75 77 79 81 84 85 85 79 74 75 76 77 77 78 80 84 87 89 90 91 92 97 103 108 113
48 54 58 59 61 61 61 60 61 62 62 63 65 66 67 69 71 73 75 77 79 82 83 79 74 71 72 74 74 75 75 76 80 84 87 87 88 89 93 98 104 110 115 120
40 45 49 55 58 60 62 63 64 65 66 66 67 69 71 73 75 75 78 79 74 71 67 66 68 69 69 69 72 74 77 81 84 83 81 82 87 93 99 106 112 118 122 125
36 37 41 46 51 55 57 59 60 62 64 65 67 69 70 71 69 66 61 59 61 63 64 63 65 68 70 71 74 77 80 80 77 78 83 88 95 101 107 113 118 123 127 132
31 33 35 37 40 43 46 49 50 51 52 53 54 52 52 52 53 55 55 55 55 58 62 64 66 69 70 73 76 73 69 73 78 83 89 96 102 109 115 120 124 129 133 133
28 29 30 31 32 34 36 37 37 38 40 42 45 48 50 50 49 50 52 55 59 62 65 67 68 70 73 66 64 68 72 78 84 90 96 102 108 114 120 126 131 135 133 125
27 29 30 29 30 30 30 31 32 33 35 37 40 43 46 49 52 54 57 60 63 65 64 69 66 62 59 64 69 74 79 85 91 97 103 109 113 118 123 129 132 127 120 114
27 27 27 27 29 28 29 31 34 36 40 44 47 50 53 56 58 60 59 59 64 65 60 57 55 60 64 69 74 80 86 92 98 104 109 113 119 125 127 124 116 113 109 103
27 27 27 28 31 32 34 37 41 44 46 48 52 55 58 61 61 61 61 58 54 51 51 56 60 65 70 76 81 87 93 99 104 109 114 120 124 124 118 115 108 102 98 96
34 35 36 38 40 42 44 46 48 51 53 54 54 55 55 52 50 48 46 45 48 52 57 61 66 71 77 82 88 94 100 104 109 115 120 122 119 114 110 104 99 96 94 88
41 42 44 45 46 48 49 50 50 50 48 47 47 43 41 39 39 41 44 49 54 58 63 67 73 78 83 89 95 99 105 111 116 119 119 116 112 106 101 98 94 92 88 81
49 50 52 52 50 48 47 47 45 45 45 42 39 37 38 41 44 47 51 55 60 64 69 74 79 85 90 95 100 105 112 116 118 116 112 109 103 99 95 92 90 84 80 76
51 51 48 46 46 45 44 42 42 39 35 35 38 41 43 46 49 53 58 62 67 71 76 81 86 92 96 101 107 113 116 116 111 110 104 100 98 94 91 88 82 77 74 70
47 45 43 39 40 40 38 36 35 36 38 41 43 46 49 53 57 61 65 70 74 79 84 89 93 98 102 108 113 117 114 110 107 101 98 95 92 90 86 80 75 73 69 64
36 36 35 34 34 35 36 37 39 41 44 47 50 53 57 60 64 69 73 79 83 86 91 95 99 104 109 114 116 112 108 104 99 96 94 90 88 84 78 74 71 67 63 57
34 35 37 38 39 39 40 42 45 48 51 54 57 60 64 68 72 77 81 86 89 93 97 101 106 111 114 114 109 104 101 96 95 92 88 86 81 75 71 68 65 61 55 49
40 40 41 42 43 45 47 50 52 56 59 61 64 68 71 76 80 84 88 91 95 99 104 109 112 113 111 106 103 99 95 93 90 86 84 78 72 68 66 63 59 53 47 41
47 48 49 50 51 53 55 58 60 63 66 69 72 75 79 83 87 90 93 97 102 106 110 113 112 107 103 101 97 94 91 88 85 82 76 70 65 62 60 57 50 44 38 34
55 56 57 57 59 62 63 66 68 71 73 76 79 82 86 89 93 96 100 104 108 112 113 110 105 102 98 94 91 88 84 81 78 72 67 63 60 57 54 47 41 36 31 26
62 63 64 66 67 69 71 74 76 78 80 83 86 89 93 96 99 104 106 110 111 111 107 101 99 95 92 89 86 82 79 74 69 64 60 57 55 51 44 38 33 28 24 20
70 71 72 73 75 77 79 81 83 85 88 91 94 97 100 103 107 109 110 110 107 103 100 97 92 89 86 83 80 76 71 65 61 58 55 53 49 41 35 31 26 21 18 13

GFSNGP_250_spd_027.txt.gz
Wind_Speed
43 52 57 51 58 69 68 72 72 69 67 64 62 60 58 56 56 54 54 54 54 53 52 52 53 56 59 60 63 66 71 75 79 82 85 87 91 93 98 99 98 95 94 94
53 52 53 59 67 70 71 72 71 70 65 60 57 56 55 54 54 53 54 56 56 56 56 56 58 60 62 65 68 72 76 80 83 85 89 92 95 98 99 95 93 94 95 94
53 57 60 62 67 67 68 65 60 60 60 56 53 51 50 51 51 54 56 57 58 58 59 61 62 64 66 69 74 77 80 82 86 90 93 96 99 97 91 91 92 92 94 96
51 50 50 56 57 59 59 58 57 59 55 50 50 50 48 50 50 52 55 57 58 60 62 64 65 67 70 74 77 79 82 87 90 94 97 97 91 89 90 90 90 93 96 99
44 44 45 54 57 57 54 51 52 52 48 49 50 50 47 47 49 52 56 59 61 63 64 65 68 71 74 76 79 84 88 91 94 95 91 86 87 88 89 90 93 96 98 95
39 41 45 54 54 51 48 48 48 47 49 51 49 49 48 49 51 51 55 58 60 62 64 66 71 74 76 81 84 88 90 92 87 82 83 85 86 87 89 92 94 94 94 99
35 39 46 51 51 49 47 47 47 47 48 48 49 50 51 52 52 54 56 59 61 65 68 71 74 78 82 85 88 88 83 79 80 81 82 83 85 89 90 89 88 95 100 108
32 42 46 49 48 48 48 50 49 48 48 49 50 50 52 54 56 58 61 64 67 70 72 76 79 82 84 84 80 77 77 77 79 80 81 84 87 85 84 89 94 101 107 114
32 40 48 51 51 50 49 49 50 50 51 53 54 54 56 59 61 64 66 69 72 74 76 78 80 79 76 73 73 73 74 77 77 81 84 82 79 85 90 96 101 107 112 117
29 33 42 47 50 52 53 53 54 54 56 57 58 60 62 64 66 68 71 72 73 74 75 73 71 69 69 69 70 73 75 77 80 79 76 79 85 90 97 103 108 113 119 125
28 31 35 41 47 51 53 56 57 58 58 60 62 63 64 65 66 66 66 65 64 62 62 62 64 65 67 70 72 73 75 75 72 73 79 85 92 98 104 110 114 120 127 128
23 26 28 31 35 39 42 44 45 47 50 52 53 54 54 53 53 54 55 56 56 58 61 64 65 68 69 70 72 71 69 68 73 78 84 91 97 103 110 116 123 130 129 125
20 21 23 25 26 28 29 30 33 36 39 41 43 44 45 46 45 46 50 55 58 61 65 65 65 66 69 68 65 63 67 73 78 84 90 97 101 106 111 121 129 129 123 117
25 26 27 28 28 30 31 31 31 32 34 36 37 39 40 43 47 51 56 59 61 62 64 66 65 62 59 58 62 67 72 78 84 90 96 101 107 113 119 124 121 117 114 107
29 31 33 33 32 29 28 31 33 34 34 36 38 41 44 48 52 56 60 62 58 57 56 53 52 53 57 62 67 73 78 85 90 96 101 107 113 119 122 118 113 108 103 99
25 24 25 26 29 31 32 32 33 36 38 41 45 48 52 55 57 58 55 49 47 45 45 49 53 57 62 68 73 79 85 90 96 101 107 113 118 119 114 111 106 102 96 90
31 31 32 34 36 36 37 39 41 44 46 50 52 53 53 52 50 46 42 42 43 46 50 54 59 64 69 74 80 86 92 97 102 107 113 117 116 111 108 104 99 95 91 84
36 37 39 40 42 43 45 47 48 51 52 51 51 50 49 47 44 40 41 44 48 52 56 61 66 70 75 81 87 92 98 102 108 114 117 114 109 106 102 97 93 89 84 78
43 44 46 47 49 50 51 52 52 52 51 48 49 49 46 40 40 43 46 49 54 59 63 68 72 77 82 88 93 98 104 109 115 117 111 106 104 99 96 90 88 83 76 70
51 51 51 53 54 52 52 52 50 49 48 48 45 40 40 42 45 48 51 56 61 65 70 74 79 84 90 94 99 104 110 115 115 107 104 100 96 94 89 85 80 74 68 63
53 52 52 53 52 51 49 44 43 42 40 39 40 42 45 48 51 55 59 63 67 72 76 82 87 91 95 101 106 111 115 111 105 101 97 93 91 87 83 78 72 66 62 58
45 43 42 41 39 38 37 36 36 38 40 43 45 48 51 55 58 62 66 70 74 79 84 89 93 97 102 107 112 115 108 103 99 94 91 87 83 81 76 69 64 61 57 52
33 32 32 33 35 36 38 40 42 44 47 49 52 55 59 62 66 70 74 78 83 87 91 95 99 103 108 114 113 105 100 96 91 88 85 81 78 74 67 62 59 56 51 44
37 38 38 40 42 43 45 46 49 51 54 57 60 63 67 70 73 77 82 86 89 93 97 101 105 110 113 111 103 99 93 88 84 82 79 76 70 65 60 56 54 49 43 37
46 47 47 48 49 51 53 55 57 59 61 64 68 71 74 77 81 85 89 92 95 99 103 107 111 114 112 105 97 90 85 81 79 77 74 68 62 58 54 52 48 41 35 28
53 54 54 55 57 59 61 63 65 67 69 72 75 78 82 85 88 91 94 98 102 106 110 113 114 108 100 94 88 83 79 77 74 71 64 58 55 52 50 45 39 33 27 21
61 61 62 63 65 66 68 70 72 74 76 79 82 85 89 91 94 97 100 104 107 112 114 112 105 98 93 86 82 78 75 71 67 62 57 53 49 47 42 37 31 24 20 14

GFSNGP_250_spd_030.txt.gz
Wind_Speed
46 48 41 42 47 46 41 51 57 64 70 70 72 72 66 61 58 56 55 54 53 53 54 52 52 54 55 56 59 61 63 65 68 71 75 79 82 87 91 94 98 102 105 103
42 47 37 32 36 26 25 49 57 63 66 68 69 67 63 60 58 57 55 54 52 52 52 53 55 57 58 61 63 64 67 70 72 76 80 83 87 90 94 99 103 105 98 95
35 28 44 42 39 44 22 47 58 64 66 68 67 63 58 55 54 53 52 52 51 51 53 56 58 60 62 64 66 69 71 74 78 80 83 87 90 94 99 102 102 94 94 96
37 33 34 40 39 47 45 59 63 67 66 64 59 54 53 53 53 52 51 51 53 54 57 58 60 63 65 67 70 72 75 78 81 83 87 90 95 99 102 96 92 93 95 94
37 37 29 30 32 44 53 61 58 55 59 57 54 52 51 50 49 50 51 52 53 55 58 59 62 65 68 70 73 76 78 80 83 86 90 95 99 98 91 91 92 92 93 91
18 20 19 24 31 47 49 54 52 57 57 55 53 50 48 48 50 50 51 52 54 55 58 60 61 62 66 71 74 77 79 82 86 91 95 97 93 89 88 90 90 90 88 90
13 10 18 19 33 41 41 46 52 53 51 50 49 47 48 48 49 51 53 53 54 56 58 59 62 64 67 71 74 78 82 86 91 94 93 87 86 87 87 87 87 85 90 96
10 13 18 24 33 35 43 48 51 50 49 49 50 50 50 50 50 51 53 55 56 57 59 62 65 68 71 74 79 83 87 90 90 85 83 83 85 84 84 81 83 89 95 102
17 20 23 27 35 38 44 46 47 47 48 49 50 50 50 49 51 53 54 55 58 60 62 66 68 72 76 80 84 87 87 81 79 80 82 82 81 80 79 83 89 95 101 107
16 19 25 30 38 43 45 47 46 46 47 48 48 48 49 50 51 52 55 57 60 63 67 70 74 77 81 83 81 77 76 77 79 79 78 78 75 77 83 88 94 101 105 111
20 21 26 31 39 44 46 47 47 47 47 47 48 49 51 53 54 57 60 63 66 69 72 75 76 75 74 72 72 73 75 76 75 73 70 72 77 83 89 96 101 105 110 116
18 20 24 31 40 45 47 48 49 49 50 51 52 53 55 58 60 62 64 66 67 67 66 66 67 67 68 70 71 73 73 68 64 65 70 76 83 90 96 100 106 111 118 123
19 19 22 24 28 34 40 44 47 49 51 52 53 55 56 56 55 53 53 53 55 58 59 61 63 65 68 69 67 62 58 59 64 70 76 83 88 93 99 108 113 119 124 122
16 18 18 19 23 27 31 34 36 38 39 40 40 40 41 42 43 44 47 51 53 55 59 62 64 64 61 56 53 55 59 64 70 76 83 88 93 99 104 109 116 123 120 114
20 19 19 19 21 23 25 27 28 30 32 33 33 35 37 39 41 43 47 52 56 59 61 61 56 52 50 51 54 59 65 71 77 83 88 93 99 105 110 117 121 114 111 106
24 24 24 25 26 26 27 26 25 26 28 30 33 35 38 42 45 49 54 57 58 59 55 50 48 48 51 55 60 66 72 78 83 89 95 100 106 111 117 118 111 108 103 96
25 26 25 23 22 21 24 27 28 30 33 36 39 43 47 50 52 56 56 54 52 49 47 45 47 50 56 61 67 73 78 84 90 96 101 106 111 116 115 108 106 101 96 88
27 27 27 28 27 29 31 33 35 38 42 44 47 50 52 53 54 54 50 48 47 44 44 48 52 57 63 68 73 79 85 91 97 102 107 113 116 112 104 101 97 94 87 84
31 32 33 33 35 37 39 40 43 46 49 51 53 50 50 50 49 46 46 43 43 45 49 53 59 64 69 75 80 86 92 98 102 107 112 116 109 102 97 94 92 86 81 76
39 40 41 43 45 46 46 49 51 52 53 51 50 51 49 45 42 39 41 44 47 51 56 61 66 71 77 82 88 94 98 103 107 112 115 105 98 94 92 90 84 80 74 68
48 48 48 49 49 52 53 56 56 55 53 50 46 42 39 38 40 43 46 50 54 59 64 68 73 79 84 89 95 99 104 108 111 114 102 95 92 90 88 83 79 71 65 60
51 52 53 54 54 52 50 48 44 39 37 36 36 37 40 43 46 49 53 57 62 66 71 76 81 86 91 96 100 105 108 111 114 103 94 91 88 86 82 77 70 63 58 55
39 39 38 37 35 34 32 32 32 34 36 38 41 44 47 50 53 57 61 65 69 74 79 83 88 93 97 102 106 108 111 113 102 93 88 86 84 79 74 67 61 56 53 47
32 32 33 33 34 34 35 37 38 40 43 45 48 51 54 57 61 64 68 73 77 81 85 89 94 99 103 106 110 112 114 100 91 85 84 82 76 70 64 59 54 50 45 40
39 39 40 40 41 42 43 45 46 48 50 53 55 58 61 64 68 72 76 80 84 88 92 96 100 104 107 111 113 112 99 90 84 82 80 76 70 62 56 52 48 42 38 34
46 46 47 48 49 50 51 53 54 56 58 61 63 66 69 72 76 80 83 87 91 94 98 102 105 109 112 114 109 95 85 80 78 77 72 67 60 54 50 46 41 36 32 27
54 54 54 55 56 57 59 61 63 64 66 69 71 74 77 80 83 86 90 93 97 100 104 107 110 113 113 105 92 84 77 74 72 70 64 57 52 48 44 39 34 30 25 20

GFSNGP_250_spd_033.txt.gz
Wind_Speed
40 40 38 24 31 28 29 28 34 41 45 46 49 54 59 64 68 67 68 68 64 59 56 55 53 52 52 52 53 54 57 59 62 64 67 71 74 77 81 83 87 92 96 100
43 36 32 29 22 18 28 29 19 30 35 43 47 51 59 62 66 69 68 64 60 56 55 53 51 51 51 53 56 57 59 62 65 69 71 75 79 82 84 88 91 96 100 103
38 35 32 27 11 17 17 15 22 24 37 43 47 53 59 63 65 66 63 59 56 52 50 50 49 49 52 56 58 59 61 65 68 72 75 79 81 84 88 92 96 99 102 108
38 37 31 32 15 17 26 16 19 21 37 43 48 55 58 58 61 60 57 53 49 48 47 46 47 49 53 57 59 61 64 68 71 75 78 81 84 87 92 95 98 103 107 106
29 37 33 34 28 13 23 26 13 29 37 45 52 54 55 55 55 51 49 47 47 45 45 46 48 51 54 57 60 64 67 70 73 76 78 81 85 89 93 98 103 107 99 99
7 13 30 32 25 17 26 31 24 39 44 49 51 54 52 50 47 47 47 46 46 46 46 48 51 53 56 59 63 66 69 71 73 76 80 84 89 93 98 103 100 95 96 91
3 7 4 8 16 17 22 27 32 36 41 47 48 49 49 48 46 44 43 44 45 46 49 51 53 56 59 61 63 66 70 74 77 81 85 89 94 99 98 92 93 91 86 85
7 12 7 5 8 2 12 26 34 37 42 44 48 49 47 44 42 43 44 45 46 48 51 53 56 58 60 63 67 70 73 77 81 85 90 94 95 89 88 89 85 80 82 90
11 12 11 7 7 10 11 21 32 34 40 44 47 47 45 43 43 43 43 44 46 49 51 54 57 60 63 67 70 73 76 81 86 89 90 85 85 85 82 75 75 81 87 94
10 13 14 14 13 12 16 18 28 34 39 45 45 44 43 44 44 43 45 47 49 51 53 56 59 62 66 70 74 78 82 83 83 80 81 82 79 72 70 76 81 87 93 99
14 13 14 17 18 17 20 25 31 36 41 44 44 44 44 45 45 47 49 50 52 54 56 59 63 68 71 74 76 76 76 74 76 78 76 68 66 69 75 82 87 92 98 104
14 15 16 17 19 22 22 24 30 37 41 42 42 42 43 44 46 48 50 53 56 58 62 65 70 70 68 67 67 69 71 74 74 68 63 64 70 76 81 87 94 100 105 110
14 16 17 18 19 20 26 29 32 37 40 41 43 44 46 47 49 51 54 58 62 63 64 60 58 58 60 64 67 70 71 67 61 61 64 69 75 81 88 97 103 107 111 118
12 13 14 15 17 22 27 31 34 38 40 43 45 47 48 50 52 52 52 51 50 50 51 53 55 58 63 66 67 65 61 59 60 63 69 74 81 87 93 99 105 111 117 119
10 10 11 12 14 17 20 24 29 34 37 38 38 36 35 35 36 37 39 42 45 48 52 56 60 63 65 63 59 57 56 59 63 69 74 81 87 93 100 105 110 115 114 110
17 16 14 14 14 14 13 13 15 17 20 23 24 26 29 33 36 39 43 46 50 54 58 61 63 63 57 55 54 55 59 64 69 75 82 88 93 99 105 109 115 111 107 103
21 20 17 15 14 14 15 16 16 16 19 23 27 31 34 37 41 44 49 52 56 58 61 60 55 52 49 51 55 59 64 70 76 82 88 93 98 104 108 113 105 103 101 94
21 17 17 16 16 18 18 20 22 25 29 32 35 37 40 44 48 51 54 55 54 53 51 47 45 47 51 55 60 65 71 76 82 88 93 99 105 107 113 102 99 96 92 88
20 22 24 25 25 26 28 29 30 33 35 39 42 45 48 51 54 54 50 48 46 42 41 44 48 52 57 62 67 72 77 83 89 94 100 104 107 113 99 96 94 91 87 82
30 30 30 32 32 32 33 34 38 42 43 45 49 52 55 56 51 46 43 40 39 42 46 50 54 59 63 69 74 79 84 90 95 101 104 109 114 98 93 93 90 86 81 73
39 38 37 37 38 38 41 43 46 48 51 52 55 55 50 43 39 37 37 40 44 48 52 56 61 65 70 75 80 86 91 97 101 103 109 112 98 92 90 89 86 80 72 64
51 48 47 46 47 48 49 51 53 54 57 53 44 38 36 36 37 39 43 47 51 54 58 63 68 72 77 83 88 93 98 101 104 109 110 95 90 88 88 85 80 70 62 58
47 55 53 52 53 54 55 55 51 42 37 35 36 37 38 41 44 47 50 54 58 61 66 70 75 80 85 90 95 99 103 106 110 107 92 88 86 85 84 78 69 61 56 53
29 36 42 46 43 39 36 35 35 37 38 39 41 43 46 48 51 54 57 61 65 70 74 78 82 87 92 97 101 105 108 110 104 90 84 83 82 80 74 66 59 54 51 45
34 33 34 35 37 38 39 39 41 42 44 45 47 50 52 55 58 62 66 69 73 77 81 85 90 95 99 103 106 109 108 99 87 82 81 80 78 71 62 57 52 48 42 37
42 42 42 42 44 45 46 47 48 49 51 53 55 57 60 63 66 70 73 76 80 84 88 92 97 100 104 106 108 105 95 86 82 79 77 74 68 59 53 50 46 41 35 30
49 49 50 50 51 52 53 54 55 56 58 60 62 65 68 71 74 77 80 84 87 91 95 98 101 104 106 105 101 92 83 81 77 74 71 64 56 50 47 44 38 33 29 26

GFSNGP_250_spd_036.txt.gz
Wind_Speed
25 26 27 32 29 24 24 17 9 11 20 42 60 67 62 57 49 47 54 61 67 66 65 62 60 58 55 53 50 48 48 50 53 54 57 60 63 67 71 74 78 83 87 89
19 21 17 26 27 29 27 18 11 7 10 31 40 41 46 45 46 51 55 61 61 59 61 58 58 53 52 51 48 47 50 52 54 56 60 63 67 70 74 78 83 87 90 92
15 16 25 16 20 26 26 29 17 13 19 24 28 32 36 42 49 52 53 53 55 57 55 54 51 49 49 47 46 48 51 53 56 60 63 67 71 74 78 82 86 89 90 93
15 17 16 14 14 20 18 17 15 16 15 18 22 26 32 39 44 45 44 48 52 53 52 51 49 48 46 45 46 49 52 55 58 62 66 70 74 78 82 85 88 89 93 97
19 19 16 8 13 15 21 15 13 16 14 15 19 23 29 38 39 38 41 46 50 50 50 47 45 44 43 46 49 53 56 57 59 62 67 71 76 79 83 85 89 93 97 102
11 16 11 11 12 13 13 7 6 11 9 12 18 21 22 27 34 38 41 46 47 46 43 42 40 40 42 47 50 53 55 59 62 66 70 74 77 81 85 89 93 98 102 102
4 14 14 6 9 10 11 4 5 3 4 12 17 20 21 27 34 39 43 43 41 39 39 37 38 41 44 47 50 54 57 61 66 70 74 77 82 86 89 94 98 99 95 95
2 10 13 13 11 12 16 14 14 7 9 13 17 18 24 31 34 39 40 38 37 36 36 37 41 44 48 50 53 57 61 66 69 73 77 80 85 89 93 95 94 90 90 83
8 9 11 9 14 9 13 13 12 10 14 16 21 25 31 32 38 40 37 36 36 38 39 41 43 46 49 53 56 60 64 68 72 76 81 86 89 91 90 87 88 83 77 80
7 8 11 10 10 12 10 7 6 9 14 20 27 31 33 34 36 35 34 34 35 36 39 42 45 48 51 55 60 65 68 72 77 81 85 86 85 84 86 82 76 75 78 84
9 11 11 12 8 8 7 7 6 8 16 22 25 29 32 34 35 35 34 35 36 39 42 45 49 52 57 61 65 69 74 78 80 80 79 79 82 82 76 73 74 78 84 90
10 10 12 12 13 12 10 8 7 9 12 17 23 28 32 35 36 36 36 38 42 45 47 51 54 58 62 67 71 74 75 73 73 74 78 79 77 72 70 74 78 83 89 96
9 10 11 12 12 15 14 12 12 12 13 17 21 27 31 34 37 38 41 43 45 48 52 56 60 64 67 68 66 65 66 70 74 76 76 71 68 69 75 81 85 90 97 103
6 7 8 10 11 12 15 17 18 18 19 20 24 28 31 34 38 42 44 48 51 55 57 59 58 55 55 58 62 67 71 73 73 70 66 65 68 73 78 83 90 98 105 109
8 9 8 8 10 11 13 16 20 23 23 23 25 28 31 35 40 43 45 46 45 44 43 46 50 54 58 63 67 69 68 65 61 61 63 68 72 78 84 89 95 102 106 115
8 7 7 7 8 8 8 9 10 9 10 12 15 19 23 26 29 31 33 36 39 43 47 51 55 60 64 65 64 61 58 56 59 63 67 72 78 84 90 95 101 106 113 114
14 14 13 11 11 10 9 9 10 10 11 14 18 20 23 28 30 33 37 41 46 50 52 56 60 61 61 59 56 52 55 59 64 68 74 79 84 90 96 100 106 113 110 103
11 16 17 16 15 13 13 14 16 19 21 23 24 26 29 33 37 40 43 47 51 54 57 60 58 55 52 50 51 55 61 65 70 75 80 85 92 96 101 107 110 103 98 94
11 11 13 18 18 18 20 21 23 24 26 28 30 33 36 39 43 47 51 53 55 57 54 49 46 46 48 51 57 62 66 71 76 81 86 92 97 103 108 106 97 93 89 85
17 18 19 21 23 24 25 27 30 33 34 35 37 40 44 47 49 51 55 52 45 42 42 42 45 49 54 59 63 67 72 77 82 88 93 98 103 108 101 92 89 86 83 77
25 27 28 30 32 34 35 35 36 38 40 41 43 47 49 52 54 53 43 40 41 42 44 48 51 56 59 64 69 74 80 85 90 94 98 104 107 98 89 87 84 80 75 69
33 36 39 41 45 46 45 45 45 45 46 48 50 52 55 56 43 40 40 42 44 47 51 54 58 62 67 72 77 82 87 92 95 100 105 105 93 85 84 82 78 73 67 59
34 35 37 38 40 44 47 51 51 51 51 51 55 54 43 40 40 42 45 48 51 54 58 62 66 70 75 80 85 89 94 98 102 104 100 87 82 81 79 76 71 64 56 53
35 35 34 32 32 31 33 38 43 48 49 44 40 40 42 43 45 48 51 54 57 61 65 69 73 78 83 87 91 95 99 103 102 96 83 79 78 76 73 68 61 53 50 47
41 40 37 35 34 33 33 34 35 37 38 40 42 44 46 49 52 55 57 61 64 68 72 77 81 85 90 94 97 100 101 99 91 81 78 76 75 71 66 59 51 48 45 41
43 43 42 41 40 41 41 42 43 43 44 46 48 50 53 55 58 62 65 68 72 76 80 83 87 91 96 98 99 99 96 90 81 76 74 73 70 64 58 49 45 43 39 33
48 49 48 48 47 48 48 49 50 51 52 53 55 57 60 63 66 70 73 76 79 83 86 90 93 96 97 98 96 91 87 78 74 73 71 68 62 54 47 42 40 36 31 27

GFSNGP_250_spd_039.txt.gz
Wind_Speed
7 6 9 24 34 39 46 43 26 9 11 14 9 18 32 47 69 74 68 62 57 54 49 48 52 55 54 55 58 58 58 55 53 53 54 55 55 56 59 61 64 68 71 75
11 9 16 20 33 32 38 38 35 34 27 11 10 5 23 35 54 71 66 56 54 50 49 50 52 54 53 53 55 55 56 54 53 53 53 54 54 56 60 63 67 72 76 80
6 12 11 20 26 30 34 37 34 30 27 25 18 8 7 24 42 55 56 55 52 51 49 49 52 54 49 52 53 55 54 52 50 50 51 53 54 58 61 66 70 74 78 82
8 6 5 17 22 26 31 35 32 29 25 24 24 25 28 34 38 41 43 43 46 50 49 50 52 51 48 52 52 51 50 49 49 49 52 53 56 60 65 70 74 78 81 85
9 5 10 7 15 24 26 29 31 28 27 24 20 25 31 32 34 35 35 42 42 41 42 45 45 46 46 46 46 46 47 47 48 51 53 56 61 65 70 74 77 80 85 88
11 4 1 8 10 11 21 24 26 23 26 22 24 17 22 29 29 31 28 21 22 26 30 34 38 41 40 40 40 42 43 46 50 53 55 60 65 69 72 76 80 85 88 93
12 7 5 3 1 4 10 20 21 21 16 16 14 14 12 12 17 17 17 16 20 25 29 33 34 35 36 37 39 41 44 46 49 53 58 62 67 71 75 80 84 89 93 97
12 10 9 15 11 11 8 11 16 11 12 9 12 8 9 9 10 15 17 17 20 24 27 30 30 32 34 36 38 41 43 47 52 57 61 66 71 75 80 84 88 92 99 100
11 9 9 13 15 11 8 11 16 10 2 8 8 5 8 7 7 12 15 19 22 24 26 28 30 31 33 36 39 42 47 51 56 61 66 70 75 80 83 88 93 96 92 94
17 13 11 13 13 13 8 6 12 14 7 9 12 7 5 7 7 13 15 20 23 24 26 27 29 32 35 38 43 47 52 56 60 66 71 75 79 84 89 93 90 89 90 86
18 15 15 12 11 13 11 9 13 15 12 12 10 11 12 13 15 17 20 25 26 26 26 29 32 36 40 44 48 52 56 61 66 71 75 80 85 88 86 85 87 84 78 79
15 14 14 12 11 11 10 12 13 13 12 11 11 11 15 16 18 21 24 28 29 30 32 35 38 41 45 49 53 58 62 67 72 76 81 82 82 82 82 79 74 73 77 81
13 12 10 11 10 11 9 8 11 12 12 11 13 15 16 20 25 28 31 33 34 36 38 40 43 47 51 55 59 64 69 73 75 75 75 77 78 75 72 71 73 77 82 88
8 9 10 11 11 13 13 12 10 11 15 19 20 20 21 23 25 28 31 34 37 40 42 45 49 53 56 60 63 66 67 67 70 73 75 72 69 66 69 74 80 87 92 95
6 6 8 9 12 14 16 17 17 17 17 16 17 18 20 22 24 27 30 34 37 41 45 48 50 51 54 58 60 63 66 69 72 70 66 63 64 69 74 79 84 89 94 100
5 6 6 9 11 12 14 15 16 15 15 16 20 23 26 28 28 29 30 32 35 37 40 43 47 51 54 58 62 65 68 67 62 58 59 64 69 74 80 84 90 94 98 104
7 7 6 6 5 7 10 10 10 10 11 13 15 16 19 21 23 24 27 30 33 37 42 47 52 55 59 63 65 62 55 54 56 59 65 70 75 80 85 90 94 99 105 104
17 15 14 14 14 14 14 14 15 17 18 20 21 22 22 24 26 28 31 35 39 43 49 52 56 60 58 52 48 49 52 56 61 66 71 76 81 86 91 95 100 103 99 95
18 16 14 17 19 19 21 20 20 20 21 23 24 24 26 28 32 35 38 41 46 51 53 56 52 45 43 46 50 54 58 62 67 72 78 83 89 93 97 100 100 95 91 89
20 17 14 14 15 15 17 20 22 24 26 28 30 32 35 38 39 40 43 48 52 53 48 42 42 45 48 52 55 59 64 69 74 79 84 90 95 99 99 96 90 87 84 81
21 18 18 18 20 22 23 26 28 31 34 37 39 41 42 42 43 46 50 50 47 39 40 44 47 50 54 58 62 67 72 77 81 86 91 96 100 98 94 86 83 79 77 71
24 24 25 26 27 29 32 35 36 38 42 46 47 47 46 47 48 49 46 41 41 44 46 49 53 56 60 65 70 74 79 84 89 93 97 98 96 89 84 81 78 73 67 60
32 32 33 35 37 38 36 36 37 38 37 35 37 39 40 41 42 39 39 43 46 49 52 55 59 63 68 72 77 82 87 92 95 96 96 93 85 80 77 75 69 64 57 52
36 36 36 36 36 37 36 35 35 35 32 30 28 29 30 33 37 41 44 48 51 55 58 62 66 71 76 81 85 89 92 95 96 94 88 83 78 74 71 66 60 55 48 46
39 39 39 38 38 39 39 39 39 38 37 37 37 38 40 42 45 48 51 54 58 62 65 70 74 79 84 88 91 93 93 94 90 84 80 75 72 68 66 58 52 46 43 42
45 45 45 45 45 46 45 45 44 43 42 43 44 45 47 49 52 55 59 62 66 69 73 78 82 86 90 92 92 91 90 85 83 79 74 71 68 64 56 50 44 42 39 35
50 49 49 49 48 48 48 48 49 49 50 51 53 54 55 57 60 63 66 70 73 77 80 85 87 90 91 91 90 86 82 81 78 75 73 69 64 55 49 43 40 38 33 30

GFSNGP_250_spd_042.txt.gz
Wind_Speed
33 13 20 23 15 26 34 33 32 24 12 13 19 18 18 22 28 29 46 59 54 60 61 59 55 50 46 44 44 48 49 49 48 57 58 61 61 60 58 59 61 62 65 66
14 18 16 12 19 22 30 35 32 29 15 11 6 7 11 17 19 30 48 50 51 58 57 54 50 48 47 46 45 48 50 49 48 55 58 61 60 58 57 59 61 62 65 68
7 8 3 12 18 23 31 36 31 30 26 26 25 22 17 14 20 38 46 43 47 50 49 48 47 46 43 45 46 46 49 51 50 55 56 56 57 57 58 59 61 63 67 70
8 3 8 13 20 22 30 36 32 28 28 38 45 44 34 21 26 40 38 37 40 42 43 43 41 40 42 45 47 49 51 50 48 51 53 54 56 57 57 59 61 65 70 74
8 3 7 12 20 23 26 31 32 30 28 31 44 44 23 23 27 40 42 39 40 41 41 41 40 39 40 44 46 47 48 47 44 48 50 52 53 56 58 60 64 69 74 77
13 8 7 11 14 18 26 25 28 31 32 29 33 41 31 21 11 23 38 43 41 40 40 39 40 38 41 45 45 44 41 41 41 44 46 49 53 55 59 63 68 72 76 81
17 10 10 11 11 9 20 16 20 24 24 27 26 22 27 29 17 12 20 24 28 32 35 37 37 38 38 36 35 34 33 34 37 39 43 47 51 56 60 65 71 75 80 84
15 12 12 10 14 11 13 13 13 17 17 18 18 16 14 12 10 7 9 11 12 17 23 25 26 26 25 23 22 24 28 31 34 39 44 49 54 59 64 69 74 80 85 90
24 18 15 13 15 18 8 7 10 10 10 4 9 12 13 15 13 12 12 12 15 14 13 11 11 12 14 17 20 24 28 33 38 43 48 53 58 63 69 74 79 85 90 95
28 25 17 20 18 15 12 4 5 7 4 9 6 6 11 10 11 10 9 8 8 9 9 10 11 13 16 19 24 29 34 38 43 48 52 58 64 69 74 80 85 89 95 97
26 24 21 22 18 13 13 6 3 6 10 12 11 6 8 7 7 8 9 10 9 9 9 12 14 18 22 26 29 34 38 44 48 54 60 65 70 75 80 85 89 92 91 91
28 24 23 20 15 11 11 7 10 7 10 11 10 10 9 8 8 8 9 10 12 14 16 18 20 24 28 32 36 41 45 51 56 61 66 71 75 80 84 86 86 87 85 81
20 17 18 18 14 12 9 8 9 13 14 13 12 9 9 10 11 12 14 15 16 18 21 24 28 32 36 40 44 49 53 58 63 67 71 75 79 79 81 82 78 74 74 80
17 16 16 16 15 13 12 10 9 9 10 11 11 12 13 15 16 17 17 18 21 24 28 32 36 39 43 47 51 55 59 62 66 69 71 73 76 75 71 69 73 78 81 86
13 14 15 16 16 16 14 14 13 11 10 11 12 15 17 19 20 21 23 25 29 31 34 37 40 44 47 50 53 56 60 62 65 67 68 65 61 63 67 71 76 81 87 93
10 8 10 13 13 14 14 17 16 15 15 14 15 15 15 18 21 24 28 31 33 35 37 38 40 43 45 48 53 57 59 61 60 56 56 59 63 68 72 77 82 88 92 96
10 11 10 11 10 10 11 11 15 15 15 15 17 17 19 22 25 27 28 29 30 32 33 36 39 43 48 52 56 56 53 51 52 55 60 64 68 74 79 84 89 94 97 99
11 10 12 12 12 13 13 13 16 17 19 20 21 22 22 23 24 25 27 29 31 33 36 40 44 49 53 54 49 46 49 53 57 61 66 71 76 81 86 90 95 97 98 96
18 16 16 18 18 18 17 16 19 19 21 22 24 25 26 28 30 30 31 33 35 39 43 44 48 51 46 43 46 49 54 59 64 68 73 78 83 88 92 95 97 96 90 88
22 21 20 21 19 19 20 19 19 21 22 23 24 25 27 30 33 36 38 41 43 44 45 49 49 44 45 48 52 56 60 65 70 75 80 85 90 94 96 95 92 86 85 82
28 26 26 26 26 23 23 22 20 20 21 23 27 31 34 38 42 46 47 47 47 47 49 47 43 46 50 54 58 62 67 72 77 83 87 92 94 94 93 88 84 81 76 71
31 29 29 28 26 25 25 25 25 25 28 30 30 31 34 35 39 38 39 40 41 41 40 42 47 51 56 60 64 69 74 79 84 89 93 93 92 89 83 80 77 71 68 63
32 31 31 31 31 31 31 31 32 34 34 31 32 33 33 35 33 31 30 32 36 41 45 49 53 57 62 67 72 76 81 86 89 93 92 90 86 81 77 73 69 64 58 52
37 37 36 36 37 38 39 38 35 33 34 34 34 36 39 41 41 40 41 42 44 47 51 55 60 65 69 74 79 84 88 91 92 91 90 85 80 73 70 67 61 55 49 43
45 45 45 45 44 41 37 35 35 35 36 38 41 44 45 44 43 44 46 49 53 56 60 65 68 73 77 80 84 88 90 90 88 87 85 79 71 68 65 59 53 47 41 39
46 45 44 43 41 41 41 40 40 41 43 46 47 47 47 47 48 51 54 57 60 65 68 72 75 79 82 86 88 88 87 85 85 84 78 70 67 64 58 52 45 40 38 34
50 49 49 48 47 47 46 47 48 50 50 49 49 50 51 53 55 58 61 63 67 71 74 78 80 82 85 86 84 82 81 82 83 79 71 68 64 57 51 44 39 37 33 29

GFSNGP_250_spd_045.txt.gz
Wind_Speed
20 25 30 27 20 10 23 30 34 33 32 34 36 34 33 29 23 22 24 22 26 35 44 47 51 55 55 61 56 55 55 52 51 52 51 51 50 48 49 55 58 62 64 66
23 23 16 9 4 10 25 32 39 19 27 28 16 13 13 12 9 5 10 16 20 26 33 42 47 47 53 51 51 52 49 48 50 50 52 52 50 50 51 50 55 61 64 66
21 10 2 4 8 18 25 32 30 19 21 27 26 24 17 13 10 7 10 18 23 29 35 37 40 44 45 47 47 45 45 48 50 51 50 51 52 52 52 50 54 58 63 66
11 6 2 7 13 19 22 26 24 19 22 32 41 40 29 30 29 28 24 22 23 27 33 35 36 39 40 41 42 43 45 45 48 48 48 50 53 53 51 49 53 57 60 64
13 11 4 7 16 20 19 25 19 14 18 23 37 38 22 29 26 24 24 24 24 26 29 31 34 36 38 40 39 39 40 43 44 47 48 50 51 51 49 48 52 56 59 62
17 11 3 9 15 16 16 21 19 21 13 18 25 25 26 19 16 17 17 19 21 23 26 28 29 31 33 32 34 36 38 41 44 45 47 48 48 47 44 47 50 54 58 64
16 14 12 10 14 18 17 16 12 17 12 10 18 16 22 14 11 12 16 16 17 19 21 22 24 28 30 32 33 36 40 42 42 41 42 41 38 38 41 45 49 55 61 67
17 17 14 8 11 18 18 18 4 16 6 10 5 3 4 11 15 11 13 14 15 18 20 21 24 27 29 33 35 35 33 33 34 32 30 30 33 37 42 49 55 61 67 72
18 14 14 13 12 18 20 16 7 9 8 8 15 5 1 5 8 11 12 14 14 15 16 20 24 23 22 21 22 22 20 20 21 23 28 32 38 44 50 55 61 67 73 79
25 22 21 20 15 17 20 16 8 4 1 4 6 2 1 1 6 5 5 6 7 10 9 10 12 12 12 12 12 13 17 21 25 30 35 40 46 51 56 62 68 74 81 87
25 24 21 21 19 16 16 12 4 7 8 7 11 11 9 7 11 10 9 10 10 8 8 9 6 6 8 11 15 19 24 28 32 37 42 47 53 59 64 70 76 82 87 91
19 21 22 17 18 15 15 11 6 7 5 10 9 7 8 8 7 9 9 8 9 9 9 9 11 13 16 19 22 26 31 35 40 45 50 55 60 67 73 77 82 85 88 88
17 25 20 16 17 15 14 10 7 10 9 7 10 9 7 8 7 7 8 9 10 12 13 15 17 20 23 27 30 34 38 42 46 51 57 63 68 73 77 80 82 81 77 77
23 21 21 18 16 14 14 12 9 5 5 7 8 10 11 12 13 13 15 17 17 18 19 21 24 26 29 33 36 39 43 48 52 57 63 68 71 74 76 73 70 73 76 81
22 20 20 17 17 15 15 13 14 12 12 11 11 11 13 14 15 17 19 20 22 23 25 27 29 32 33 36 41 45 48 52 58 63 67 69 68 66 65 68 73 78 83 89
21 19 15 15 16 17 16 15 14 14 15 14 15 16 17 17 17 17 18 21 24 25 27 29 31 34 39 42 44 48 52 57 61 63 61 60 60 64 69 74 80 85 90 94
20 16 13 14 15 16 15 13 12 14 16 17 19 18 19 21 21 21 22 24 26 28 30 32 35 40 43 43 47 52 54 59 59 56 57 60 65 70 75 81 87 92 95 98
22 17 16 15 17 15 14 13 14 15 17 19 20 20 20 21 22 23 25 27 29 32 35 38 41 42 45 48 52 54 58 59 55 57 61 66 72 77 83 88 93 96 98 94
22 19 18 16 17 17 17 17 18 18 18 19 21 23 24 24 26 28 31 33 36 40 43 46 47 48 50 52 54 57 55 54 58 63 68 74 79 85 90 94 97 97 90 84
27 24 23 22 20 20 22 22 22 21 22 24 25 24 24 26 27 29 32 36 41 44 48 51 52 52 53 54 53 51 55 59 65 71 76 81 86 91 95 96 96 85 81 80
32 31 31 28 27 26 26 27 27 26 26 26 26 25 24 28 32 34 33 33 33 35 37 36 36 37 40 45 50 55 61 67 73 78 83 88 92 95 96 93 83 77 78 74
31 31 33 32 30 30 30 31 31 31 29 27 27 29 31 35 33 33 34 34 37 41 42 42 42 45 48 53 58 64 69 74 79 84 89 92 94 96 91 83 76 74 69 64
35 34 34 35 33 33 33 32 33 32 31 32 34 35 39 37 36 36 37 39 44 45 45 46 49 52 57 62 67 71 76 81 85 88 90 92 91 89 84 74 71 66 60 55
38 37 35 35 36 37 37 37 38 38 38 39 41 41 38 38 38 38 41 45 46 47 49 52 56 60 64 68 73 78 82 86 88 89 90 88 86 82 72 68 63 56 51 44
45 44 43 42 42 42 43 44 43 43 44 44 41 39 40 40 41 44 47 49 50 52 55 59 63 66 71 75 79 83 86 87 87 87 87 86 82 72 67 61 54 49 42 38
50 50 50 49 48 47 47 48 49 48 43 41 42 43 44 45 47 49 51 53 55 57 61 64 68 71 75 80 83 86 87 86 84 84 86 81 74 66 61 54 48 41 37 35
56 56 55 53 51 48 47 47 46 46 46 47 48 49 50 52 54 55 56 57 59 63 66 69 73 76 80 83 85 86 83 81 81 81 80 78 65 62 56 49 42 37 35 32

GFSNGP_250_spd_048.txt.gz
Wind_Speed
16 14 16 17 22 26 16 14 15 31 29 27 45 34 34 36 35 33 30 26 27 23 24 28 34 38 48 59 54 54 55 54 54 52 48 49 49 51 54 55 55 55 54 53
13 15 14 20 15 11 8 13 22 27 27 21 25 19 24 21 17 17 14 11 10 9 11 20 32 41 52 46 43 43 44 47 49 47 45 46 49 51 53 54 56 56 57 58
10 11 13 11 11 10 10 17 22 23 10 21 16 23 29 31 29 25 19 15 6 8 12 12 20 25 31 32 33 36 38 43 44 44 44 46 48 49 51 55 56 58 59 61
10 12 17 8 7 4 11 18 16 16 19 11 13 18 26 32 31 32 33 34 33 32 32 30 28 27 26 27 27 30 33 37 39 38 40 43 45 50 52 54 55 57 59 60
12 17 16 4 7 6 12 17 15 20 12 16 9 16 21 23 29 32 31 33 31 31 31 30 27 26 25 25 25 24 24 26 30 36 39 42 47 50 51 54 55 56 56 57
14 16 13 6 7 7 13 16 16 15 10 11 16 18 18 13 19 28 26 28 28 29 28 26 22 20 19 18 17 19 23 27 31 34 38 43 47 50 52 52 52 53 52 50
18 21 17 12 5 7 10 19 17 15 8 8 8 16 15 11 9 15 19 20 22 22 25 21 10 10 9 13 13 14 22 25 25 31 40 42 47 47 46 46 44 44 46 49
21 23 20 10 7 6 12 12 20 13 9 11 9 9 9 13 9 5 9 10 14 17 19 21 16 19 16 10 15 17 24 29 33 38 45 47 43 40 37 38 42 46 51 56
21 20 19 15 12 11 12 7 16 7 6 1 5 10 6 9 13 10 1 5 6 10 15 21 24 25 23 26 27 28 33 39 39 38 35 31 31 35 39 44 48 53 59 64
25 19 17 17 12 9 10 12 11 6 9 8 4 6 7 4 4 8 6 4 3 9 10 14 21 26 28 26 25 24 23 22 22 24 26 30 36 41 45 50 56 61 66 72
25 23 22 21 15 12 12 9 9 6 8 13 9 5 6 4 4 4 2 2 2 4 5 9 9 12 12 12 12 13 16 20 24 28 32 38 42 47 52 57 63 68 73 78
23 22 18 17 16 11 11 10 8 10 10 9 12 12 11 6 7 8 5 4 6 7 6 6 7 9 12 14 16 19 22 26 30 34 38 42 47 52 58 64 69 74 79 82
20 18 16 15 13 11 11 6 7 8 10 11 11 12 9 9 10 10 9 8 9 9 10 11 13 14 16 18 22 25 29 31 34 39 43 48 54 60 65 70 74 77 76 75
17 13 16 13 13 13 11 9 8 8 9 11 10 8 9 10 10 10 11 12 12 13 15 17 19 21 24 26 28 30 33 37 42 45 50 55 59 64 69 73 71 70 72 76
16 14 15 15 16 16 13 11 11 11 11 11 12 12 12 13 14 15 16 16 17 18 20 22 24 26 28 30 32 36 40 43 46 50 55 59 63 67 70 67 69 73 78 84
19 19 18 16 15 16 15 14 13 13 14 13 14 15 15 17 17 18 19 19 20 21 22 24 27 29 32 34 38 41 45 49 52 55 59 63 65 67 65 70 75 81 86 91
21 22 19 20 17 17 18 15 14 15 14 13 14 16 17 17 17 17 18 19 20 22 25 27 29 33 37 42 46 49 52 54 57 59 62 64 62 65 71 77 84 90 94 98
28 26 24 22 19 20 18 15 15 17 15 15 16 16 18 18 19 19 20 22 25 27 30 34 37 40 45 49 51 52 53 54 55 55 55 60 66 73 79 85 91 96 100 99
30 25 27 25 23 19 18 18 16 17 17 17 18 18 19 20 21 23 24 26 28 31 33 35 37 35 35 38 39 39 40 44 49 55 62 68 74 80 87 93 97 98 96 90
30 31 30 28 23 22 21 21 21 21 21 21 21 21 23 25 26 26 26 27 31 36 36 36 35 38 41 42 44 45 49 53 58 64 70 76 82 89 94 98 97 93 88 82
33 35 35 33 30 27 25 26 27 28 26 25 26 27 28 27 27 28 31 34 38 38 37 38 39 42 44 46 48 52 56 61 66 71 77 83 89 95 99 97 92 87 80 75
35 37 38 37 34 33 32 32 32 31 29 28 29 29 28 29 31 34 37 40 44 41 40 41 43 46 49 52 55 59 63 67 72 77 83 89 94 98 97 91 87 79 73 68
35 36 38 38 36 34 33 32 33 32 33 32 33 33 35 35 37 39 43 47 44 43 44 45 48 51 54 57 60 64 68 72 77 83 89 93 95 95 92 88 80 71 66 58
40 37 36 36 36 37 36 35 36 36 36 35 37 39 40 42 43 46 48 46 44 45 46 49 52 55 59 62 65 68 73 78 83 88 92 94 93 90 88 78 69 65 57 49
44 42 42 42 41 41 40 40 40 40 41 43 44 45 46 47 48 51 48 46 47 48 51 53 57 60 63 67 70 74 79 83 87 92 93 92 88 87 82 69 64 57 49 44
48 46 47 47 47 48 47 46 47 47 48 48 50 51 52 53 51 48 49 49 50 53 56 59 63 66 69 72 76 80 83 87 91 93 90 85 85 82 72 65 58 50 44 41
53 53 53 53 52 53 53 53 53 54 54 54 54 52 50 50 51 52 54 55 56 59 61 64 68 70 73 76 80 83 86 90 92 89 83 82 82 76 67 60 52 45 40 38

GFSNGP_250_spd_051.txt.gz
Wind_Speed
24 23 23 19 18 16 18 21 25 29 34 38 38 36 32 28 32 37 48 49 39 36 34 40 42 43 46 48 51 53 58 55 52 49 48 51 48 52 52 48 50 52 54 55
25 22 18 15 13 17 18 13 18 24 33 20 21 31 20 15 20 26 29 28 24 20 21 20 20 21 26 30 30 33 38 43 42 38 41 42 42 49 48 48 48 47 51 56
21 16 12 13 17 16 16 10 13 12 14 16 22 20 17 12 17 20 26 26 17 4 4 4 4 3 13 17 21 27 33 37 35 34 34 34 41 44 43 42 42 47 52 57
16 13 12 13 13 15 21 10 12 11 10 8 13 14 14 14 19 23 28 30 29 24 23 23 23 20 21 20 20 21 24 24 23 23 26 33 37 37 37 40 44 48 53 57
14 10 8 16 15 16 4 5 9 9 13 10 11 14 16 13 17 23 35 37 40 40 40 38 36 35 32 30 29 25 21 16 17 17 26 28 30 33 39 43 47 50 53 57
7 8 18 25 16 9 3 4 12 9 14 14 15 15 18 12 13 18 28 34 41 38 37 38 37 36 34 32 31 28 17 18 15 18 21 27 31 36 41 45 45 49 52 54
6 13 24 24 17 10 5 5 8 10 11 13 17 19 16 9 6 10 16 22 28 26 26 28 29 22 22 22 24 19 7 10 15 21 19 23 30 38 38 40 45 46 48 52
6 16 27 21 14 13 8 2 6 9 8 10 15 9 13 8 4 6 7 9 18 15 18 20 21 16 19 17 14 18 20 18 20 22 26 27 29 34 40 45 49 53 52 51
8 17 27 25 18 16 9 5 7 8 8 12 5 4 4 7 4 5 5 2 2 10 7 13 12 13 17 15 16 11 6 13 18 20 25 29 35 41 49 53 50 50 51 56
11 19 25 23 23 18 10 10 8 9 10 13 11 10 8 5 4 5 6 5 5 6 9 9 9 11 11 11 11 13 17 23 27 30 33 38 43 44 44 45 47 51 55 61
15 20 22 21 19 17 14 14 11 10 11 12 9 13 14 5 4 7 5 2 1 2 5 14 17 20 20 22 26 29 28 26 27 29 30 32 35 39 43 47 51 56 61 67
19 18 21 23 16 20 14 14 11 13 11 13 12 12 11 12 6 13 10 4 4 3 2 8 9 9 11 13 13 14 17 20 24 27 31 35 40 44 47 52 57 62 66 71
18 18 17 15 11 12 9 11 12 11 9 12 12 10 12 14 13 12 12 11 10 7 7 8 8 9 11 14 17 20 23 27 30 33 37 41 45 48 53 58 61 66 72 76
12 13 12 11 11 6 6 7 9 8 8 11 11 10 11 13 14 16 16 15 12 11 12 13 14 16 18 21 23 26 29 32 36 40 44 47 51 55 58 61 65 69 71 72
14 15 15 14 8 9 9 7 8 9 13 16 13 12 14 15 16 15 15 16 16 17 18 18 19 20 21 24 26 30 33 38 42 47 51 55 57 59 61 62 62 66 74 79
18 21 18 14 11 13 13 12 11 13 14 16 16 16 17 16 15 15 16 17 18 19 18 18 20 22 24 27 31 35 39 43 46 45 45 45 46 47 51 58 67 73 80 86
22 24 19 18 16 17 16 16 13 12 12 15 17 18 16 15 16 18 17 16 15 16 18 21 24 27 33 36 36 38 39 40 41 44 44 46 49 54 61 69 75 82 88 95
28 23 19 20 17 19 21 21 17 14 13 14 16 16 14 13 13 14 15 16 17 19 22 25 28 33 36 39 40 39 41 42 44 46 50 54 58 64 69 76 82 89 97 98
31 26 23 24 22 25 24 23 21 18 17 15 15 14 15 15 17 18 19 21 23 25 27 29 31 37 42 40 41 42 44 46 48 52 56 60 65 70 76 83 89 96 98 97
30 28 30 27 25 29 29 26 24 22 20 19 19 19 20 21 23 24 25 26 27 28 31 35 39 43 45 43 44 46 48 51 54 58 62 66 71 76 83 89 96 100 98 89
35 31 29 31 31 32 32 30 28 26 25 24 25 26 25 23 23 25 27 29 31 33 36 39 43 48 47 45 47 49 51 54 59 63 68 72 77 82 88 94 100 100 91 83
35 33 31 32 31 32 33 34 32 31 30 30 30 28 28 28 28 30 30 32 35 38 40 44 48 49 46 47 50 52 54 59 63 68 72 77 83 87 93 98 99 93 84 77
37 38 36 32 31 34 36 37 38 37 36 33 32 32 32 32 33 34 36 38 40 43 45 48 51 50 49 51 53 55 59 63 68 73 77 83 87 93 98 97 93 85 78 71
40 39 38 37 34 35 38 39 40 38 38 37 36 36 36 37 38 40 41 43 46 48 50 53 52 50 51 54 57 60 64 69 73 77 82 87 92 96 94 93 85 79 72 66
43 42 42 42 42 42 41 40 41 42 42 42 42 41 41 42 43 45 47 49 51 53 54 52 52 53 55 59 62 65 69 72 77 81 86 92 94 92 89 85 79 70 67 61
49 49 49 49 49 49 48 48 47 46 45 45 46 46 46 47 50 52 53 55 56 53 51 53 55 57 60 63 66 69 73 77 80 86 91 92 89 84 81 81 68 65 62 54
54 55 56 55 55 54 51 50 50 50 51 51 51 52 54 55 56 58 59 59 58 57 58 60 61 63 66 69 73 76 79 82 86 89 90 86 81 78 78 69 62 61 55 47

GFSNGP_250_spd_054.txt.gz
Wind_Speed
26 27 28 29 30 31 30 29 34 30 34 36 37 42 41 43 45 44 49 54 62 61 62 51 42 42 44 48 55 58 60 64 66 67 67 70 68 60 54 55 59 59 57 53
28 27 26 26 26 23 23 25 25 24 27 30 31 34 35 28 26 32 40 42 45 48 39 36 31 28 27 29 32 33 35 38 43 48 49 47 45 36 41 46 51 51 45 40
25 25 22 24 22 20 20 19 18 17 14 21 26 19 16 16 11 25 30 20 21 24 23 21 19 13 15 16 17 19 19 22 26 28 31 30 29 32 31 35 38 38 34 47
26 24 25 23 19 19 19 20 13 13 16 20 12 9 11 13 4 8 5 14 20 23 20 16 13 10 13 14 8 16 12 17 23 28 25 20 18 19 20 13 24 33 41 45
26 23 19 16 19 20 19 15 14 15 15 7 10 12 12 9 6 5 4 10 19 24 28 31 31 33 35 35 32 29 30 32 31 30 24 18 17 15 11 25 36 38 42 45
21 18 15 18 20 18 18 18 18 14 12 9 12 12 15 11 4 7 8 6 12 21 24 29 33 34 41 40 40 38 40 34 28 22 18 13 16 16 22 30 35 40 43 46
17 14 15 21 21 22 20 12 9 6 7 9 10 12 15 12 6 6 8 9 5 9 14 20 26 23 29 34 28 30 26 28 26 25 18 23 22 28 32 35 38 39 43 47
15 13 18 23 25 21 17 15 11 6 8 8 10 9 7 7 7 4 7 9 9 5 4 6 11 18 15 16 20 23 19 17 16 17 18 21 25 28 32 33 34 37 39 41
15 12 18 24 22 22 20 17 12 10 9 9 9 9 6 8 5 5 10 11 8 4 4 2 4 3 5 7 7 4 5 1 8 10 11 16 20 24 27 31 37 40 45 50
14 10 15 25 27 24 21 17 18 15 12 14 13 12 13 9 9 7 9 12 14 10 8 8 5 3 2 2 1 4 10 12 14 17 21 24 26 29 33 38 44 49 52 55
14 10 12 21 27 26 25 23 22 20 17 16 17 11 11 13 13 14 14 12 11 9 12 14 15 13 11 9 12 15 18 20 23 22 23 26 28 32 36 41 45 48 51 55
16 12 13 19 23 22 19 24 22 21 18 20 19 11 10 13 11 13 15 14 16 11 8 7 7 9 11 12 16 21 20 19 21 23 25 28 32 36 41 45 48 51 55 59
14 12 11 14 17 18 20 17 19 20 19 16 15 9 10 14 15 13 15 14 15 15 12 10 8 9 11 12 14 16 20 23 25 28 30 34 37 41 46 50 54 55 57 58
16 11 10 14 15 17 17 18 17 18 16 14 13 13 13 14 14 16 17 15 16 16 18 16 16 17 18 18 20 22 25 26 28 31 34 38 40 40 40 42 44 48 53 60
18 14 13 19 16 16 14 13 13 16 16 16 13 13 14 14 12 13 15 14 14 13 13 15 17 17 19 21 22 24 27 30 33 35 37 38 42 44 44 47 52 56 62 67
19 15 16 21 17 16 14 14 13 15 16 17 16 16 19 19 13 15 16 15 16 16 16 17 17 19 21 23 25 29 32 35 38 40 39 41 44 46 48 53 58 64 69 74
20 21 20 21 22 17 16 17 16 13 15 16 19 19 18 19 18 17 16 14 15 16 16 17 20 22 24 27 29 32 37 43 43 43 44 46 49 52 55 60 65 70 75 82
25 21 21 22 25 21 18 21 21 16 15 17 18 15 15 16 17 15 15 16 16 17 20 23 24 26 29 31 34 40 43 49 45 44 45 49 52 56 60 65 70 76 83 89
30 26 23 25 27 23 19 22 26 21 16 18 19 17 15 13 14 16 19 20 21 23 24 26 28 30 32 35 40 43 47 48 45 46 49 52 55 59 64 70 75 82 90 94
32 28 27 30 30 25 22 22 27 29 26 20 20 20 20 20 20 21 21 21 22 25 27 29 30 33 37 41 45 47 51 51 48 50 52 56 60 64 69 75 80 88 93 93
37 31 31 31 32 28 27 28 24 29 31 28 24 22 22 23 23 24 25 27 28 29 30 31 35 39 42 45 48 51 54 54 52 52 57 61 64 68 74 79 86 91 93 88
40 34 32 33 32 30 30 30 31 30 32 30 27 28 29 30 29 29 29 30 32 33 34 37 40 43 46 49 53 55 56 54 55 57 61 64 69 73 80 84 88 93 90 82
41 37 36 37 36 35 33 31 32 32 31 31 32 33 35 35 34 35 35 36 36 37 39 41 44 46 50 53 56 57 56 56 59 62 65 70 75 80 85 88 92 91 84 76
43 40 39 38 39 37 36 37 36 36 35 35 37 37 38 38 39 40 40 40 41 42 43 45 47 50 54 57 58 59 60 62 64 67 72 76 81 86 88 92 91 83 78 72
44 42 43 44 43 42 42 40 40 40 39 40 40 40 40 41 43 44 43 44 45 47 49 51 53 56 59 62 62 62 63 66 69 73 77 82 86 90 91 88 82 77 72 68
43 43 43 45 46 46 45 45 45 45 45 45 45 45 46 46 47 48 48 50 52 55 56 57 59 61 64 65 66 67 69 71 75 79 83 87 90 91 89 82 77 73 65 63
47 47 47 48 49 49 48 48 48 49 49 50 50 51 52 51 51 53 54 56 59 61 61 61 61 64 67 69 71 73 75 77 81 84 88 89 89 85 80 76 71 66 58 57

GFSNGP_250_spd_057.txt.gz
Wind_Speed
30 34 37 40 42 45 47 48 48 43 39 35 36 37 38 39 40 43 44 49 53 59 63 66 68 59 53 54 56 58 62 66 71 71 69 68 69 70 71 70 69 67 64 66
26 26 26 27 28 31 32 33 28 30 28 29 30 32 33 34 34 37 37 35 37 47 53 56 57 59 51 36 35 40 44 49 53 54 55 56 56 56 57 58 59 57 60 56
26 26 26 28 28 27 27 30 28 25 24 26 26 23 23 26 29 24 24 26 30 39 40 49 49 45 39 32 29 28 29 31 35 37 37 37 36 35 35 38 41 39 37 39
24 25 26 26 25 25 25 24 23 23 22 19 18 18 21 20 20 19 20 19 26 22 25 32 33 29 27 19 13 12 11 16 16 18 19 20 18 18 20 19 15 13 18 26
24 25 25 25 25 24 24 23 22 17 16 14 14 17 17 19 15 17 14 14 23 24 15 18 20 15 17 16 17 16 14 7 13 22 25 29 30 28 20 15 13 12 21 22
23 26 27 26 24 22 21 22 21 17 14 16 20 19 16 14 15 17 17 16 19 21 24 23 19 17 15 16 18 26 31 34 37 35 33 27 29 32 21 12 21 22 29 31
28 29 26 22 22 23 23 20 16 17 17 16 15 14 11 4 8 13 17 18 18 20 20 18 17 18 17 18 15 19 22 23 27 24 21 18 15 12 13 19 23 27 29 33
26 22 20 19 22 25 22 18 19 18 15 13 13 13 9 5 5 9 14 16 16 20 21 13 15 18 13 16 21 21 19 19 16 13 10 7 4 8 14 18 21 27 34 40
22 17 16 17 25 26 24 23 22 18 15 12 13 15 13 10 9 9 13 18 18 15 18 12 12 13 12 12 10 12 18 15 12 8 5 5 9 14 19 24 28 33 35 38
19 15 11 14 21 21 24 25 25 23 19 17 18 16 19 17 15 14 12 12 17 19 19 17 15 13 13 11 11 7 12 14 11 13 13 16 18 20 22 24 28 34 38 43
19 14 11 13 19 24 26 25 25 23 23 21 21 21 20 20 16 18 16 12 13 13 16 17 18 15 15 15 17 16 17 18 19 21 20 20 22 25 28 31 34 38 41 45
20 19 16 17 21 26 30 31 29 27 27 22 22 21 22 18 16 15 13 15 14 14 12 13 13 11 10 12 13 14 15 17 18 19 21 23 26 29 32 35 38 40 41 46
22 18 14 14 18 23 23 25 25 22 23 23 20 19 17 17 15 15 15 14 15 16 15 14 14 14 13 13 14 15 17 19 22 23 26 29 32 34 37 36 38 43 45 47
23 20 14 13 20 19 18 21 25 21 18 19 19 18 18 19 14 13 16 16 16 15 14 17 18 17 17 18 19 20 21 21 23 26 29 32 35 38 38 38 42 46 51 55
26 21 17 15 19 21 19 21 22 19 18 19 19 20 19 17 13 12 13 15 15 16 17 18 20 20 21 21 21 22 23 24 26 28 32 36 43 42 42 45 48 51 55 58
29 24 17 14 19 23 24 23 21 18 18 18 19 20 21 19 16 18 17 17 17 18 19 20 21 22 22 22 24 25 27 29 31 34 39 44 46 43 43 46 50 53 56 61
31 24 19 18 18 22 25 23 21 20 16 16 18 20 21 20 20 20 20 20 21 22 22 21 21 23 24 25 27 29 31 33 35 39 42 47 47 45 47 50 52 56 59 65
32 26 23 22 18 21 26 26 21 20 18 15 16 18 18 20 21 18 18 20 22 20 21 22 24 25 27 29 31 33 34 37 40 44 46 50 51 50 50 53 56 60 66 71
33 29 27 24 23 22 25 27 25 23 22 20 17 18 17 18 19 18 18 19 20 20 20 22 25 28 30 32 34 35 37 41 45 48 51 53 53 52 54 58 62 68 73 80
36 32 30 30 28 25 26 30 23 24 21 20 20 20 18 19 19 20 21 21 23 25 26 27 29 31 33 35 36 39 42 45 47 50 53 54 55 58 60 64 69 74 79 85
38 36 34 36 33 28 29 31 30 28 25 26 23 22 21 20 22 23 23 25 27 29 30 32 34 36 37 38 39 43 46 49 51 53 56 59 60 62 65 70 76 80 85 88
42 41 39 37 37 34 32 34 36 34 33 29 29 27 27 28 28 28 29 30 31 33 34 36 38 38 39 41 44 47 49 53 55 58 61 63 65 68 71 75 81 86 89 89
45 45 44 41 40 39 38 38 40 38 34 31 32 30 32 32 32 33 34 35 37 38 38 39 40 41 43 46 49 52 55 57 60 62 65 68 71 74 77 81 86 88 89 88
54 52 50 49 47 42 43 42 42 42 41 38 35 35 34 35 36 37 37 37 38 39 40 42 45 45 46 50 53 57 59 62 64 66 68 72 76 79 83 86 88 90 86 80
50 51 52 52 51 47 45 45 45 46 46 43 39 39 41 41 39 39 40 41 42 43 45 47 48 48 51 54 58 61 63 66 68 71 75 77 81 84 87 87 88 82 76 74
43 44 47 48 49 50 49 48 49 48 48 47 45 45 44 44 45 46 46 47 48 48 50 52 54 55 56 58 62 66 70 72 74 77 79 83 85 86 86 87 80 74 73 69
39 39 40 45 48 48 49 48 48 49 50 51 50 50 50 50 50 50 50 51 53 54 56 58 60 61 62 63 67 71 75 77 78 82 84 85 86 86 82 72 71 72 69 64

GFSNGP_250_spd_060.txt.gz
Wind_Speed
37 42 46 50 56 62 60 56 59 62 59 56 57 55 52 54 55 53 51 48 48 50 54 54 63 65 60 57 58 57 54 55 61 69 71 73 75 75 75 74 73 72 71 71
29 35 40 42 42 42 43 46 44 47 46 49 47 45 45 42 36 36 38 39 39 47 45 47 45 46 49 47 47 47 36 34 39 41 44 47 48 52 57 60 66 67 67 62
26 28 31 34 36 36 38 38 37 33 32 37 33 32 32 31 29 31 33 34 38 34 31 30 40 45 48 51 48 47 34 29 27 30 30 30 29 30 36 44 52 55 57 52
21 22 23 24 25 25 23 21 21 22 22 25 26 26 23 24 27 29 28 28 28 26 23 26 35 40 43 47 50 46 35 26 20 16 13 12 12 13 18 24 29 32 34 34
18 19 20 20 19 17 18 21 22 22 21 20 20 20 18 19 22 26 24 24 25 25 23 20 29 29 37 38 37 38 33 29 18 9 9 11 18 21 20 19 19 17 8 7
18 19 20 20 19 19 19 19 17 17 19 21 19 16 17 19 23 26 26 28 26 25 24 20 24 25 28 27 29 29 33 35 26 22 25 25 26 25 26 17 14 13 15 22
20 19 20 19 19 19 19 20 20 21 20 18 14 16 19 20 20 23 23 25 26 25 26 25 24 21 18 20 18 22 24 25 27 29 28 20 16 12 7 8 4 9 11 19
19 22 22 20 18 20 21 23 20 19 18 15 12 15 17 16 14 15 18 23 25 23 23 19 20 22 19 16 18 21 20 20 23 22 23 21 19 16 13 11 13 14 17 21
25 23 20 19 20 20 23 22 20 18 19 19 17 15 16 15 15 14 16 16 19 18 19 20 20 20 20 18 16 18 20 22 21 20 22 22 21 21 21 20 20 23 26 30
24 21 18 18 17 21 22 24 22 20 22 21 17 17 17 18 16 17 21 19 15 15 13 12 13 15 16 19 16 14 16 17 19 19 19 19 19 19 21 24 27 29 31 33
22 20 18 16 16 20 23 24 22 23 25 28 27 24 20 21 22 20 20 20 13 12 13 13 14 14 12 12 14 15 15 15 16 17 19 19 21 22 24 26 29 31 34 36
23 22 19 17 15 13 19 24 25 27 26 26 26 27 22 24 21 20 19 19 16 14 14 14 15 14 14 14 15 16 17 17 19 20 19 18 20 24 27 31 35 37 40 41
25 23 20 17 13 18 24 29 29 30 30 23 22 23 22 19 20 18 17 19 18 17 16 17 17 17 18 18 18 19 20 20 20 20 22 23 23 28 32 36 40 41 41 43
27 24 23 22 19 18 22 27 29 27 27 22 21 22 19 18 18 18 18 18 18 18 18 17 18 20 21 22 23 24 24 22 23 26 26 26 29 33 35 41 46 46 45 46
29 25 25 24 21 17 20 25 25 23 23 22 20 19 18 17 17 18 18 19 18 19 20 20 21 22 22 23 24 24 24 26 29 29 30 31 33 37 42 45 48 48 46 48
33 29 26 25 22 19 19 23 24 24 23 20 18 18 18 19 19 21 23 23 22 22 22 23 24 23 23 24 25 26 28 31 32 32 32 35 37 41 45 48 50 49 51 54
36 32 28 28 25 19 17 20 25 27 23 21 20 19 19 20 20 21 24 24 24 23 23 24 25 26 26 26 27 29 33 35 35 34 35 38 41 44 46 50 52 55 57 61
38 34 32 30 27 24 19 18 20 25 26 23 22 20 17 16 17 17 19 23 24 25 24 24 24 24 26 29 31 32 35 36 36 37 40 41 44 47 51 54 57 60 63 67
39 35 33 33 30 27 22 20 20 25 29 28 25 23 20 18 17 19 20 21 23 23 23 24 27 29 31 32 33 35 37 38 40 42 44 45 48 52 56 58 61 64 68 72
42 38 35 34 34 31 27 26 24 24 29 30 27 22 19 20 22 22 22 22 24 27 29 29 30 32 34 35 36 36 38 40 43 45 47 50 54 56 59 62 66 69 73 77
44 41 39 37 37 36 34 31 28 27 28 30 29 28 26 25 23 25 26 26 26 28 29 31 32 34 34 36 38 40 41 43 46 48 51 55 57 60 62 65 69 73 78 80
45 45 43 42 42 40 39 36 33 31 30 32 35 35 33 32 32 32 32 33 33 33 34 36 37 37 38 39 40 43 45 46 49 53 56 58 60 63 66 70 74 78 82 82
47 45 45 45 45 43 41 40 38 37 36 34 37 40 40 39 38 36 35 35 36 37 37 37 38 38 39 42 44 46 48 51 54 57 58 60 62 66 71 74 78 81 82 83
51 50 50 49 48 46 44 44 44 43 41 39 41 42 44 44 42 40 40 38 38 39 40 41 42 43 45 46 48 50 53 55 57 59 61 63 66 71 75 78 79 79 80 76
56 55 54 52 51 50 49 49 48 49 47 46 47 47 47 48 48 46 44 43 43 45 46 47 48 49 51 52 54 55 55 58 62 64 67 69 72 75 80 80 79 78 72 67
50 56 59 59 58 58 57 56 55 55 56 54 53 51 50 50 50 50 50 49 47 47 49 50 52 55 57 58 58 58 59 62 66 70 72 75 77 80 82 79 72 68 66 68
39 42 44 49 52 54 56 56 54 54 54 55 55 55 54 53 52 53 54 53 52 52 55 56 57 58 60 61 62 62 64 66 70 74 77 77 81 78 70 65 63 65 68 69

GFSNGP_250_spd_063.txt.gz
Wind_Speed
35 40 43 43 43 45 47 47 48 49 55 58 60 58 56 54 56 53 53 54 54 55 56 59 62 59 58 60 59 58 60 67 81 89 86 89 87 87 86 86 84 82 79 77
32 37 44 49 51 50 48 46 44 47 46 52 51 51 50 51 48 48 49 49 49 50 50 49 45 45 49 45 43 43 44 48 48 50 52 49 49 53 52 51 51 51 51 56
28 34 39 44 48 49 50 48 47 45 44 47 50 45 44 44 43 40 42 41 40 40 43 40 37 36 33 32 32 38 40 40 32 26 21 23 26 29 31 34 34 30 30 37
25 28 33 35 36 39 40 39 36 36 35 35 34 34 34 32 33 32 32 32 33 36 35 32 28 26 26 27 27 33 35 38 45 41 28 16 14 14 10 9 6 8 14 16
20 22 26 29 31 33 32 30 29 29 29 28 27 26 25 25 24 24 25 28 28 31 30 27 24 25 25 27 21 26 30 29 34 36 39 32 26 21 12 14 12 9 7 4
15 16 18 19 20 20 21 22 22 21 21 22 20 19 20 19 19 21 24 26 31 31 29 25 26 25 26 24 18 17 25 26 26 29 32 30 31 30 29 25 20 16 9 3
14 15 16 17 18 19 19 18 17 19 19 19 19 18 17 18 19 21 23 26 28 26 26 24 26 25 25 20 19 19 19 22 21 21 23 23 23 23 22 23 23 21 20 18
14 14 16 18 18 18 18 19 19 19 18 18 18 17 15 15 15 18 18 19 19 22 23 22 23 26 28 27 23 21 21 19 18 17 17 16 17 19 20 22 21 20 19 20
17 18 19 20 20 19 20 20 19 17 17 17 17 15 13 15 13 14 14 16 16 17 17 19 20 21 18 20 22 22 20 18 17 18 18 21 23 22 22 23 23 24 24 25
22 23 23 23 21 19 18 18 19 20 21 20 18 16 16 15 15 16 17 17 17 18 17 16 15 14 13 13 12 11 9 11 13 14 16 18 20 20 18 20 22 25 28 31
27 28 25 22 19 17 18 19 19 21 22 21 20 21 20 22 23 23 22 21 20 19 18 16 16 15 14 14 13 13 14 16 16 18 20 21 21 20 20 20 25 26 28 33
28 29 25 21 17 17 16 19 20 20 25 22 21 22 26 26 27 27 24 20 22 21 19 18 17 18 19 17 17 18 19 20 22 23 23 23 24 24 25 26 30 33 34 37
29 26 23 21 20 17 16 19 21 22 23 24 23 29 24 24 21 22 21 22 22 21 19 20 20 21 21 21 22 22 22 22 24 25 25 26 27 29 30 32 34 36 40 42
29 27 25 23 21 19 16 15 18 23 25 29 31 29 22 20 20 20 19 20 21 20 21 21 21 22 23 23 23 23 23 24 25 26 28 29 31 33 33 35 37 40 42 45
30 28 25 24 22 21 20 16 17 24 29 31 31 27 24 19 19 19 18 19 20 21 21 22 22 24 24 25 26 27 27 27 26 28 30 33 35 35 35 37 40 43 46 50
33 30 27 27 25 24 22 23 20 21 25 28 27 23 20 18 18 19 19 20 21 23 23 24 26 26 25 26 26 27 27 27 30 32 35 36 37 38 39 42 45 47 51 55
36 33 30 29 27 25 24 23 19 17 22 24 24 22 21 19 19 20 21 22 22 22 23 25 26 27 26 25 25 26 28 31 33 34 37 38 40 41 43 46 48 51 55 58
42 38 35 33 31 29 27 26 24 20 19 21 23 24 24 22 22 21 20 22 23 23 24 25 26 27 28 27 28 30 33 35 36 37 38 40 42 44 47 50 52 56 58 61
47 42 39 37 35 34 31 30 26 24 19 22 25 27 26 24 23 22 23 23 25 25 26 27 28 29 29 29 31 34 36 36 37 39 41 44 46 48 51 53 56 58 61 64
52 48 45 41 39 38 35 33 31 28 26 24 22 25 28 27 27 24 24 25 28 29 28 29 30 31 33 34 34 35 36 38 40 41 44 46 49 51 53 56 59 60 63 67
52 52 50 46 43 42 38 36 35 34 31 28 27 24 25 28 30 30 29 29 30 31 33 35 36 36 35 35 37 40 40 41 41 44 47 50 53 56 57 58 60 62 66 69
48 47 48 48 47 45 42 39 38 38 36 34 31 30 29 28 32 34 35 36 35 35 36 37 40 41 40 41 42 41 41 42 45 48 50 53 57 58 59 61 63 66 70 73
52 48 47 48 50 49 47 44 43 42 41 39 38 37 35 36 34 34 37 42 43 43 42 40 40 41 43 43 44 45 46 48 50 52 54 58 61 62 63 64 68 72 74 76
54 52 49 51 52 52 51 49 47 47 47 46 45 44 42 41 40 38 40 42 45 47 47 47 46 45 45 47 48 49 50 52 54 55 58 62 64 66 67 70 74 76 78 73
51 56 55 53 52 53 54 53 53 52 52 51 50 49 48 47 45 46 47 47 49 48 50 52 53 53 53 53 52 52 52 53 55 58 61 64 66 68 72 74 75 74 69 58
44 51 56 57 57 57 56 55 54 54 54 54 54 53 53 50 51 54 55 56 56 53 53 54 55 56 57 58 58 57 57 56 58 60 63 65 68 72 73 74 72 63 55 54
39 43 47 54 58 60 60 59 59 58 58 59 59 59 58 59 59 60 60 59 58 58 56 57 57 58 59 60 59 59 59 60 62 64 66 69 70 73 72 63 60 56 55 59

GFSNGP_250_spd_066.txt.gz
Wind_Speed
33 37 36 37 40 40 42 43 41 51 55 58 57 56 55 56 58 60 60 61 61 61 62 62 65 65 65 64 65 66 65 63 63 68 68 76 86 82 80 79 81 81 81 80
31 34 38 40 41 40 39 37 37 41 50 58 58 59 59 57 56 57 58 59 59 60 58 59 59 58 57 57 54 51 51 51 50 51 52 54 50 45 45 41 46 48 48 52
29 31 37 38 39 38 36 33 34 33 37 44 50 55 54 56 55 56 56 55 54 53 52 52 51 49 45 43 46 42 42 39 38 38 43 39 30 29 28 26 27 31 33 33
27 29 33 38 40 40 39 40 37 34 35 37 39 40 43 46 49 51 50 49 47 43 43 43 42 39 40 40 40 34 33 32 31 30 30 26 29 28 30 31 26 19 17 14
20 25 29 32 37 40 40 40 40 40 39 40 41 42 44 44 45 41 37 36 36 35 35 36 36 35 34 33 31 29 29 28 29 31 28 23 20 23 23 23 25 28 27 28
20 21 23 27 30 31 31 33 34 33 33 32 33 33 33 32 31 28 28 28 28 31 33 34 35 33 30 30 30 26 27 27 27 29 28 21 20 20 21 24 25 25 24 23
16 19 22 24 26 27 27 30 28 29 30 29 29 27 25 25 25 24 24 24 29 31 32 31 30 29 28 28 27 28 29 30 29 27 25 21 21 20 20 20 20 21 23 24
14 16 18 20 22 24 25 24 25 25 24 25 24 24 23 22 21 21 24 26 23 23 22 21 19 22 24 25 28 30 34 33 32 30 24 21 19 19 21 21 21 21 22 23
17 18 19 20 22 23 24 25 25 25 24 24 22 20 19 17 18 19 19 18 20 18 17 19 19 20 22 24 24 26 29 30 29 25 23 22 23 23 23 21 21 22 24 25
19 20 22 23 24 25 25 25 23 24 21 21 20 22 21 19 17 17 17 17 17 17 18 20 22 22 22 21 22 23 19 20 21 23 23 24 25 24 24 25 27 27 28 30
22 24 26 26 27 27 27 24 23 21 21 23 22 24 23 22 20 20 21 23 21 21 21 22 22 22 22 22 23 22 22 23 23 24 25 26 26 26 26 29 31 32 34 36
23 28 28 29 30 28 24 20 18 18 21 22 23 24 25 25 24 26 28 27 27 27 25 24 23 23 25 25 25 26 27 27 26 26 27 27 28 28 30 32 34 36 37 39
26 30 31 33 30 24 21 19 19 19 21 21 23 25 24 25 27 29 30 26 27 27 27 25 24 24 26 27 27 27 28 28 27 28 28 29 29 30 32 35 37 39 41 41
31 33 34 31 28 24 21 21 19 18 20 22 23 24 25 27 28 25 24 22 24 25 25 26 26 24 26 27 27 27 28 28 28 29 29 29 30 32 35 38 40 42 43 46
35 34 34 32 28 26 24 22 20 20 20 22 23 24 27 30 30 23 21 23 24 25 26 27 26 25 26 27 27 26 27 26 27 28 29 31 33 35 37 41 43 45 46 49
38 36 35 33 30 27 26 24 22 20 17 21 25 27 32 32 27 23 21 22 24 24 23 25 25 27 29 29 30 30 30 31 30 29 31 32 34 38 41 44 46 48 51 53
41 39 37 35 33 30 28 25 22 20 19 19 24 28 31 28 24 25 23 21 22 23 24 27 27 28 30 30 30 30 31 31 30 31 33 36 39 41 44 47 49 49 51 54
45 42 40 37 35 33 30 27 25 24 23 20 19 22 24 25 24 25 26 26 25 25 26 26 28 29 30 30 29 27 27 29 31 32 36 40 42 45 48 48 48 50 53 56
49 46 44 41 38 36 34 31 28 27 27 26 23 21 22 22 26 28 28 27 26 28 28 29 30 30 32 32 32 33 34 35 35 37 40 43 46 48 48 48 51 54 56 59
52 51 48 46 43 40 37 35 33 31 29 29 27 25 22 22 25 30 31 29 30 30 30 29 29 31 34 35 36 37 38 39 41 43 45 48 49 48 50 53 55 58 61 63
57 53 53 50 47 44 42 40 39 36 34 32 33 31 30 29 26 24 28 32 32 34 33 34 34 34 35 36 37 40 43 46 48 49 50 50 51 52 55 58 60 61 63 66
55 56 58 55 53 51 48 45 43 42 39 37 36 37 36 34 32 32 30 29 31 34 38 38 40 42 43 43 42 43 43 43 45 47 49 50 51 53 56 59 61 63 66 69
51 56 55 56 57 56 53 51 49 47 45 43 41 40 41 40 39 38 38 37 37 37 37 39 40 41 43 46 48 48 49 50 51 51 52 53 56 59 61 62 64 66 70 72
47 50 56 56 53 54 56 56 53 52 51 49 47 46 45 45 46 46 45 44 45 43 44 44 44 44 46 48 50 51 52 53 54 55 57 59 61 62 63 64 67 70 72 74
41 46 50 54 56 55 53 54 55 55 55 54 53 52 52 51 51 51 51 51 50 50 50 50 51 52 53 55 57 58 58 58 58 59 59 62 62 62 63 65 68 71 73 69
39 41 44 49 54 56 56 55 56 57 57 57 57 57 56 56 56 57 57 56 56 56 56 55 55 57 59 62 62 60 60 60 61 60 59 60 60 62 65 68 70 72 69 63
36 39 41 44 50 54 57 58 57 57 59 59 60 60 60 60 60 60 60 60 60 60 59 59 63 65 66 66 62 60 60 61 60 59 61 61 62 64 67 69 69 65 60 60

GFSNGP_250_spd_069.txt.gz
Wind_Speed
28 28 31 31 33 35 39 42 45 47 50 55 61 65 66 68 69 78 82 82 83 83 85 86 89 92 92 88 82 79 77 74 74 75 74 74 73 70 71 74 79 75 69 60
27 30 32 33 34 33 33 36 40 42 46 51 58 60 61 63 65 66 68 72 75 76 77 77 77 74 71 71 71 70 71 68 67 65 63 60 59 59 57 54 54 45 37 34
28 30 31 34 34 34 34 34 34 38 42 52 53 56 62 65 64 62 61 63 64 63 61 64 66 66 64 64 62 62 60 58 57 54 52 53 49 47 46 46 40 35 29 25
25 28 31 32 34 34 35 36 36 36 40 45 50 55 57 59 60 60 58 59 59 60 64 64 62 60 58 56 55 53 51 49 48 45 46 47 42 40 38 36 30 29 26 25
23 25 27 30 32 35 37 36 33 33 34 35 37 42 52 58 58 60 61 61 62 60 60 57 54 56 52 48 44 43 43 43 40 40 40 40 38 39 36 34 34 34 29 27
21 21 27 27 29 31 32 33 36 37 36 34 31 30 34 38 43 43 44 46 47 47 46 48 46 41 39 40 39 38 40 39 38 38 38 37 39 40 36 34 35 33 31 29
23 21 22 26 28 31 35 40 40 40 41 41 39 39 39 39 41 43 44 43 42 40 38 35 34 36 37 38 39 39 37 36 35 36 37 38 38 37 36 35 35 33 30 29
21 22 24 25 27 29 32 35 35 36 38 38 36 35 34 33 33 33 32 30 29 29 30 32 32 33 33 34 32 32 32 33 35 36 38 35 34 32 33 35 36 34 32 32
16 19 20 24 25 26 28 29 30 30 30 31 30 29 26 25 25 25 26 26 25 27 30 28 25 24 25 25 26 28 31 33 35 35 35 31 28 30 34 36 36 35 34 35
21 20 20 19 21 24 25 25 25 25 25 25 25 26 26 26 26 25 23 23 24 24 24 24 23 23 25 26 28 29 31 32 31 30 29 28 30 33 34 36 36 36 36 38
21 22 22 23 23 24 25 26 26 27 28 28 28 28 27 27 24 22 24 25 27 28 26 25 25 25 26 28 29 31 31 31 30 30 30 30 32 34 36 36 37 36 37 40
25 25 24 26 27 28 29 29 30 30 30 29 28 28 26 28 27 28 27 27 28 29 31 30 28 28 29 29 29 30 31 31 32 32 32 33 35 36 37 36 36 37 39 41
28 27 28 30 31 31 32 33 32 32 30 29 28 29 28 28 30 29 29 30 30 34 32 32 31 29 29 29 30 31 32 32 31 31 32 34 34 35 35 36 37 39 41 43
32 29 29 31 32 33 35 34 30 28 28 27 28 27 27 27 27 26 28 30 32 30 27 28 28 28 29 28 28 29 30 29 30 31 31 32 34 36 36 37 38 40 43 46
35 31 32 32 34 37 37 33 29 26 28 28 27 27 26 25 26 26 27 30 25 24 24 26 27 27 27 28 30 30 30 32 32 33 34 35 36 35 35 37 40 43 45 48
38 33 34 34 38 39 36 32 29 26 24 24 24 25 26 26 27 28 27 28 23 23 24 25 26 26 27 29 31 31 32 33 33 33 34 35 35 36 36 39 42 45 48 51
41 37 36 38 41 40 37 34 30 28 26 24 22 22 23 26 28 29 31 27 25 24 23 24 26 27 28 28 29 31 32 32 32 31 32 32 34 38 40 43 46 50 52 54
45 41 41 43 43 42 39 36 33 32 30 27 26 24 22 24 27 32 31 26 26 25 26 26 25 25 26 27 27 29 30 31 32 34 36 38 41 43 45 47 51 54 56 57
50 45 47 47 46 44 41 39 37 35 33 31 29 26 24 23 24 28 29 28 27 28 28 28 28 29 29 29 30 30 31 32 35 37 39 41 44 46 50 52 54 56 57 56
52 49 50 51 49 47 45 43 41 38 35 33 30 29 28 27 25 25 24 25 28 31 33 32 32 33 32 33 34 34 34 36 38 40 42 42 42 43 45 47 52 54 55 58
55 53 52 54 53 51 49 47 44 42 39 37 35 32 31 32 31 29 28 27 28 29 30 33 35 35 36 37 39 41 41 41 44 45 45 46 48 50 52 55 58 59 59 61
55 55 54 56 57 56 53 51 49 46 43 41 40 38 36 34 35 35 35 34 34 34 34 33 33 35 37 38 39 41 42 42 43 44 45 48 51 53 55 56 56 58 62 64
52 56 57 56 57 59 57 55 53 51 48 46 45 44 43 41 40 40 41 41 42 41 41 41 42 42 43 43 45 45 46 48 49 50 51 53 56 57 57 57 58 62 62 64
47 52 56 58 58 57 59 58 56 56 55 53 52 51 49 47 47 47 46 46 47 47 48 48 48 49 49 50 51 52 53 55 57 57 59 61 61 60 59 59 62 62 63 65
44 47 49 53 58 61 60 58 58 61 60 58 57 56 55 54 53 53 52 52 52 52 52 52 53 53 55 55 56 57 58 59 59 61 64 65 65 62 60 60 60 62 64 67
40 43 46 49 51 55 59 62 61 59 60 62 62 61 60 59 58 58 58 58 58 57 58 58 58 59 60 60 60 60 62 63 64 67 69 70 66 64 61 60 61 63 67 71
34 37 39 43 46 48 52 56 58 62 62 61 60 60 60 61 61 61 62 63 63 63 63 63 63 63 62 62 63 65 66 67 69 72 73 69 66 63 60 60 64 68 71 71

GFSNGP_250_spd_072.txt.gz
Wind_Speed
23 24 26 28 30 32 34 35 36 41 45 49 53 59 64 69 76 81 83 83 78 79 79 78 73 74 76 76 79 80 81 82 83 84 86 92 100 99 87 81 80 74 69 66
26 28 29 29 31 32 32 34 38 38 40 44 49 54 59 63 67 71 77 83 83 80 73 73 69 72 76 77 76 78 83 85 89 93 97 91 83 77 72 70 67 64 59 54
26 27 29 31 33 34 36 37 38 41 43 45 48 50 52 56 60 63 67 74 79 82 82 85 83 82 82 83 83 83 86 88 86 79 75 71 68 64 63 62 59 52 51 52
25 26 29 31 33 34 36 37 40 39 44 47 48 50 51 53 56 58 63 66 66 67 69 71 75 81 83 84 83 80 75 72 69 69 66 62 58 57 56 55 51 45 45 46
24 26 27 29 32 36 37 38 38 39 41 45 46 47 51 53 55 54 56 60 63 63 64 62 63 65 65 63 62 64 67 67 65 61 55 52 51 51 51 51 48 45 43 42
22 24 26 26 29 31 34 35 38 40 42 43 45 47 49 52 51 52 56 58 61 64 63 62 60 58 59 61 63 68 64 60 52 49 49 49 49 49 49 48 46 45 44 41
21 22 22 23 27 29 31 36 36 36 38 38 40 41 43 45 47 49 55 55 53 55 58 58 60 61 64 61 55 52 48 46 46 46 47 47 46 45 45 45 45 44 42 41
24 23 23 21 24 27 29 32 33 34 36 37 37 37 36 35 35 37 40 46 52 56 58 55 52 49 47 43 41 43 44 44 44 43 42 41 42 42 43 40 38 38 39 41
22 26 24 24 23 25 27 29 32 35 37 37 38 39 39 37 36 38 40 41 42 43 43 42 39 35 34 36 36 35 35 35 35 36 37 39 40 39 37 33 34 37 39 42
19 19 22 25 26 27 29 30 31 33 35 35 37 38 38 37 35 34 35 34 33 31 29 30 31 32 32 31 31 31 32 33 33 35 36 36 35 34 34 35 37 39 41 42
20 19 18 20 23 25 28 29 30 31 32 32 32 31 31 30 29 28 26 26 25 26 27 28 29 28 29 30 30 30 31 32 32 34 33 34 34 35 37 38 40 42 42 42
23 22 20 21 19 19 21 23 26 28 29 29 28 27 26 26 25 25 25 25 26 27 29 29 30 32 33 34 34 33 32 31 32 32 33 34 35 35 35 37 39 40 42 43
29 27 25 24 24 23 22 22 22 24 26 26 27 27 28 27 27 28 29 28 28 29 29 31 35 38 40 39 38 34 31 32 31 32 33 35 34 34 34 37 39 41 43 43
36 33 31 31 30 29 30 29 29 29 30 30 30 30 30 31 31 30 31 30 29 30 34 37 38 35 33 32 31 31 32 32 31 31 31 32 34 35 36 38 41 42 42 43
42 39 37 36 33 33 34 35 34 34 34 34 33 33 32 33 34 30 30 29 29 33 35 37 32 30 28 27 28 29 30 30 30 31 32 33 35 36 36 39 41 41 43 46
46 43 42 40 38 35 35 36 35 36 36 38 35 34 33 34 33 31 31 30 31 32 31 26 24 25 26 27 27 28 29 30 30 31 32 33 34 35 36 38 39 42 46 47
49 50 46 44 40 37 35 36 38 39 38 37 35 34 34 33 33 32 32 31 31 29 28 28 24 24 25 26 27 28 29 28 29 29 30 31 31 33 35 38 40 43 46 49
51 50 50 49 43 40 36 37 42 42 40 37 33 33 32 29 28 30 32 32 32 31 29 28 27 25 27 27 27 27 28 29 30 30 31 31 32 33 35 39 42 45 47 50
47 53 49 49 46 42 38 40 46 44 41 38 36 35 32 31 29 27 27 29 30 31 27 29 29 27 27 28 29 29 29 30 30 32 33 34 36 39 42 46 48 48 50 53
45 48 53 49 47 44 41 44 48 46 43 40 39 37 35 32 30 30 29 29 27 26 25 27 28 29 31 32 32 34 35 36 37 36 38 40 42 43 42 43 44 49 53 57
44 45 52 53 49 47 43 47 50 48 45 43 40 39 38 36 34 33 33 32 29 28 28 28 29 29 29 31 33 35 37 38 38 39 39 39 42 44 47 49 52 55 57 61
39 43 51 55 51 50 48 50 52 51 49 46 44 43 41 40 39 37 37 36 33 34 35 34 34 34 34 34 36 38 39 41 42 44 45 46 48 50 51 54 56 58 61 66
35 39 49 54 53 51 50 50 53 53 52 50 49 48 46 45 44 43 42 41 39 39 39 40 40 40 40 42 44 46 46 46 48 50 52 54 56 57 56 58 60 62 66 68
31 34 45 51 52 50 52 50 52 55 56 55 53 52 51 50 49 49 48 47 47 46 46 45 45 46 47 49 50 50 51 51 53 55 57 59 60 59 59 62 64 67 69 67
30 33 40 48 53 53 51 53 53 54 58 58 58 57 56 56 55 54 53 52 52 52 51 52 52 53 54 55 55 56 56 57 58 60 62 63 64 64 65 67 69 70 68 66
29 32 35 40 47 52 54 55 56 57 59 60 61 61 60 59 59 59 58 59 59 58 58 58 59 59 60 60 61 62 63 64 64 65 66 67 68 69 70 72 70 67 66 65
28 30 33 36 39 43 47 52 57 60 60 60 61 62 63 63 63 63 63 64 64 64 64 63 63 63 64 64 65 66 67 68 69 70 70 71 71 72 72 71 68 67 65 63

GFSNGP_250_spd_075.txt.gz
Wind_Speed
20 22 23 26 28 29 31 30 32 37 40 43 48 53 57 62 67 70 74 78 82 84 86 87 88 90 92 92 93 91 92 93 89 89 87 86 89 88 83 86 88 89 93 100
22 26 27 27 28 30 31 33 35 37 39 42 46 51 55 58 63 66 69 72 77 79 80 80 82 82 83 82 76 78 78 71 76 78 78 81 79 81 84 87 89 94 99 83
23 25 29 31 31 31 32 33 33 34 37 39 44 49 52 55 59 62 65 67 71 76 78 76 76 75 77 72 71 70 71 72 72 73 73 77 81 81 87 92 98 86 80 74
22 25 26 29 34 36 37 36 37 38 38 40 43 47 49 51 54 57 60 63 66 70 78 78 74 76 70 64 61 61 65 66 68 73 77 80 87 92 93 81 77 75 68 63
23 24 26 27 29 33 39 41 42 40 41 43 41 41 44 48 51 52 56 59 62 65 69 72 75 77 72 73 73 74 77 81 82 84 86 83 76 73 73 74 69 62 59 59
24 26 27 25 27 30 32 37 41 43 44 44 42 43 42 43 45 46 48 50 53 54 56 60 63 70 73 77 78 75 70 68 68 67 66 67 69 71 64 59 58 58 57 53
22 25 24 26 28 30 32 36 38 41 43 44 43 44 46 47 48 49 50 50 50 50 51 54 56 60 61 62 59 59 59 61 62 63 65 67 61 55 55 56 56 55 48 45
23 23 23 25 27 28 31 32 35 39 41 42 44 45 46 48 48 47 47 47 47 49 51 52 53 52 52 54 59 58 60 58 64 63 57 50 51 53 52 51 47 43 41 40
23 24 25 26 26 26 30 31 34 36 39 38 39 40 40 40 40 40 42 43 44 45 49 54 53 50 52 53 56 59 57 55 51 45 46 47 45 42 42 41 40 38 37 37
20 20 23 27 28 27 27 30 31 34 36 37 38 38 38 39 38 37 38 37 37 38 39 41 46 51 53 51 51 48 43 41 40 40 41 40 38 37 36 35 35 36 38 41
20 20 21 24 25 26 27 28 30 31 33 35 36 36 36 38 40 40 39 38 39 41 42 43 43 42 39 37 36 37 38 38 38 38 36 36 36 36 36 35 36 38 41 42
25 24 22 20 20 25 27 28 28 29 32 34 36 37 38 38 38 38 38 39 37 36 34 33 31 31 32 33 34 35 36 37 37 37 38 38 36 37 37 37 38 40 41 43
30 27 26 23 21 20 21 22 25 28 30 32 32 33 33 33 33 32 33 32 31 29 29 30 31 32 32 33 35 37 38 40 42 41 40 39 36 36 36 36 36 38 41 43
34 33 32 29 26 24 22 19 18 19 22 26 28 30 31 31 31 31 30 29 29 30 30 31 30 29 32 37 38 39 39 40 39 38 39 39 37 35 34 35 38 41 42 42
36 38 37 34 31 30 29 27 25 23 23 23 25 26 27 29 30 30 30 31 31 32 30 29 29 32 37 40 39 35 33 33 34 36 36 35 35 35 36 38 39 39 40 40
41 43 44 41 38 34 33 32 31 30 30 31 31 32 32 32 33 32 33 33 32 31 31 32 33 34 35 36 33 31 32 34 34 34 34 34 34 35 35 36 37 37 37 38
40 43 46 46 45 42 39 37 36 33 33 35 36 36 35 35 35 33 33 35 35 34 34 33 34 35 33 31 28 27 29 30 32 33 34 33 34 35 35 36 36 36 37 41
42 41 43 48 49 49 45 42 39 38 36 36 39 39 38 38 37 36 35 37 37 36 36 35 36 35 32 31 31 30 29 28 29 30 31 32 33 34 35 35 38 39 42 43
39 43 43 44 48 50 50 47 44 40 38 37 39 42 42 40 38 37 36 37 36 36 34 35 36 35 33 32 31 32 31 30 30 32 33 34 36 37 37 39 40 41 42 45
37 40 43 46 46 46 49 50 49 44 40 38 41 45 44 40 38 37 35 37 34 31 30 31 32 33 32 31 32 32 31 31 33 36 37 37 36 35 36 39 42 44 47 50
38 40 43 45 47 47 45 48 47 46 43 39 42 48 45 41 40 39 38 37 34 34 33 32 33 31 30 30 31 32 31 32 33 35 37 38 40 40 40 44 47 49 51 54
36 38 41 44 46 48 46 47 49 47 45 40 42 49 47 44 43 43 42 40 36 37 36 34 35 34 33 34 36 37 37 37 39 41 43 46 47 47 49 50 51 52 55 58
32 34 36 39 41 45 48 47 49 49 47 43 43 49 50 47 46 46 45 44 41 41 41 40 39 39 39 39 41 42 42 43 44 46 48 50 52 54 55 57 58 60 63 65
28 29 30 32 35 40 46 49 48 48 48 45 44 48 53 52 50 49 48 47 46 46 47 47 47 46 46 46 46 47 48 49 51 53 55 56 58 59 61 62 64 66 67 69
26 26 28 29 30 35 41 45 47 48 48 48 47 47 52 56 56 54 53 52 51 51 52 52 53 53 53 53 53 53 54 56 57 58 59 61 62 63 66 67 68 70 71 72
26 25 25 26 28 30 35 40 45 48 48 49 49 49 50 53 56 57 57 57 57 57 58 58 59 59 59 59 59 60 60 60 61 63 64 66 67 68 69 70 71 72 73 75
26 26 28 29 30 31 33 37 43 46 49 50 51 53 53 53 55 57 60 61 62 62 62 62 63 63 63 64 64 65 65 66 67 67 67 68 69 70 72 73 73 74 76 76

GFSNGP_250_spd_078.txt.gz
Wind_Speed
23 27 30 31 30 29 32 34 35 40 42 44 45 49 53 58 63 66 69 72 75 78 80 81 82 83 86 89 91 94 97 99 101 103 105 104 106 103 103 100 90 85 82 81
25 26 26 28 29 30 29 31 34 34 36 39 40 43 49 52 56 60 62 67 70 71 72 74 74 75 76 80 82 85 88 89 88 90 92 88 85 82 76 74 74 75 77 79
27 30 31 31 30 30 30 32 32 34 35 34 37 42 45 50 53 55 58 62 65 68 68 69 70 71 73 74 75 76 77 77 75 75 72 72 69 68 68 69 72 75 78 82
25 28 31 32 33 34 34 34 35 35 34 35 38 40 43 46 50 53 56 59 60 62 63 65 66 68 70 71 70 71 71 67 69 64 63 66 63 63 66 70 75 76 79 86
27 28 30 31 32 33 38 38 39 38 36 37 38 41 42 44 46 49 51 53 55 57 60 62 63 64 65 66 67 63 63 59 60 59 57 60 62 67 71 73 77 82 89 80
26 26 27 28 29 32 32 35 39 41 41 41 39 39 40 43 45 47 48 50 52 54 57 58 61 65 65 66 67 68 64 62 60 63 66 65 67 72 76 83 81 73 71 73
26 26 26 28 31 32 33 35 36 38 40 41 42 41 41 41 43 43 44 46 46 48 51 54 56 58 60 64 69 71 70 70 74 70 70 74 81 81 70 67 68 67 66 59
26 26 28 29 29 31 32 33 36 39 41 42 42 42 43 42 41 42 43 44 43 42 42 42 43 45 48 51 54 55 57 60 63 65 66 65 59 59 63 62 59 53 54 53
27 28 27 27 28 31 31 32 33 34 38 41 39 40 40 43 42 43 45 44 44 44 45 44 44 45 46 47 48 47 48 51 51 52 54 58 57 59 55 48 48 47 46 43
24 25 27 29 28 29 29 30 30 33 34 37 40 40 40 43 44 42 44 45 44 43 43 44 44 46 47 49 51 51 51 49 50 51 55 54 50 44 44 42 41 42 41 40
23 25 26 25 28 29 30 29 29 31 33 35 37 40 42 42 41 40 43 41 40 39 40 40 41 41 42 44 46 47 48 51 52 50 45 41 41 41 40 40 41 41 41 42
26 25 24 23 25 28 30 30 30 29 31 32 34 37 40 40 39 38 38 37 39 38 38 38 39 40 41 42 42 42 43 42 40 39 40 41 40 40 40 42 43 44 43 42
28 26 27 27 24 23 25 29 30 29 29 31 32 33 35 36 37 37 38 40 41 41 41 42 41 41 41 40 39 37 36 37 38 40 40 40 41 43 47 46 45 44 42 42
29 31 29 28 26 25 22 21 23 26 29 31 32 32 35 37 38 40 40 40 41 41 41 39 37 35 33 33 33 34 36 39 40 40 41 44 45 46 43 42 43 42 43 43
32 33 33 31 30 28 26 23 21 20 19 22 27 29 30 33 35 36 36 36 35 34 33 32 33 34 33 33 33 34 37 39 41 41 41 39 39 39 39 40 40 40 41 41
32 35 35 35 34 33 32 30 27 25 24 22 21 21 22 24 27 29 31 30 30 31 33 33 33 33 32 32 32 35 37 39 40 37 35 35 36 36 37 38 38 38 38 38
34 36 38 39 39 37 37 36 34 31 29 28 27 27 26 26 27 27 29 31 33 35 36 35 34 35 34 35 35 37 38 39 37 34 33 34 34 35 35 34 35 36 37 38
37 36 37 39 39 39 41 40 40 38 35 33 32 31 31 33 34 34 34 35 37 37 36 36 36 35 36 37 37 37 38 39 37 35 34 34 33 34 34 35 36 37 38 38
35 38 38 38 39 39 42 45 45 44 43 40 38 36 34 32 35 38 39 38 40 39 36 37 38 39 39 39 39 40 39 38 38 35 34 34 35 36 37 38 38 36 36 38
34 37 40 41 41 41 43 44 46 48 48 47 44 42 40 36 35 39 41 43 42 41 37 37 39 40 40 40 39 39 39 35 36 36 36 36 36 35 35 35 36 37 39 41
36 36 37 40 42 42 42 43 44 45 48 50 49 47 43 40 38 39 42 46 43 41 40 40 41 41 39 38 37 38 38 36 34 35 36 37 37 39 40 41 41 42 45 47
36 36 36 38 40 42 44 45 45 45 46 49 51 49 46 44 41 40 44 46 43 44 43 42 42 40 39 39 39 38 38 38 37 38 39 40 43 45 47 48 49 51 52 54
34 35 35 36 38 40 41 44 46 46 46 47 50 50 47 44 43 41 45 48 46 47 46 45 44 43 42 42 43 43 43 42 42 43 44 45 47 49 51 54 56 57 58 60
33 34 34 34 35 36 38 40 42 45 47 48 48 50 49 45 43 42 45 50 50 49 49 48 48 48 47 48 48 48 47 47 48 49 51 52 54 56 57 58 60 62 63 65
31 32 32 32 32 32 33 34 37 39 43 46 48 47 49 48 45 43 45 51 53 52 52 52 52 52 52 53 53 53 54 54 54 55 57 58 60 61 63 64 66 68 69 70
30 30 30 30 31 32 31 32 34 35 38 42 46 46 48 49 49 48 47 50 54 57 57 57 57 57 57 57 58 58 58 59 59 61 62 63 64 65 66 68 69 70 70 71
29 30 31 31 31 32 33 33 34 35 36 38 42 45 47 50 50 50 50 50 52 56 60 62 63 63 62 62 63 63 64 64 64 65 65 67 68 69 70 71 73 74 73 72

GFSNGP_250_spd_081.txt.gz
Wind_Speed
25 26 27 27 32 36 37 42 39 45 47 52 52 52 54 58 61 64 67 72 75 76 79 81 84 84 84 84 84 87 90 91 93 94 95 96 97 98 97 96 97 94 94 96
25 25 27 30 31 31 30 33 37 41 45 46 47 46 47 49 52 55 59 62 65 70 75 76 75 77 79 80 81 82 83 83 84 85 86 87 88 88 89 88 90 90 86 81
28 29 30 32 33 31 32 32 36 38 42 39 42 42 42 45 47 51 55 57 62 63 67 71 71 72 73 74 74 75 75 74 74 75 75 76 77 79 79 77 74 74 71 69
28 31 33 34 34 34 34 35 36 39 38 37 39 39 40 42 43 44 49 54 56 59 60 62 65 67 67 68 70 69 67 67 67 66 67 68 67 67 70 69 66 65 66 65
26 27 29 33 34 35 37 37 38 39 39 38 39 40 40 42 42 44 45 49 51 55 59 60 60 62 63 64 65 64 63 64 65 65 66 64 65 63 63 60 59 60 57 60
26 28 29 31 33 33 35 35 38 39 39 38 39 40 40 40 43 43 44 46 49 52 55 58 59 59 59 60 61 61 63 64 66 66 64 63 59 56 54 55 53 56 61 67
26 28 30 30 32 32 33 33 34 34 35 34 37 38 38 40 41 42 44 44 45 46 48 51 51 53 55 57 57 58 58 58 57 57 55 54 54 54 55 55 59 63 66 69
27 29 28 29 31 31 33 35 35 36 36 35 35 36 35 38 37 38 40 40 42 43 44 46 47 49 51 53 54 55 57 58 56 57 59 59 62 60 64 65 72 76 67 61
24 26 27 28 30 31 31 32 33 34 35 35 37 36 36 35 34 37 37 36 38 40 40 40 41 41 43 44 46 49 53 55 58 61 63 61 58 56 61 61 56 57 59 61
25 25 26 26 27 27 28 31 32 33 33 35 37 38 38 37 39 38 37 39 37 38 38 38 37 37 36 37 37 38 40 42 43 44 45 45 47 49 51 53 53 57 51 46
24 25 26 27 29 30 30 29 30 32 32 33 35 37 38 39 39 39 38 38 41 40 39 40 40 41 41 42 42 44 45 47 47 47 49 50 50 51 52 54 51 44 43 44
25 24 21 23 24 25 27 29 31 31 31 30 32 34 36 37 39 39 38 39 39 38 39 40 39 40 41 41 42 44 44 43 43 44 44 45 46 48 46 42 40 42 43 44
27 25 22 21 21 22 22 24 28 31 30 29 28 31 32 35 36 38 38 39 39 38 36 36 36 35 34 34 34 35 35 37 39 41 43 45 41 39 39 41 41 43 46 48
28 27 25 24 23 22 22 21 20 24 29 30 30 29 31 32 35 37 38 39 39 39 38 38 39 39 39 40 40 40 40 41 41 39 37 36 38 40 41 43 46 48 48 47
30 29 30 28 27 25 25 24 23 21 21 24 28 31 32 32 33 34 36 37 38 39 39 40 41 42 42 43 43 42 39 35 33 33 36 38 39 41 44 45 43 42 40 39
30 30 31 32 31 29 28 26 27 26 24 22 21 23 27 30 32 33 34 35 37 39 41 42 42 40 38 38 37 34 32 34 36 37 38 38 39 39 35 35 36 36 37 38
33 33 34 35 34 34 33 32 31 32 31 29 27 26 24 23 23 25 28 31 34 36 37 38 37 36 34 33 33 33 34 36 37 38 40 39 40 37 35 34 34 35 35 36
34 35 35 36 36 35 36 37 37 35 35 35 34 32 31 30 28 27 26 28 30 30 30 31 31 33 34 35 35 36 36 37 39 40 40 39 39 38 36 35 34 36 37 39
34 35 36 37 39 39 38 38 39 40 41 40 40 38 36 35 33 32 33 35 35 35 32 33 35 38 40 38 38 37 38 40 41 42 40 40 40 39 37 37 38 39 40 39
34 36 38 38 39 40 40 40 40 41 43 45 46 45 44 41 39 37 37 36 35 38 39 39 41 42 42 42 41 42 41 41 42 42 42 42 40 40 39 38 38 38 37 38
34 35 37 39 40 40 40 39 40 41 43 46 48 49 50 48 47 44 43 42 37 38 41 42 44 46 44 43 42 43 44 44 43 43 43 41 40 38 38 38 39 40 41 42
35 36 37 38 38 39 41 41 41 41 43 45 46 47 49 51 52 51 48 46 43 42 41 44 45 47 47 46 45 44 44 43 43 43 43 41 40 40 40 41 42 45 46 49
34 35 36 37 37 38 40 41 43 44 43 44 44 46 47 49 52 53 53 51 49 47 45 44 47 49 49 48 47 46 46 46 45 45 46 45 44 44 45 46 48 50 53 54
33 34 36 36 36 36 37 39 41 42 43 44 45 47 48 48 51 52 53 53 52 51 50 48 47 51 52 51 50 49 49 49 48 48 48 49 49 50 51 53 54 56 58 60
32 33 34 35 35 36 37 37 37 38 39 41 44 46 47 48 49 49 50 52 52 52 52 51 49 51 54 54 53 52 52 53 53 54 55 55 55 55 57 58 60 61 63 65
29 31 33 34 34 34 35 35 35 36 37 38 39 40 43 45 46 48 50 51 53 54 54 53 51 52 55 57 57 57 57 57 58 58 58 59 60 60 62 62 63 65 67 68
30 30 31 33 34 33 33 34 35 35 36 37 37 37 38 39 42 45 48 50 52 55 56 55 53 53 55 59 60 60 60 60 61 62 63 63 65 66 66 67 68 69 71 71

GFSNGP_250_spd_084.txt.gz
Wind_Speed
23 26 30 36 36 36 37 43 42 47 42 50 53 56 58 61 60 64 69 73 76 78 78 77 77 79 84 89 92 95 96 96 95 95 95 95 95 94 94 94 93 92 92 90
26 28 28 29 31 35 40 41 41 46 45 51 52 51 55 54 56 57 62 68 70 71 71 73 73 74 76 80 83 85 88 90 91 92 92 91 89 87 86 86 84 82 84 85
22 25 27 30 34 32 35 39 42 40 49 45 49 49 47 48 51 52 56 61 64 65 65 67 68 68 71 74 75 77 79 80 81 81 80 79 79 79 78 77 79 79 79 79
18 22 27 33 33 35 35 37 38 43 45 46 44 39 40 44 45 46 47 49 50 53 57 58 61 63 64 65 66 69 70 72 72 72 72 72 73 72 74 75 75 73 72 70
19 21 23 26 30 33 35 35 39 43 42 41 40 36 38 40 40 42 42 46 48 48 50 54 57 59 59 60 61 63 65 66 66 68 68 67 67 68 69 70 66 64 62 60
20 22 23 24 27 29 32 34 37 40 40 40 38 38 37 36 38 41 42 45 46 48 50 50 52 55 57 57 58 58 59 61 63 62 64 63 62 64 62 59 61 59 59 59
21 23 24 25 27 29 31 33 34 35 37 38 38 38 37 38 39 39 40 42 42 43 46 48 50 53 55 57 58 58 58 59 60 60 60 60 61 61 61 60 59 57 53 50
21 23 22 25 27 30 31 30 30 31 32 32 31 30 32 34 37 37 37 39 40 43 45 46 47 49 52 52 53 55 55 56 56 57 58 58 59 57 55 53 50 51 52 52
20 21 24 25 25 27 28 30 31 32 34 34 33 33 30 29 32 33 30 33 34 35 36 39 40 41 42 45 46 48 49 50 51 50 50 50 49 50 50 50 50 52 57 61
21 20 21 23 24 28 30 30 31 32 33 34 34 33 33 33 32 31 34 35 30 31 31 33 36 37 39 39 39 41 43 44 46 47 49 50 51 51 52 53 58 63 60 53
22 22 22 21 24 26 26 26 28 30 32 34 34 34 33 33 34 35 36 35 34 33 32 34 32 32 33 33 33 34 36 38 39 40 41 43 43 44 44 47 47 48 50 52
24 24 22 24 25 27 28 29 30 31 30 30 33 34 33 33 34 36 36 37 39 37 34 34 35 34 33 34 35 36 36 35 36 36 37 39 41 45 47 48 50 49 49 50
26 26 25 25 23 25 25 25 26 27 30 31 31 31 33 33 34 35 36 37 38 38 38 37 36 37 36 36 37 38 40 41 44 46 47 47 45 43 42 43 44 45 49 47
27 27 26 27 27 24 22 22 22 23 25 28 30 31 31 30 30 33 35 36 37 38 37 37 37 37 38 37 36 34 34 35 36 35 35 34 36 37 40 43 45 43 41 42
31 28 27 27 28 27 25 24 23 22 22 22 25 29 31 32 31 31 32 34 35 37 38 38 38 37 37 36 36 36 35 35 36 37 39 40 41 41 39 38 37 38 41 45
32 31 31 31 30 30 31 30 28 27 26 26 25 25 27 30 32 32 33 34 35 35 36 37 38 37 37 38 39 39 41 41 41 42 42 40 37 35 36 36 37 40 41 39
34 34 35 34 34 33 33 33 33 32 30 30 30 28 26 26 27 30 33 35 36 36 35 36 36 38 39 41 42 42 42 42 41 39 37 35 36 38 39 39 40 40 37 36
34 35 36 35 35 36 35 34 34 36 37 36 35 34 33 31 30 29 29 29 30 32 32 34 36 39 41 42 41 39 38 37 36 35 35 38 39 41 42 41 41 41 39 37
36 36 37 36 36 37 38 37 37 38 39 41 42 40 38 38 37 36 35 34 32 29 27 28 30 34 36 36 35 35 35 35 36 37 38 38 41 42 44 45 43 43 41 40
37 38 38 37 37 38 38 38 38 39 39 41 42 43 45 44 44 43 41 40 39 38 36 36 36 36 36 35 35 35 37 38 40 40 41 42 44 44 45 46 45 44 43 43
35 37 38 38 37 38 39 40 40 39 39 40 42 44 45 47 51 50 49 48 45 44 42 40 39 39 41 41 41 42 43 43 44 45 45 45 45 46 47 46 46 46 45 44
34 35 35 37 38 39 40 39 38 38 39 40 41 43 45 47 49 51 54 54 52 51 49 46 44 44 42 42 45 47 48 48 49 48 48 48 48 48 48 47 47 47 47 46
34 35 36 37 38 38 38 39 40 41 41 42 42 42 44 46 48 50 51 53 55 57 57 54 52 50 48 46 44 46 50 52 52 52 50 49 48 48 48 49 49 49 51 51
34 35 35 36 37 37 38 38 39 39 40 42 43 43 43 44 46 48 50 52 54 55 56 58 59 56 53 51 50 48 47 52 54 54 53 52 51 51 51 52 52 53 53 54
34 34 34 34 34 35 36 37 37 37 38 40 41 42 43 44 45 46 48 49 52 54 55 55 56 59 60 59 57 55 52 51 54 56 56 55 55 55 55 55 55 56 57 58
33 34 35 34 34 34 35 35 35 36 37 38 39 39 41 42 42 43 44 46 48 50 53 54 56 56 59 61 61 59 57 54 53 56 58 58 58 58 58 59 60 60 61 63
33 33 34 35 36 35 34 33 33 34 35 36 37 38 37 37 38 38 40 42 43 45 48 53 55 57 56 59 61 61 60 58 55 55 58 60 61 62 62 63 64 64 65 66

GFSNGP_250_spd_087.txt.gz
Wind_Speed
31 36 40 41 42 43 43 45 46 49 48 53 51 49 50 55 59 59 61 65 69 71 74 77 79 81 82 82 82 82 82 83 86 88 89 91 93 95 96 96 96 95 96 97
27 29 33 35 36 37 39 41 44 48 51 53 46 48 52 56 57 57 60 62 65 68 71 71 71 72 72 73 76 78 78 78 80 82 87 91 93 94 93 94 95 95 95 94
25 30 32 33 36 37 38 41 42 42 49 44 47 50 52 54 52 53 54 57 60 63 64 65 65 66 67 69 71 72 73 74 76 78 80 82 85 88 90 90 91 92 90 89
18 26 31 34 35 38 42 43 43 45 48 46 47 48 51 51 48 47 49 53 55 57 58 59 61 60 61 63 65 66 67 67 69 71 73 73 74 76 78 79 79 80 78 78
15 20 25 30 33 38 43 43 44 48 49 48 50 49 54 46 44 44 43 44 46 48 51 51 54 56 57 57 58 59 61 63 66 68 68 69 70 70 70 70 71 70 71 70
12 14 17 20 27 34 39 40 43 46 46 46 47 50 44 39 39 41 43 43 44 45 47 47 47 50 52 53 52 53 58 60 62 64 63 65 66 67 66 65 64 65 65 66
13 14 13 15 18 19 23 31 35 37 38 40 40 39 38 37 35 37 40 40 40 40 43 45 46 48 50 51 52 55 55 57 59 60 60 59 60 62 62 62 62 63 62 63
17 17 16 17 18 19 21 22 23 25 27 30 31 31 33 32 33 34 36 37 35 36 38 39 42 47 49 51 52 52 54 56 57 57 58 56 57 59 59 60 61 61 59 59
19 19 21 21 20 21 22 22 22 23 24 25 26 27 28 27 26 27 29 30 29 34 34 36 38 40 44 46 47 49 50 51 51 50 52 53 53 54 56 57 56 57 58 56
21 22 22 22 23 24 24 24 24 25 27 28 29 29 30 30 31 31 30 28 29 29 25 29 29 32 34 36 39 42 43 45 46 47 47 47 48 49 49 49 48 47 47 46
23 23 22 24 24 24 25 25 25 25 28 30 31 31 31 30 30 31 34 34 32 30 29 27 26 27 29 31 32 35 38 40 42 43 44 46 46 46 46 46 44 46 47 48
23 24 23 23 25 25 26 26 25 25 26 27 29 32 33 33 32 32 33 34 36 37 35 33 30 30 29 31 30 32 34 34 36 37 38 40 41 42 44 44 45 46 45 44
24 25 24 24 25 26 27 27 25 26 28 29 30 32 31 30 31 32 32 33 34 35 37 39 39 36 34 35 34 33 32 34 36 36 36 37 37 38 37 39 39 40 43 47
26 28 28 28 27 26 27 27 26 27 27 28 28 29 31 31 31 31 32 32 33 35 36 37 39 39 39 37 37 38 37 37 38 40 42 43 42 43 44 44 46 46 44 43
29 29 30 31 31 31 29 30 30 29 27 27 27 26 27 29 32 32 33 33 32 33 34 35 36 37 38 38 39 39 39 39 39 39 38 39 40 41 41 39 37 40 41 43
29 30 32 34 34 35 33 32 33 33 31 30 29 29 27 26 28 32 34 35 34 33 34 34 35 36 38 39 39 40 39 38 38 36 36 36 36 37 38 40 43 44 45 40
28 30 33 35 36 36 36 35 35 35 36 35 34 32 31 30 28 28 30 33 34 34 34 34 34 37 38 39 41 41 41 41 41 42 41 43 44 46 45 46 46 44 40 37
30 30 32 36 36 35 35 37 39 38 37 38 38 38 37 36 35 34 33 33 32 31 34 37 38 39 39 39 40 40 41 43 43 43 44 45 46 47 47 46 44 42 40 39
33 34 34 36 37 37 37 37 38 40 40 39 40 41 43 43 42 40 39 38 37 34 33 33 35 37 39 40 41 42 42 43 44 45 45 45 44 44 43 42 43 43 43 43
32 35 35 35 38 38 38 38 38 39 39 40 40 42 43 43 44 44 43 44 44 42 40 38 37 36 35 35 36 38 38 40 41 43 43 42 41 42 42 43 44 46 45 46
31 33 35 37 38 38 39 40 40 41 41 40 40 40 41 43 45 46 47 49 49 49 48 46 45 43 42 40 39 39 39 38 38 40 41 41 41 43 45 46 47 48 47 47
30 33 35 37 39 39 38 40 41 40 40 40 40 40 42 43 44 45 46 47 49 52 54 54 52 50 49 48 47 45 45 44 45 45 45 45 46 47 49 50 50 50 51 50
31 32 34 36 38 39 40 41 41 41 40 40 40 41 42 43 43 45 47 47 48 50 52 54 56 57 57 55 54 53 51 49 47 46 48 50 52 52 53 54 54 55 54 54
33 35 36 36 37 38 39 40 40 40 40 40 40 40 40 41 42 42 44 46 48 49 50 51 53 54 56 59 60 60 59 57 54 53 51 49 51 54 56 57 58 58 57 56
33 35 36 36 36 37 37 38 40 40 40 39 39 39 40 41 41 42 43 43 45 46 48 50 52 53 54 56 57 60 63 63 61 60 57 56 55 52 53 56 59 60 60 61
34 33 35 35 35 35 36 38 39 39 39 38 39 39 39 40 40 41 41 42 42 42 44 46 48 50 52 54 56 57 58 61 64 65 65 63 61 59 57 55 56 59 61 62
34 33 33 34 34 34 35 36 36 37 38 38 37 38 37 37 37 37 37 38 39 40 41 42 42 43 45 49 53 56 58 59 59 62 65 66 65 64 62 61 59 57 60 62

GFSNGP_250_spd_090.txt.gz
Wind_Speed
35 40 44 46 48 51 53 57 58 62 61 62 60 59 57 59 61 61 62 66 68 70 75 80 83 86 88 90 92 95 97 98 100 100 102 102 100 100 99 100 101 101 101 104
33 40 44 46 48 51 53 53 56 58 60 58 54 54 55 56 60 58 61 65 66 69 71 73 77 79 82 83 85 87 89 90 92 91 94 93 94 94 93 92 95 97 96 98
30 35 39 42 46 46 49 51 52 53 56 52 51 53 53 54 55 59 63 62 64 66 68 69 71 72 74 76 77 78 80 82 83 83 83 84 86 85 84 85 88 91 92 94
24 31 35 36 38 42 44 45 48 51 50 49 49 51 52 54 57 59 59 58 58 61 65 66 67 67 67 67 70 71 72 73 74 75 76 76 76 79 78 76 78 81 83 86
19 26 31 36 38 41 42 42 45 46 47 47 49 51 54 55 56 56 58 55 54 55 56 59 61 62 63 62 62 62 63 66 68 69 71 72 71 73 72 71 75 75 77 79
15 20 25 31 36 38 41 44 46 49 50 50 50 52 49 51 52 51 48 47 47 48 49 50 52 55 55 56 57 56 57 58 60 62 64 65 66 67 69 69 70 72 72 70
14 16 19 23 30 34 37 41 43 45 46 47 49 50 49 49 48 47 45 45 44 45 48 49 50 51 53 54 55 56 55 54 56 57 59 61 62 63 65 65 67 69 69 69
14 16 19 21 22 24 29 35 37 41 42 43 45 45 45 46 45 41 39 39 39 41 41 41 42 44 48 52 53 53 54 55 56 57 58 59 60 59 62 62 63 65 65 65
17 17 19 22 23 24 25 27 26 27 30 31 33 33 32 33 33 32 32 33 34 35 34 37 36 37 38 40 44 47 51 52 53 55 56 56 57 58 57 57 59 58 58 57
21 21 22 22 24 25 25 23 24 23 24 25 25 26 25 26 28 29 30 32 32 33 33 33 32 35 34 36 38 40 40 42 44 47 52 51 51 51 52 51 50 51 52 53
23 24 24 24 24 27 28 28 27 26 26 28 29 28 29 29 30 31 32 34 36 36 35 33 31 30 30 31 33 35 35 36 38 40 43 45 45 46 45 46 47 46 46 47
27 28 27 27 27 27 29 30 29 28 28 28 29 29 30 30 30 32 32 34 35 37 37 37 35 34 33 33 32 32 33 33 33 36 38 40 41 43 44 44 45 45 45 46
30 32 30 30 30 30 29 30 30 30 30 30 31 30 30 30 31 31 33 35 36 37 37 38 39 40 38 37 38 35 34 33 34 35 38 37 38 38 38 40 43 44 46 48
26 32 34 33 33 33 32 31 32 31 32 33 34 34 34 35 35 35 35 34 35 36 37 37 38 39 42 43 43 41 40 40 39 39 41 40 40 39 39 38 38 39 40 41
27 30 34 36 36 36 36 35 34 34 34 34 34 34 33 33 33 34 35 36 35 35 36 37 36 38 40 41 42 44 45 44 45 45 44 45 45 45 45 45 45 44 45 45
26 28 31 34 37 38 38 37 37 37 35 35 34 35 35 34 33 33 33 35 36 36 37 37 36 38 40 41 42 42 44 46 46 46 46 46 46 46 46 47 48 49 50 49
28 28 31 34 35 37 39 39 39 38 39 38 38 37 37 37 36 35 34 33 33 36 38 39 38 38 37 38 39 41 43 44 44 46 46 46 46 45 44 43 43 43 45 44
34 30 31 34 36 36 37 39 40 40 41 41 41 41 41 41 40 39 38 38 37 36 36 37 39 40 40 40 40 40 42 43 44 46 46 47 47 46 47 46 47 48 49 49
33 34 32 34 35 37 38 39 40 41 41 41 43 44 44 43 42 42 42 43 43 42 40 39 38 38 39 42 43 44 44 44 45 46 46 47 48 49 50 52 52 53 54 54
32 35 35 35 36 37 38 40 40 41 42 43 43 43 43 44 45 46 46 46 46 46 45 45 44 42 41 40 41 41 43 45 46 47 48 48 49 50 51 52 53 54 54 53
32 34 38 38 38 38 39 40 41 41 42 43 44 43 43 44 45 47 47 48 48 49 50 50 49 50 49 48 47 46 44 42 42 43 45 47 47 49 50 51 51 52 52 51
34 34 38 40 40 40 40 41 41 41 41 41 43 44 44 45 46 46 47 47 48 48 49 50 51 53 54 54 54 54 53 51 48 47 46 46 45 45 45 47 47 49 49 49
36 35 37 40 40 40 40 40 41 40 40 42 44 44 44 45 45 45 46 47 48 49 50 50 51 51 52 53 56 58 58 58 57 56 55 54 52 52 51 50 50 50 50 51
37 37 37 39 41 40 40 39 40 41 40 40 41 41 42 43 44 45 46 47 48 48 50 52 52 52 52 52 53 56 58 60 62 62 62 60 59 57 56 53 53 53 54 56
37 37 37 40 40 38 38 39 39 39 39 40 41 41 41 42 43 44 44 46 47 48 49 50 51 52 53 54 54 54 54 56 58 60 63 65 65 64 62 61 59 58 56 55
36 35 36 36 41 40 38 39 39 39 39 40 41 41 40 40 41 42 43 44 45 45 46 47 48 49 50 50 51 52 54 55 56 57 59 62 63 65 66 66 65 64 62 61
37 34 33 33 37 39 40 39 38 39 39 39 40 40 39 40 41 42 43 44 44 43 44 44 44 45 45 46 48 51 52 53 54 56 57 58 60 62 64 66 67 68 67 66

GFSNGP_250_spd_093.txt.gz
Wind_Speed
32 35 39 44 49 53 57 61 64 67 67 66 67 68 68 70 67 65 68 69 70 71 74 76 78 80 83 88 94 96 97 97 98 99 101 102 104 105 106 107 107 107 107 107
28 40 45 46 48 51 54 57 61 64 67 66 66 64 63 63 64 63 66 67 69 69 71 73 74 75 77 79 84 88 91 95 99 100 100 101 102 105 107 108 108 109 108 107
20 31 37 40 46 49 51 55 59 63 63 61 62 64 64 64 64 63 63 64 65 67 70 72 72 74 75 76 76 78 80 84 88 92 96 100 103 105 106 106 107 106 105 104
20 21 31 37 41 45 49 52 56 58 59 61 62 63 64 63 62 62 63 65 64 67 70 71 72 71 73 74 74 74 75 76 78 82 84 87 90 93 93 95 97 97 96 96
16 20 26 31 38 42 46 50 53 55 55 55 56 60 61 59 60 60 62 64 65 68 70 70 70 69 70 71 71 71 71 73 73 75 76 78 80 83 84 85 86 86 86 87
16 17 24 32 36 38 43 45 48 50 51 52 53 54 54 57 59 60 62 63 64 67 65 65 66 66 67 67 68 68 69 69 68 69 70 71 73 75 76 77 78 79 79 80
17 19 22 27 32 38 41 45 47 48 49 50 52 53 54 55 57 58 59 60 61 60 58 58 56 57 60 62 63 64 64 63 63 62 63 63 66 68 68 69 71 72 73 74
19 21 23 25 28 30 36 42 42 44 47 49 51 52 52 53 53 52 52 51 50 50 47 48 50 52 54 56 57 58 59 59 59 59 60 60 60 61 63 65 66 67 68 69
20 22 25 26 27 28 31 36 39 40 41 42 43 45 47 48 48 46 45 45 46 45 46 45 45 46 48 49 50 51 52 53 53 55 56 58 60 60 61 61 63 64 63 63
23 23 25 26 29 31 31 31 32 33 36 38 40 41 43 43 44 46 44 42 41 41 42 42 42 42 42 42 44 43 43 44 46 46 47 49 53 54 54 55 55 55 55 54
23 26 27 28 29 30 31 33 34 32 33 34 34 34 34 33 34 34 36 36 38 39 40 41 41 42 43 42 41 42 40 41 41 42 42 42 44 45 47 47 49 49 49 49
26 28 30 31 32 32 32 31 33 34 35 35 34 35 36 37 38 38 37 38 39 39 39 40 40 41 41 42 42 39 39 39 40 40 40 40 40 41 42 44 44 45 46 47
28 29 32 34 36 36 35 34 35 35 35 37 38 39 39 39 38 38 37 37 38 38 39 39 40 41 42 43 43 41 43 41 40 41 41 40 40 40 40 41 40 41 44 46
28 30 32 35 38 40 39 39 38 38 36 37 37 38 38 38 38 38 38 38 38 38 39 39 40 40 41 42 44 45 45 45 44 43 42 42 41 40 40 40 39 39 40 41
30 29 31 34 37 40 42 42 41 40 39 37 38 38 39 39 38 38 39 39 39 40 41 40 40 41 42 42 42 43 45 47 49 49 48 47 46 44 44 45 42 43 43 43
33 28 28 32 34 39 42 43 44 43 42 41 40 39 40 40 40 39 38 39 38 38 39 41 41 42 43 43 43 43 44 45 46 48 51 52 51 50 50 50 51 50 50 49
37 29 28 30 35 38 41 42 43 44 44 44 43 42 41 41 41 40 39 39 39 38 38 39 42 43 44 44 44 44 43 44 45 47 47 48 50 53 53 53 53 53 53 51
41 33 28 29 33 37 39 43 44 44 45 46 45 44 44 43 43 43 43 42 41 40 40 39 39 40 42 44 45 45 45 44 44 45 45 47 48 49 51 52 53 53 53 52
43 36 30 29 33 36 38 40 43 45 45 46 46 45 46 46 46 46 46 46 46 45 44 43 44 43 42 42 43 45 46 46 46 46 46 46 47 49 50 51 52 53 53 52
46 37 32 30 32 35 38 40 42 45 46 47 47 47 47 47 48 49 49 49 48 48 48 49 49 48 48 48 47 46 45 44 44 45 47 49 49 49 50 50 51 52 53 53
48 39 34 31 31 35 37 39 42 43 44 46 47 47 48 48 49 50 49 49 49 50 51 51 52 52 51 52 52 51 51 51 49 47 46 45 45 47 49 51 52 52 53 53
53 42 36 33 31 33 37 40 42 42 44 45 44 44 45 46 47 49 50 50 51 50 51 51 51 52 52 53 53 54 54 55 55 54 53 52 50 49 48 47 47 48 49 50
55 44 38 33 32 32 34 39 41 42 42 42 43 43 45 46 47 49 49 49 49 50 51 51 52 52 53 54 54 54 55 55 56 56 56 56 56 56 55 54 53 52 52 51
56 46 39 35 33 33 33 36 40 41 41 42 43 43 44 45 46 47 47 48 49 49 50 51 51 52 53 53 53 53 54 54 55 56 57 58 58 59 60 61 61 60 60 58
56 49 41 36 34 34 34 35 37 40 42 42 43 43 43 44 44 44 45 47 48 49 49 50 50 51 53 53 53 54 54 54 54 55 56 57 58 60 61 61 62 64 66 65
56 50 43 38 35 34 34 34 36 37 40 42 43 42 42 42 43 43 44 45 46 46 47 48 48 49 49 50 51 52 52 53 53 54 55 57 57 58 60 61 62 62 62 64
56 51 44 40 36 35 35 35 36 37 38 40 42 42 41 41 41 41 42 43 44 44 45 45 45 45 46 47 49 50 51 52 52 53 54 54 54 54 55 57 59 60 61 63

GFSNGP_250_spd_096.txt.gz
Wind_Speed
14 20 25 34 39 45 49 52 54 58 59 61 62 63 64 65 66 70 72 74 74 73 75 76 76 78 80 83 85 87 88 89 90 92 94 96 97 97 98 101 102 102 102 103
11 17 23 30 37 42 46 49 55 59 59 60 62 64 64 65 67 69 71 72 71 69 71 73 74 74 74 75 77 80 84 90 93 93 94 95 96 96 96 96 98 100 101 101
10 15 24 29 34 40 45 48 52 56 56 57 62 64 66 67 69 70 71 70 68 67 71 73 72 72 73 73 72 73 75 77 81 85 90 95 97 98 98 98 99 100 100 99
12 13 21 25 32 39 43 47 50 53 55 58 62 64 66 65 66 66 68 69 67 68 69 71 71 71 72 72 72 72 72 72 73 75 78 81 85 90 95 97 99 101 102 102
14 15 18 27 28 36 43 46 48 51 53 57 61 64 62 64 66 66 67 67 67 68 69 69 70 71 72 73 72 71 71 72 71 71 72 73 76 78 80 83 86 90 92 94
17 16 20 24 29 32 37 42 44 48 51 54 56 58 62 66 67 66 68 69 69 69 68 69 69 70 70 70 68 69 69 69 69 68 69 69 71 72 74 77 78 80 82 83
16 18 23 25 29 31 34 41 40 42 45 48 51 53 59 61 63 63 66 67 67 67 68 69 70 68 68 68 67 68 68 69 68 68 68 68 68 68 69 71 73 75 76 77
21 17 24 27 29 32 35 38 39 41 44 46 48 50 53 55 57 59 62 63 63 65 66 67 67 65 65 64 63 61 63 65 66 68 69 69 67 67 66 66 66 67 70 72
24 21 23 25 27 30 34 39 41 43 44 45 47 49 51 54 56 57 58 57 58 59 61 61 60 59 58 55 53 55 58 60 61 63 64 64 63 63 63 62 62 63 65 65
33 23 24 25 28 30 32 35 37 40 44 46 46 45 46 50 52 50 49 49 49 48 49 50 51 52 52 51 52 53 55 55 54 54 57 57 55 55 56 55 54 53 54 57
40 28 24 27 28 32 33 35 35 37 38 40 43 45 46 47 49 49 49 48 47 47 47 46 47 47 48 49 50 51 51 51 50 51 51 49 49 48 47 47 47 47 47 49
41 31 24 26 29 33 37 37 38 38 38 39 39 40 41 43 43 44 44 44 43 43 44 45 46 47 47 48 49 50 50 50 50 48 48 47 46 45 44 43 43 43 44 45
48 32 27 25 28 31 36 39 40 40 39 40 41 40 40 41 42 43 42 42 42 43 45 45 45 45 47 48 49 48 46 46 46 46 47 46 46 45 45 43 43 43 42 42
55 42 31 24 25 30 32 37 39 42 42 41 41 41 42 44 45 45 45 45 46 46 46 46 46 46 46 47 47 47 47 48 48 48 47 47 46 46 45 45 45 44 43 41
74 49 39 29 26 25 31 34 37 40 41 43 42 41 41 42 43 46 47 46 46 45 45 44 44 45 45 46 46 47 47 47 47 47 48 49 49 48 48 47 47 47 45 43
90 65 45 36 28 28 29 32 36 39 40 41 42 43 42 42 42 43 43 43 43 44 43 43 45 46 46 46 46 46 45 45 46 46 46 47 49 51 54 54 53 51 50 47
112 74 55 42 34 28 28 31 34 37 41 42 43 44 45 45 44 43 44 43 42 41 42 43 43 42 43 42 42 43 45 45 45 45 46 46 47 48 50 51 52 55 55 53
117 86 64 49 39 33 29 30 32 36 39 42 44 45 47 47 47 46 46 45 44 44 43 43 43 42 41 41 41 41 42 44 45 47 47 46 47 47 46 47 48 51 52 54
117 99 73 54 44 36 32 31 32 34 38 41 43 47 47 48 49 49 50 50 49 48 47 45 44 44 43 43 44 44 44 43 42 43 45 46 48 49 48 47 47 48 50 51
120 104 81 61 48 40 35 32 32 34 36 41 43 44 46 48 49 50 50 51 51 51 50 50 49 48 47 47 48 49 48 48 48 47 46 46 44 44 45 46 48 49 49 50
121 116 88 67 53 44 38 34 33 34 37 40 43 45 46 47 48 49 49 50 51 52 52 52 52 51 51 52 53 53 53 52 51 50 50 50 50 49 48 47 46 46 46 48
120 127 94 73 59 48 41 36 34 35 36 39 41 43 44 44 45 46 47 49 50 50 51 52 53 53 53 53 54 54 54 53 53 53 53 52 51 52 53 53 53 52 51 50
126 124 101 80 62 53 46 40 35 35 37 38 39 40 41 44 46 48 49 50 51 51 51 52 52 53 52 53 54 54 53 53 53 53 53 53 53 54 54 55 56 56 57 57
129 125 107 83 68 56 48 43 39 35 35 37 38 39 40 43 46 48 49 49 50 51 51 51 51 52 53 53 54 54 53 53 54 54 54 54 53 54 54 56 57 57 57 58
129 124 105 84 70 61 50 44 42 37 35 35 37 39 41 43 45 47 48 49 50 50 50 51 52 51 51 51 52 52 52 53 53 53 53 53 53 53 54 55 56 56 58 58
132 121 100 83 70 62 53 44 40 39 36 35 37 39 41 43 44 45 47 48 48 47 48 48 48 49 49 50 51 51 52 52 52 52 52 52 53 53 53 54 55 56 57 58
123 113 92 81 71 61 53 46 41 38 37 36 36 38 41 43 44 45 45 46 47 47 47 46 46 46 46 47 48 49 50 50 51 51 51 52 52 52 52 52 52 52 51 53

GFSNGP_250_spd_099.txt.gz
Wind_Speed
17 8 8 15 22 28 34 39 44 49 48 52 56 59 61 65 66 67 68 69 71 74 78 78 77 78 79 79 80 79 80 80 80 81 83 84 85 85 87 89 92 94 96 97
14 12 9 12 17 24 30 36 40 42 45 51 54 57 59 62 64 66 67 68 69 73 75 75 76 77 76 76 76 76 76 78 81 82 84 85 86 87 87 88 89 92 93 93
14 10 11 14 17 22 28 34 38 41 47 52 54 56 58 60 62 65 66 68 68 69 70 73 74 74 73 72 73 73 73 73 74 77 79 82 85 87 89 90 91 92 93 94
18 13 10 13 17 21 25 31 35 39 44 48 52 55 57 59 61 64 65 65 66 67 69 71 71 71 69 71 72 71 70 70 70 71 72 74 76 78 81 84 87 90 93 95
23 17 14 14 16 21 26 29 34 39 42 45 50 53 56 57 59 60 63 64 65 68 69 69 70 69 69 70 71 70 69 70 70 70 70 71 73 74 75 76 78 81 83 86
28 22 20 17 19 20 25 28 33 36 40 45 48 51 54 56 58 59 61 63 65 67 67 68 68 68 68 70 71 69 69 70 69 70 69 69 70 70 71 73 75 77 78 79
37 24 23 21 22 25 27 31 31 33 37 41 45 49 52 55 57 59 61 62 64 65 66 67 67 67 68 69 69 69 68 68 68 68 67 67 68 68 68 68 70 72 74 76
46 32 23 20 24 27 30 31 31 32 35 37 40 44 49 53 55 57 58 61 64 66 67 68 68 68 69 69 69 68 69 68 67 65 64 65 66 68 68 68 67 67 67 68
53 37 25 17 23 27 30 31 32 33 36 38 40 42 44 46 49 53 56 59 62 63 64 65 66 66 67 66 66 67 67 66 65 64 61 61 64 64 65 66 65 63 63 63
63 44 32 22 18 25 31 33 34 35 37 40 42 45 47 48 49 50 52 54 56 58 60 62 62 63 63 64 65 64 63 61 59 58 59 60 61 60 59 59 58 58 57 57
75 50 38 26 21 20 27 33 36 37 37 39 42 44 48 49 49 48 49 50 52 53 54 55 56 56 56 57 58 59 59 60 59 58 58 57 56 55 54 52 52 52 50 51
87 63 43 30 22 22 23 30 34 37 40 40 40 42 44 46 48 50 50 51 51 51 52 53 54 54 54 55 55 57 58 58 57 56 55 53 52 51 50 49 49 49 48 47
94 83 50 36 26 22 24 27 32 36 39 41 42 42 42 42 43 45 47 48 49 50 51 50 51 53 53 53 52 51 50 49 49 48 48 49 49 47 46 47 48 47 48 45
103 91 74 49 33 25 21 26 31 35 38 41 42 43 44 44 45 45 45 45 45 47 47 47 48 48 47 48 49 49 49 48 49 49 50 50 50 49 49 48 47 47 46 45
104 107 98 63 44 30 24 23 27 34 37 39 42 44 45 46 46 46 46 47 47 47 47 48 48 48 49 49 50 50 50 49 49 49 49 49 49 49 49 50 50 49 48 47
102 107 110 84 55 40 29 24 24 28 35 39 40 42 44 45 47 48 47 47 47 49 50 50 50 51 51 51 50 50 49 47 47 48 48 48 48 49 49 50 49 49 49 48
104 110 113 98 74 52 39 30 25 26 30 36 40 42 45 45 48 49 50 49 48 47 48 48 48 49 49 50 49 48 48 47 46 46 46 47 49 47 47 48 49 48 47 47
104 110 113 109 96 65 47 36 30 27 28 33 39 41 42 43 47 48 49 49 49 48 48 47 47 48 48 49 50 49 47 45 45 45 43 42 43 45 46 46 46 47 47 47
109 110 115 113 106 75 57 43 35 31 29 31 35 41 42 44 45 47 49 51 51 51 51 50 50 49 49 50 50 49 48 47 47 47 46 45 44 43 42 42 43 45 46 47
109 113 115 120 109 89 66 51 40 35 31 30 33 38 43 45 46 47 48 50 52 52 53 53 53 53 53 53 53 52 51 50 50 50 50 50 49 47 47 47 46 46 45 44
112 115 117 123 122 93 75 58 47 39 34 32 33 35 39 44 47 48 47 46 47 49 52 53 54 55 55 55 55 56 55 54 53 53 53 53 52 51 51 51 51 50 50 50
115 119 120 125 119 102 82 64 52 45 38 34 33 34 38 41 44 45 44 45 48 50 52 53 54 54 55 55 55 56 55 55 54 55 55 54 54 54 54 53 53 53 54 54
117 121 122 128 121 107 86 70 55 48 42 37 34 34 36 39 41 42 45 48 50 51 53 53 53 54 55 55 54 55 55 56 56 56 56 55 55 54 55 55 55 55 55 55
118 122 125 130 129 108 90 74 58 50 45 39 36 35 36 37 39 41 45 48 50 52 53 52 53 53 53 54 54 56 56 55 55 55 55 55 55 55 56 56 55 55 56 56
122 124 128 130 135 106 92 74 59 52 47 41 37 36 36 36 38 40 43 46 49 51 52 52 53 53 53 53 54 55 54 54 55 55 55 55 55 55 55 55 55 55 54 55
124 126 131 129 133 105 91 72 60 54 48 42 39 37 35 36 37 39 41 45 48 50 52 53 53 53 53 52 53 52 53 53 53 53 53 53 53 54 54 55 55 55 55 55
126 130 132 138 125 103 86 68 60 55 50 44 39 38 36 36 37 38 39 42 45 47 50 51 52 51 50 50 50 51 51 51 52 52 53 53 53 53 54 54 54 54 53 53

GFSNGP_250_spd_102.txt.gz
Wind_Speed
18 11 7 1 11 22 29 36 42 51 54 55 57 58 57 59 64 66 68 67 67 65 67 69 72 75 77 78 80 81 79 81 81 82 83 83 84 84 85 87 87 88 89 91
24 14 8 4 5 12 21 28 35 39 45 48 51 52 54 56 58 61 64 64 65 65 66 69 72 74 74 75 78 79 80 78 78 80 80 81 82 83 83 83 84 85 85 86
35 20 10 5 3 10 16 23 29 36 39 44 47 50 52 55 56 57 60 63 64 65 65 66 69 70 73 75 78 77 77 76 78 78 77 77 78 80 82 84 85 86 87 87
48 32 17 12 8 9 13 19 24 29 36 40 43 47 50 52 54 56 57 59 61 63 65 67 69 70 72 74 76 76 76 78 77 76 75 75 74 74 76 77 78 80 82 84
55 41 26 15 11 11 13 17 22 27 31 36 39 42 47 49 51 52 54 57 60 63 65 67 68 69 71 72 73 74 76 76 74 74 74 72 71 70 70 72 73 75 76 77
58 47 36 23 15 14 16 19 21 25 30 34 37 41 44 46 49 52 54 56 57 59 62 66 68 69 70 70 72 74 73 71 71 72 72 71 70 69 69 69 69 72 74 75
68 52 42 30 21 18 17 21 22 24 26 31 36 40 44 46 49 51 53 54 56 58 61 62 65 66 67 69 70 69 70 70 70 70 70 69 67 65 66 67 68 69 71 72
81 64 51 35 26 22 21 22 23 27 29 30 33 38 42 44 47 49 51 54 56 58 59 61 63 65 66 67 68 68 68 67 67 68 68 68 67 65 65 65 67 66 69 67
92 71 57 42 30 24 24 24 25 28 30 32 34 36 37 42 45 47 50 53 56 57 59 61 63 64 65 66 66 67 68 68 68 68 67 66 66 65 64 64 64 65 66 65
93 87 68 54 40 29 25 26 27 29 32 34 37 38 39 40 41 44 48 51 54 57 59 61 63 64 66 67 68 68 68 69 68 66 67 68 68 66 65 63 62 62 62 61
92 96 84 72 51 39 28 26 29 30 32 35 38 40 41 43 44 44 45 47 49 52 55 58 61 63 64 65 67 67 66 65 66 66 67 67 68 66 63 61 61 60 57 55
91 96 97 83 75 48 38 29 27 29 33 35 37 41 42 44 45 47 48 48 49 50 52 54 57 59 60 60 60 61 61 62 63 63 64 65 66 62 59 58 57 55 50 47
91 96 100 100 75 65 46 36 30 28 30 36 38 40 42 45 46 47 48 50 51 52 53 55 57 57 57 57 59 59 60 60 60 61 61 61 59 55 51 49 47 45 44 44
89 95 99 102 95 87 56 44 34 30 29 31 36 40 43 45 47 48 49 49 50 51 52 53 54 55 56 57 57 56 57 56 56 55 53 51 48 48 48 48 47 46 45 46
89 93 97 100 103 91 82 55 40 32 30 30 32 38 43 44 46 47 48 49 50 50 50 51 51 51 52 52 51 50 50 49 49 48 47 47 47 48 48 49 48 47 46 45
90 93 97 102 103 98 99 65 50 37 31 30 32 34 39 44 47 48 50 50 50 51 52 52 51 52 52 52 51 50 50 50 49 48 49 48 47 47 47 49 49 48 47 45
89 93 100 100 106 104 107 85 62 46 34 31 31 33 36 40 45 49 51 53 54 54 54 53 53 53 53 53 52 52 52 52 51 50 50 50 49 49 49 47 47 47 48 47
88 94 99 101 106 110 103 99 80 56 41 33 31 31 33 37 40 47 51 53 55 55 56 55 55 55 54 54 53 53 53 52 52 53 52 51 50 50 48 46 45 46 46 46
92 97 100 103 105 110 108 106 101 72 48 37 32 31 32 34 37 41 47 52 55 56 57 57 57 57 57 57 56 55 54 53 53 53 53 53 52 51 51 50 50 49 48 46
93 99 101 105 106 112 112 108 114 90 60 44 37 32 31 33 36 38 42 47 53 55 57 57 57 58 58 58 58 57 56 56 55 55 55 55 54 54 53 53 53 53 52 51
94 102 103 109 109 113 119 109 117 110 75 51 41 36 33 33 34 36 39 43 47 51 54 55 57 58 59 59 60 60 60 60 60 59 58 57 57 57 56 56 57 57 56 55
96 101 105 110 112 116 119 113 124 113 89 61 46 40 35 33 34 36 38 39 43 47 51 55 56 57 58 59 61 62 62 62 61 61 60 59 58 58 58 59 58 58 58 57
100 103 108 111 113 119 121 117 129 118 93 70 53 44 39 35 34 36 37 39 40 43 48 52 55 58 59 60 61 61 61 61 60 60 60 59 59 59 59 59 58 58 58 58
103 105 111 114 117 120 126 118 127 121 97 76 60 49 43 38 35 35 36 38 39 41 45 49 53 56 58 60 60 59 59 59 58 59 59 59 59 58 58 57 58 57 58 59
105 109 113 118 119 124 129 127 127 127 98 79 65 53 45 41 36 35 36 37 38 40 44 47 50 54 57 58 58 59 58 57 58 57 58 57 57 57 57 57 57 57 57 57
109 113 117 120 125 127 130 133 129 130 93 77 66 58 49 42 39 35 36 37 37 39 42 45 48 51 53 54 55 56 57 57 57 56 56 56 56 57 57 56 55 55 55 56
112 117 120 126 126 130 135 133 136 118 87 72 62 57 53 43 40 36 34 36 37 38 40 42 44 47 48 50 51 52 54 55 55 55 55 55 55 54 53 53 52 52 53 53

GFSNGP_250_spd_105.txt.gz
Wind_Speed
25 14 7 8 17 27 34 52 57 62 66 69 75 79 80 80 87 89 90 90 90 89 88 86 84 85 82 82 78 78 79 81 84 86 88 91 93 93 94 95 96 95 95 94
33 22 10 4 9 18 30 41 52 57 59 61 64 68 70 69 68 71 74 77 80 80 78 78 80 81 81 78 78 78 79 82 84 85 87 87 87 87 88 89 89 89 88 89
47 33 17 7 2 11 20 30 40 49 53 55 58 59 60 63 63 65 67 69 75 75 74 73 73 74 75 74 75 76 77 78 79 79 79 80 82 84 86 85 84 84 84 84
63 46 29 13 4 7 14 22 29 40 47 50 53 55 58 61 63 64 66 67 68 69 69 69 72 70 70 71 73 73 74 74 73 73 75 77 80 82 80 81 80 79 80 81
69 58 43 30 11 6 11 16 24 31 36 43 48 50 52 54 56 59 61 63 66 66 66 66 67 66 66 68 70 70 68 69 71 72 75 78 78 79 79 79 78 77 77 78
72 69 58 43 29 15 9 14 19 24 30 35 41 45 49 51 55 57 57 56 58 61 63 65 66 67 68 67 66 66 68 69 72 74 76 76 78 78 79 77 76 74 74 74
79 71 67 54 42 28 13 10 17 22 26 30 36 41 45 48 49 51 53 54 56 58 60 60 62 64 66 67 67 67 69 71 73 74 76 77 78 77 76 74 74 73 74 74
87 82 73 61 52 41 28 17 13 20 25 30 33 37 40 44 47 49 50 52 54 55 57 59 62 63 64 64 65 67 69 71 72 73 75 76 72 71 72 73 74 73 73 74
80 84 78 68 60 47 39 30 21 17 22 28 32 36 37 40 42 44 48 51 53 54 55 56 58 59 60 61 64 65 65 67 68 70 69 71 72 72 73 71 72 71 71 71
79 81 85 75 67 57 48 39 30 24 20 24 30 33 38 40 42 45 48 50 51 53 55 56 57 59 60 61 62 64 65 67 69 70 71 72 72 71 70 69 70 71 70 69
74 80 81 84 82 68 59 48 37 30 25 23 26 33 36 40 43 45 46 50 53 54 55 56 58 59 60 62 63 64 66 68 68 70 70 70 71 71 71 72 71 71 70 67
78 76 81 83 83 77 85 68 48 37 29 26 25 28 35 39 44 46 48 50 51 53 55 57 59 61 62 63 65 67 68 69 69 70 71 71 72 71 70 69 70 69 66 62
70 78 84 84 83 78 88 90 79 50 37 30 26 27 31 38 43 46 48 50 52 54 55 57 58 58 59 61 62 64 66 67 68 68 68 67 67 68 69 68 67 65 62 57
68 74 80 82 89 91 83 90 88 84 58 39 32 29 29 33 39 46 49 50 52 55 56 58 59 60 61 62 63 63 64 65 65 65 64 64 65 66 66 64 62 59 51 49
75 72 79 85 87 94 94 95 92 91 93 59 40 33 32 32 35 40 47 51 54 55 56 57 58 60 61 61 61 62 63 63 64 64 63 63 63 61 59 56 52 49 48 47
75 72 79 87 91 94 94 100 103 92 104 71 53 39 33 34 35 37 42 46 52 55 56 57 58 59 59 59 58 58 58 57 57 58 56 56 56 56 53 51 50 51 50 48
80 76 85 84 89 95 94 101 105 94 90 106 65 48 37 34 36 38 40 42 48 54 57 58 59 60 60 60 60 60 59 58 57 57 56 56 56 55 54 54 53 52 51 49
79 81 82 87 92 96 99 102 109 107 88 103 87 55 43 37 35 38 41 42 44 49 54 59 61 62 63 62 61 60 60 60 59 58 57 57 57 57 57 56 55 54 53 51
80 83 83 86 92 98 99 102 110 109 104 98 89 63 48 40 36 36 38 42 44 47 50 54 58 62 63 64 64 64 63 62 62 61 60 59 59 58 57 57 56 55 54 53
81 86 85 89 94 99 101 107 110 113 112 109 98 67 55 46 39 36 37 39 43 45 47 49 53 56 60 62 64 65 65 65 65 64 62 61 61 60 59 58 58 57 56 56
81 88 88 95 97 101 102 107 110 114 115 105 115 78 58 50 44 39 37 38 40 43 46 47 49 52 56 60 62 64 65 66 66 66 65 65 64 63 62 61 61 60 60 60
83 89 92 93 101 105 107 110 113 119 118 118 114 85 65 53 46 43 40 38 39 40 43 46 47 49 52 55 59 62 64 65 65 66 67 67 67 67 66 65 65 64 64 64
87 92 96 98 103 107 109 111 116 123 116 125 113 88 71 58 50 44 41 39 39 40 41 43 45 47 49 52 56 58 61 64 65 65 66 66 66 66 65 65 65 66 65 64
90 95 96 100 102 108 111 118 118 127 121 121 113 89 73 62 54 47 42 39 38 39 41 41 42 44 46 50 52 55 57 59 61 64 65 66 66 65 65 66 66 65 64 63
94 96 101 105 108 111 115 119 124 125 123 125 111 88 73 63 57 51 44 41 38 37 39 40 41 42 45 48 50 52 54 57 59 62 64 64 64 64 65 64 64 64 63 63
97 102 104 106 110 114 119 121 129 124 132 119 99 80 70 62 56 52 46 42 39 37 37 38 39 41 43 45 46 47 49 52 56 57 58 60 62 63 64 63 63 63 62 61
99 103 105 111 113 117 122 125 127 134 130 109 91 78 69 61 54 51 48 42 40 38 37 37 38 39 42 43 44 44 45 48 51 52 53 55 57 58 59 60 60 60 59 57

GFSNGP_250_spd_108.txt.gz
Wind_Speed
21 11 3 8 20 28 39 49 51 56 65 73 76 77 80 82 84 87 92 97 98 95 91 92 93 94 95 97 101 101 106 109 110 115 117 119 119 116 116 117 115 117 117 115
37 21 10 2 9 20 34 43 50 56 61 68 71 74 76 81 82 83 88 96 98 98 99 95 91 89 88 88 91 94 93 98 100 96 98 98 96 101 106 108 105 105 109 104
58 40 24 10 1 8 21 34 43 52 60 66 71 75 78 76 80 81 83 85 89 91 92 92 91 94 91 89 93 87 85 84 85 84 85 87 88 89 93 94 95 97 99 98
64 51 39 26 10 3 10 20 31 41 51 58 64 68 70 71 70 74 76 77 77 79 83 84 86 85 84 84 84 84 85 83 83 85 83 85 83 84 85 84 88 90 92 94
65 63 52 40 25 12 5 13 21 31 39 46 54 58 61 66 66 64 65 70 71 76 78 78 80 81 80 85 83 87 86 83 85 87 86 85 83 84 85 85 86 86 86 87
69 65 62 56 42 28 14 5 13 21 30 37 42 49 54 58 60 61 64 65 69 71 74 71 73 77 81 86 86 87 87 83 84 84 83 80 80 79 79 80 81 82 83 84
68 70 66 60 57 49 32 17 8 14 22 29 36 41 49 54 57 60 62 65 71 73 69 66 67 72 74 77 77 76 76 76 77 75 73 75 79 77 75 76 77 78 79 80
67 71 76 64 63 55 49 36 22 12 14 24 30 36 43 48 52 56 59 61 62 66 67 66 65 66 68 69 71 72 73 73 74 75 75 75 75 76 76 76 75 77 80 80
71 65 70 74 61 58 57 54 44 27 15 15 24 32 38 44 49 52 56 58 61 63 64 64 65 67 68 70 72 72 71 72 72 74 74 75 76 76 76 77 78 79 80 79
62 74 59 74 78 61 57 56 52 47 30 18 15 24 34 40 45 50 53 56 59 61 62 63 66 69 71 71 72 72 73 72 72 73 73 73 72 73 74 75 76 77 76 76
63 69 69 64 72 72 63 62 60 55 48 37 26 20 22 32 42 47 51 55 58 60 61 62 64 66 67 68 70 70 71 71 72 73 73 73 73 73 74 74 75 75 76 77
64 66 67 64 62 74 76 73 66 76 64 51 39 28 24 24 30 41 49 52 55 57 60 62 63 64 65 67 68 69 70 70 71 71 72 71 72 72 74 75 75 75 77 76
63 62 68 71 72 74 75 84 79 72 83 67 51 39 30 25 27 31 40 49 54 57 59 60 62 64 65 67 68 68 69 70 71 72 72 72 73 73 74 74 74 73 74 75
64 63 63 75 82 80 77 80 84 82 79 84 74 53 42 32 27 29 32 38 47 55 58 61 63 64 66 66 67 69 71 71 72 73 73 74 74 75 75 75 74 75 74 74
63 64 70 75 75 81 80 85 90 87 74 86 74 75 54 42 32 28 31 34 38 44 53 60 63 64 66 67 68 69 70 71 72 73 72 73 73 73 74 74 73 73 72 70
65 68 69 75 76 77 83 89 90 91 94 88 84 71 70 52 41 34 29 31 35 39 45 51 58 63 66 67 68 68 70 71 72 73 73 73 73 74 74 74 73 72 71 69
64 68 71 74 78 79 84 90 93 96 101 91 95 90 76 63 49 39 35 33 33 36 40 44 51 58 63 67 68 69 69 69 71 71 71 70 70 70 68 67 65 64 63 62
64 69 73 78 77 80 86 90 97 94 103 101 94 89 85 70 57 46 39 36 35 35 37 40 45 52 58 62 66 69 70 70 69 69 69 69 68 67 66 65 64 63 63 64
65 70 74 77 82 84 87 93 97 100 102 105 99 101 89 77 63 51 43 40 37 37 38 39 42 47 51 55 60 64 68 71 70 71 70 70 69 68 68 67 65 64 64 63
66 71 74 80 81 87 89 93 95 100 103 107 103 109 94 82 69 58 48 43 40 38 39 39 40 43 46 50 54 58 61 64 67 70 71 71 70 70 70 69 68 67 66 65
67 72 77 81 84 88 89 94 98 105 105 108 107 114 99 87 73 62 54 45 42 41 39 40 40 42 44 46 49 54 57 61 63 66 68 70 72 72 72 71 70 70 69 68
71 74 77 83 86 90 94 97 99 105 111 105 112 115 102 87 75 64 58 52 45 42 40 39 40 40 41 43 45 49 53 57 60 63 65 66 67 69 71 71 72 72 71 71
73 76 79 84 90 93 94 100 104 109 113 106 114 115 103 90 75 65 60 55 50 43 41 39 39 39 39 41 43 46 49 53 55 57 60 63 65 67 68 69 70 71 71 71
76 79 82 87 92 93 95 103 104 112 109 108 114 109 100 90 78 70 62 56 53 47 42 41 39 39 39 39 40 42 45 48 51 52 55 58 61 63 65 67 69 69 68 68
79 82 87 89 94 98 101 104 108 111 111 113 109 114 102 88 77 69 64 60 53 50 43 41 41 40 39 38 38 40 42 46 49 52 54 55 56 59 62 65 66 67 67 68
83 86 91 94 97 102 104 108 112 112 117 118 104 113 100 87 76 69 62 56 52 49 45 41 40 40 39 39 39 38 39 42 45 49 51 52 53 54 56 57 60 61 61 62
86 91 96 98 104 108 109 109 116 117 121 116 108 107 94 84 76 70 60 54 50 48 45 42 40 39 39 39 38 38 39 40 42 45 47 49 50 52 53 54 54 56 57 58

GFSNGP_250_spd_111.txt.gz
Wind_Speed
29 21 13 8 15 24 28 33 38 45 53 62 69 78 77 80 79 81 77 69 74 87 97 108 115 121 124 122 119 115 113 111 114 113 113 115 113 110 106 106 109 108 106 107
44 32 20 11 6 20 22 28 34 40 45 56 62 65 79 81 83 80 88 84 85 84 85 97 108 112 120 122 127 126 123 120 118 119 117 114 114 114 112 114 113 115 117 116
63 51 37 21 10 2 8 19 28 35 41 45 53 60 66 75 78 84 84 90 89 89 92 91 92 101 110 116 122 126 127 123 123 124 124 123 121 119 118 119 120 124 123 128
69 64 58 38 23 11 5 9 16 26 35 43 49 51 59 68 75 76 86 91 89 89 88 90 90 89 94 102 112 120 123 125 128 129 129 130 131 132 133 135 136 135 134 133
67 68 69 58 46 32 18 6 8 18 25 33 39 46 58 60 64 74 74 74 75 85 85 93 92 86 86 85 87 94 99 107 112 120 123 125 127 125 127 126 123 121 123 119
63 61 62 58 59 52 40 25 13 9 15 21 32 42 50 60 62 65 71 73 69 75 79 82 81 86 92 93 89 84 86 88 88 91 96 102 103 105 104 106 105 103 104 108
62 63 61 58 57 58 51 45 32 20 15 17 24 33 41 49 56 63 66 65 72 75 77 81 83 85 87 88 91 96 91 92 94 95 91 93 95 100 100 99 99 98 97 99
56 58 66 57 58 58 54 53 48 40 24 15 17 25 31 37 45 54 62 67 68 72 74 78 85 87 84 85 85 85 88 91 90 92 95 93 93 93 95 96 95 96 97 100
60 60 60 57 59 56 56 56 52 49 45 38 22 15 23 32 39 45 52 56 60 65 71 77 81 84 81 81 85 86 86 86 87 89 95 96 99 96 96 95 93 95 96 98
60 61 56 62 64 59 60 59 58 54 51 48 42 31 19 20 29 40 48 52 56 61 66 71 76 77 78 81 82 81 81 83 85 88 91 94 91 90 90 90 90 90 89 87
55 58 57 55 62 55 61 67 55 55 58 52 48 44 37 26 22 28 35 45 53 57 61 64 67 70 74 77 78 78 78 79 82 84 87 87 86 85 85 84 84 83 84 84
53 55 58 62 55 66 72 67 71 58 56 53 54 52 49 44 34 25 28 36 42 50 58 62 65 68 71 73 75 76 77 78 80 82 82 82 82 81 82 82 83 84 85 84
51 56 58 60 65 67 61 72 72 74 67 67 58 59 59 54 45 37 31 29 35 44 50 57 63 67 70 72 73 75 76 78 78 79 81 82 82 82 82 82 83 83 84 83
52 54 59 61 62 65 62 72 75 75 65 68 68 64 64 59 55 50 38 33 32 35 43 49 56 63 68 70 73 75 76 77 79 80 80 80 81 81 81 81 82 83 83 83
51 54 59 62 64 68 65 75 77 83 70 72 71 69 69 67 61 55 51 40 34 34 36 41 49 55 61 67 72 74 76 77 78 78 79 80 80 81 81 81 82 83 82 83
51 54 56 60 62 67 65 73 77 80 79 78 78 69 75 78 73 68 57 48 42 36 35 38 42 48 54 57 63 70 75 79 80 80 80 80 80 80 81 81 81 81 82 81
51 53 55 58 63 66 70 71 76 79 81 84 84 79 75 82 76 71 67 56 48 43 38 37 40 43 47 52 57 62 66 72 78 80 82 83 83 82 81 80 80 79 79 78
52 57 58 60 65 68 71 76 79 79 83 88 84 85 87 83 84 77 70 62 55 48 44 40 39 41 44 47 51 57 61 65 68 72 76 79 80 81 81 81 81 81 81 80
53 57 60 61 66 69 72 78 80 78 87 86 90 89 86 96 95 86 79 69 59 53 48 45 41 40 42 44 47 52 57 60 62 65 68 72 76 78 79 80 79 79 78 78
55 59 63 66 68 73 75 78 81 86 89 94 92 91 83 89 97 90 83 77 65 57 52 48 44 42 42 43 45 46 50 54 57 60 63 66 69 73 76 78 79 79 79 78
57 61 64 66 69 74 78 79 85 88 94 92 97 98 100 97 93 93 89 78 68 61 56 51 47 43 42 42 42 44 45 48 52 55 58 62 64 67 70 73 75 77 78 78
57 63 66 68 72 76 81 84 88 90 95 97 96 94 106 97 100 95 88 78 69 64 59 54 49 44 41 41 41 41 42 43 46 49 53 56 59 62 64 67 70 72 74 75
62 65 69 70 75 78 83 86 92 98 95 100 102 102 105 105 107 96 87 78 70 65 60 56 50 44 40 39 39 39 40 41 42 46 48 51 54 56 59 61 63 66 68 71
65 68 72 73 77 82 87 88 94 98 100 104 105 107 107 107 105 101 95 83 72 65 60 55 51 47 41 38 38 37 37 38 39 41 44 46 49 51 54 56 58 61 62 64
67 71 76 77 80 85 88 89 95 96 100 104 107 108 110 104 103 96 94 84 73 63 58 55 51 48 43 40 38 37 37 36 37 39 41 43 45 48 50 52 55 57 60 61
69 74 78 80 83 88 92 94 96 96 104 111 109 111 111 106 104 99 92 81 75 65 56 52 51 48 44 41 38 37 37 37 36 37 40 42 43 44 46 48 51 53 56 58
76 76 80 84 87 90 95 98 98 102 107 114 110 111 111 109 105 97 89 79 73 65 57 51 48 47 45 42 40 38 37 36 36 37 38 40 42 43 44 46 48 50 52 53

GFSNGP_250_spd_114.txt.gz
Wind_Speed
30 23 21 16 18 16 21 24 29 40 48 53 66 64 64 69 72 70 84 98 115 122 121 119 119 113 112 112 115 109 107 107 101 105 98 98 104 104 95 102 107 106 102 98
45 35 27 19 15 11 12 15 15 22 36 46 53 56 63 64 65 69 75 79 87 107 118 124 123 120 124 118 115 112 115 115 111 106 109 109 108 107 109 109 108 105 104 104
66 57 40 26 20 10 5 12 14 21 30 32 45 54 64 62 66 72 73 65 75 91 93 120 126 127 125 124 123 127 119 115 115 115 115 113 117 118 116 118 118 118 116 118
71 70 65 48 32 18 10 4 13 21 33 37 40 45 54 53 60 64 67 68 68 79 91 105 114 124 130 130 126 129 127 125 125 127 127 128 127 125 124 128 124 125 127 127
68 67 66 62 56 42 23 10 9 21 30 44 41 46 48 52 60 64 67 65 79 80 76 81 102 112 122 128 131 130 132 131 129 129 128 127 126 126 129 134 135 128 129 127
60 62 61 59 58 52 45 36 22 8 12 22 36 50 56 54 59 61 65 76 73 74 84 82 81 86 99 116 122 132 131 132 132 130 131 134 134 135 132 131 130 132 132 135
53 57 57 55 53 57 51 43 40 32 20 6 12 19 35 47 60 71 63 67 78 81 82 79 86 91 88 85 105 119 122 126 128 132 131 131 133 132 134 136 133 132 132 134
51 49 53 48 51 51 46 45 41 40 35 31 19 6 12 25 36 52 65 73 77 90 91 95 89 92 94 95 89 94 102 110 119 122 125 133 141 144 143 141 144 144 146 149
46 51 49 46 48 46 48 46 45 44 40 32 27 26 19 10 15 30 44 54 61 68 72 80 92 95 95 109 106 104 104 99 98 101 104 106 109 121 130 133 138 138 132 138
49 54 50 49 51 49 48 48 44 45 40 41 38 33 27 22 18 15 21 33 43 51 58 64 74 83 88 90 92 96 99 100 107 105 105 104 103 106 112 119 124 126 126 128
39 48 48 47 54 54 56 51 45 42 40 37 39 41 40 36 32 24 22 23 29 39 51 60 68 73 78 83 87 90 94 99 102 104 109 112 115 115 115 116 116 117 121 124
42 39 47 48 50 53 55 54 56 54 44 46 41 39 38 41 41 41 39 31 25 29 37 47 57 65 71 74 77 83 89 95 99 102 102 102 105 104 109 112 113 113 113 114
43 44 46 47 52 53 51 56 61 60 53 52 48 48 47 45 44 43 41 41 38 31 30 36 43 50 60 67 74 78 82 86 89 91 94 97 98 98 99 101 99 103 102 104
44 47 47 49 53 55 55 54 57 61 61 60 57 61 61 54 56 56 54 51 47 42 34 31 34 41 47 55 63 71 78 82 84 86 88 91 92 93 94 95 94 95 96 95
42 46 47 48 52 53 57 56 60 63 63 64 65 60 65 60 63 62 61 59 59 55 46 35 32 34 39 46 52 59 66 73 79 83 86 88 89 90 91 91 91 92 92 92
40 45 48 51 51 54 58 58 61 64 63 72 72 71 71 70 72 69 65 68 68 64 56 47 40 34 36 40 45 51 57 62 68 73 79 83 87 89 90 91 91 91 91 91
41 44 49 52 52 55 56 61 59 60 66 66 73 76 78 76 75 74 71 71 73 67 63 54 46 43 39 38 41 46 51 56 61 66 72 77 82 85 88 89 90 90 90 89
44 47 49 55 53 56 58 58 60 64 64 66 77 79 83 81 77 82 78 78 81 78 70 62 52 48 45 43 41 42 46 50 54 60 66 71 75 78 81 85 88 90 89 89
47 50 48 55 58 57 60 61 66 66 65 69 79 82 85 85 85 89 88 88 88 86 77 70 58 54 49 46 43 42 44 47 50 53 58 63 68 71 74 77 80 83 86 88
49 51 52 55 59 61 60 63 67 71 70 74 79 83 87 89 90 93 93 93 97 93 82 73 63 57 53 49 45 42 42 44 46 48 52 55 58 61 65 69 73 76 78 81
51 54 56 57 59 61 63 65 70 70 77 77 80 82 89 90 88 93 97 93 97 99 88 74 64 59 55 50 46 43 40 41 42 44 46 49 53 56 59 62 66 69 72 75
54 57 61 61 63 64 65 67 70 72 77 81 82 81 88 99 93 94 99 92 97 95 86 74 66 59 55 50 45 43 41 40 41 41 42 44 46 50 53 56 60 63 66 69
56 59 61 62 62 65 69 72 72 74 79 81 85 86 93 101 96 99 101 97 96 92 82 73 66 60 54 50 45 42 41 40 40 40 40 41 43 45 48 51 54 58 61 64
58 61 63 63 64 69 71 76 76 80 81 85 87 91 98 102 102 100 101 100 98 93 82 73 66 60 55 50 46 42 40 40 39 39 39 39 40 42 44 46 48 51 55 58
60 63 63 64 69 71 74 76 81 84 85 90 92 94 101 106 101 102 101 103 99 94 83 75 66 59 53 50 47 44 42 40 40 39 39 39 39 40 41 43 44 46 49 52
62 64 65 67 71 73 77 78 83 88 90 97 97 94 103 106 106 104 103 102 98 94 83 76 67 59 52 48 48 47 44 42 41 40 39 38 38 38 39 40 42 44 46 48
62 65 68 72 74 79 81 83 89 91 94 100 100 101 106 108 110 108 106 102 97 90 81 75 67 59 53 50 48 48 47 44 42 40 39 38 38 38 38 39 40 41 43 45

GFSNGP_250_spd_117.txt.gz
Wind_Speed
20 16 22 33 28 21 18 13 13 18 24 29 42 52 73 99 120 134 133 130 121 106 105 104 99 96 89 90 86 88 90 90 92 88 85 81 84 83 85 85 85 87 92 93
30 25 24 29 28 24 20 12 11 10 21 26 29 39 60 82 105 123 133 135 130 132 109 105 111 99 98 100 99 94 93 94 94 88 89 90 88 88 86 87 86 94 96 97
47 35 28 27 29 24 20 15 14 10 17 21 24 29 34 59 84 96 113 117 126 137 133 122 112 115 108 106 105 101 98 95 93 101 93 99 101 101 98 97 95 93 91 93
60 59 42 30 28 26 22 21 17 14 12 20 20 22 23 34 50 76 93 108 118 126 138 137 124 118 124 122 115 112 113 111 107 106 110 109 101 105 110 110 108 107 106 106
68 63 56 57 49 38 32 17 9 3 8 10 12 22 32 29 44 50 57 78 111 115 129 140 138 133 130 130 128 126 122 124 124 121 121 120 120 126 121 122 124 124 120 119
66 63 62 54 55 53 39 24 7 16 23 27 29 30 28 33 32 43 53 58 57 106 130 138 147 147 145 133 129 134 131 129 133 135 130 131 127 125 130 131 130 128 123 122
60 62 61 58 58 56 49 40 29 17 4 13 27 37 44 43 43 43 44 49 59 71 80 115 137 146 146 146 143 134 138 134 136 138 139 137 139 137 135 137 139 137 138 134
56 56 57 56 53 51 45 44 38 33 28 21 10 5 21 42 50 56 62 59 59 63 67 76 83 119 125 137 151 146 144 141 149 155 154 146 139 138 139 144 143 142 143 142
51 49 49 48 50 51 49 45 43 41 37 30 24 17 9 5 20 40 55 60 69 75 74 77 77 81 92 96 106 120 140 150 151 146 144 147 151 151 146 144 145 147 147 146
44 45 45 46 48 47 46 46 45 42 40 33 27 25 21 17 13 10 15 25 40 57 67 76 86 91 94 95 98 101 107 108 113 120 128 144 163 155 158 152 154 154 156 159
39 43 43 37 37 42 43 42 39 41 40 39 34 31 25 24 21 20 14 11 18 26 38 53 68 81 90 96 103 107 110 116 115 111 115 122 127 134 136 140 146 149 153 156
40 39 38 38 38 38 37 39 39 41 40 38 40 41 38 35 32 30 26 25 21 20 23 28 39 54 70 83 91 98 107 113 119 121 120 120 121 124 126 122 128 131 134 135
36 38 38 36 38 35 36 38 40 38 43 46 47 50 50 48 47 44 40 40 38 36 31 28 26 32 43 54 65 77 90 99 105 110 115 121 124 125 126 128 131 133 135 139
34 37 38 40 38 41 39 43 41 41 40 44 47 50 55 58 65 60 59 56 52 48 46 40 34 35 33 37 46 56 65 74 82 93 103 110 112 116 123 129 132 135 135 137
33 36 38 41 43 40 43 43 46 46 44 48 47 50 53 57 65 64 66 67 63 61 62 57 50 40 36 36 37 43 51 58 65 72 78 86 94 101 107 113 120 125 127 127
33 36 40 41 43 45 45 45 46 44 47 53 52 46 55 60 66 67 69 72 70 67 66 66 62 55 44 37 37 39 43 49 55 61 67 74 79 85 92 97 103 107 110 112
34 37 40 44 48 46 49 51 48 51 48 51 54 54 54 63 68 74 73 77 80 75 74 75 71 66 56 49 43 41 42 45 49 54 59 64 69 74 79 83 89 92 96 100
35 38 41 45 49 48 48 52 53 52 53 56 56 60 61 63 69 76 78 83 84 82 85 81 79 73 67 57 51 47 45 46 46 49 53 57 61 65 69 73 78 82 87 90
34 39 42 46 48 48 47 51 54 54 58 59 63 65 68 68 74 77 82 85 90 88 88 87 86 79 71 62 56 53 48 45 44 45 47 50 54 58 61 65 69 73 77 80
36 39 44 47 49 48 49 53 56 56 57 63 65 68 67 73 76 82 87 89 95 92 92 94 90 83 73 62 59 55 51 46 43 42 43 45 47 50 54 57 61 64 68 70
40 42 45 46 48 49 51 55 57 59 63 66 68 73 76 74 84 83 90 92 98 95 96 96 94 86 75 64 59 56 51 46 41 40 40 41 43 45 47 50 53 56 59 61
45 46 47 48 48 51 54 58 60 62 66 70 73 78 81 84 86 91 94 97 102 98 98 99 97 87 77 67 60 56 51 46 41 38 38 39 40 41 43 44 47 49 53 55
44 49 47 49 50 55 59 61 63 67 69 72 77 82 86 87 87 94 98 99 102 101 101 101 99 86 76 66 60 56 50 45 42 39 38 38 38 39 39 41 42 44 46 49
47 49 50 52 55 60 63 65 67 70 73 76 81 86 91 91 94 92 99 98 106 104 104 103 97 84 74 66 60 54 50 46 42 39 38 39 38 38 38 38 39 41 42 45
52 54 55 57 59 64 66 69 72 76 77 82 82 87 94 97 100 99 99 101 103 105 106 103 95 83 73 67 60 55 50 47 44 41 38 38 38 38 37 37 38 39 39 41
58 59 60 62 65 68 70 73 77 80 83 87 88 94 95 99 104 102 101 103 104 107 107 104 93 80 72 66 60 54 50 48 46 44 41 40 38 38 37 37 37 38 38 39
61 63 65 67 70 73 76 78 81 85 87 92 93 97 101 107 99 109 99 105 106 108 106 100 89 78 71 65 58 53 50 48 46 44 42 41 39 39 38 37 37 37 36 37